GFSCGP_850_spd_000.txt.gz
Wind_Speed
4 3 7 8 6 3 4 6 12 8 4 13 14 22 21 20 14 14 14 14 16 20 17 17 17 18 17 17 16 15 13 12 9 6 5 4 3 3 1 0 9 6 3 5
4 6 5 2 3 5 8 14 11 4 4 13 16 23 15 5 6 6 5 4 6 10 14 17 19 19 22 20 19 14 13 13 12 9 8 9 8 6 5 4 4 3 6 6
3 4 3 4 4 9 10 10 12 16 22 10 13 7 4 5 4 3 3 3 4 3 7 12 17 21 22 23 20 18 15 15 15 16 12 9 9 9 7 7 6 9 9 9
2 3 4 5 6 9 9 5 11 17 15 7 9 6 5 3 7 5 6 6 9 8 8 8 10 16 21 22 22 21 19 18 18 21 15 15 12 12 12 12 11 13 13 14
5 4 6 4 6 6 5 13 16 12 9 9 6 5 2 3 3 4 5 6 7 10 10 11 10 12 16 20 22 24 22 21 20 20 20 15 14 14 13 13 15 13 16 19
3 1 2 5 8 3 10 13 11 4 2 4 4 4 3 2 4 6 5 9 9 10 11 15 17 14 13 18 24 26 26 23 22 22 23 22 20 17 16 13 12 12 11 13
4 2 2 4 7 2 11 10 4 3 3 6 4 9 9 6 4 6 9 10 9 12 14 16 15 13 14 18 24 27 27 24 22 26 27 25 23 17 14 11 11 13 11 12
5 2 3 5 4 7 4 5 3 5 5 11 14 7 0 3 6 8 7 7 9 12 17 18 16 15 16 19 22 24 24 26 24 28 26 23 20 13 10 15 16 17 16 20
5 2 2 2 5 4 2 2 3 5 1 5 5 8 16 7 4 4 7 10 11 17 18 18 16 18 18 21 25 27 27 25 25 25 23 21 19 17 16 17 18 17 20 21
3 6 2 2 3 4 4 2 3 3 5 6 7 16 10 6 9 9 13 13 14 21 22 22 21 22 22 24 23 25 30 29 27 25 22 18 17 16 16 18 21 23 26 27
3 2 4 8 2 13 6 4 4 4 4 4 7 7 6 12 16 13 13 16 22 27 26 27 25 23 23 23 25 27 28 26 23 20 17 15 13 15 18 20 21 23 26 28
3 4 5 13 13 6 8 7 5 3 5 7 6 17 20 18 10 8 17 27 28 28 28 26 27 28 22 22 22 23 20 18 16 13 12 12 15 16 18 18 22 24 24 25
2 1 7 9 3 2 3 4 6 9 4 17 9 12 5 11 18 34 31 31 32 30 29 30 36 30 22 20 18 15 15 14 11 11 12 16 17 15 15 17 21 23 24 24
6 7 11 12 17 15 19 23 23 17 8 19 21 38 33 32 29 30 34 32 30 27 30 36 39 29 21 17 13 13 12 9 10 14 16 14 12 17 19 23 27 28 28 28
5 9 15 21 20 18 22 29 30 25 27 17 37 31 32 31 30 37 36 29 27 26 37 37 34 29 20 15 13 12 8 10 13 16 14 12 16 21 24 27 31 30 29 29
4 7 4 14 21 20 23 29 32 28 30 31 33 35 32 40 33 29 29 30 26 34 40 34 32 28 19 17 14 9 14 12 14 17 14 14 20 21 26 31 30 28 28 29
6 3 3 6 7 5 10 24 22 17 15 16 21 26 23 23 24 21 23 28 35 39 26 33 31 25 15 14 11 9 14 13 15 17 13 18 20 25 30 30 28 28 30 31
5 3 3 6 4 7 3 17 19 18 19 22 21 22 25 23 22 25 38 38 33 30 31 28 23 14 11 13 14 16 10 14 16 11 16 18 23 28 30 27 27 28 29 31
18 4 4 4 8 20 13 7 7 11 15 16 16 14 22 30 39 31 31 26 28 30 31 23 21 16 17 17 19 10 13 12 10 12 14 22 27 29 27 27 27 28 29 30
3 6 4 4 10 15 11 24 8 5 14 9 8 21 25 25 14 18 40 22 29 29 24 24 23 18 21 11 6 11 12 10 8 13 19 27 27 27 26 27 27 28 29 30
3 3 11 12 10 12 13 4 1 4 10 13 32 36 36 21 28 42 32 34 31 26 22 25 21 13 6 7 12 14 9 7 13 18 22 25 26 24 27 26 26 28 28 31
8 4 5 5 7 11 4 3 5 17 39 43 44 44 41 37 36 33 25 29 26 27 23 15 2 3 5 10 12 8 6 10 16 19 23 24 24 25 24 24 26 26 27 31
5 10 10 12 10 19 21 23 32 42 41 47 39 41 35 36 41 20 31 29 23 24 9 3 4 8 10 12 7 5 10 14 17 21 22 22 24 22 21 23 24 24 25 26
6 17 11 14 15 30 32 36 42 47 39 40 41 34 33 32 20 31 26 22 26 11 2 3 8 11 8 7 8 10 12 16 19 21 22 24 20 24 23 21 20 22 23 23
13 9 8 18 26 40 33 36 38 42 42 41 37 33 33 22 27 21 21 22 13 2 3 6 10 8 4 7 9 11 14 18 19 21 23 20 20 23 23 19 20 21 20 20
10 8 7 18 36 33 41 43 42 47 43 41 34 34 27 18 18 16 17 13 4 2 5 10 9 6 5 8 10 14 17 18 19 21 19 20 23 22 19 20 21 19 23 21

GFSCGP_850_spd_003.txt.gz
Wind_Speed
4 5 8 10 8 5 7 11 14 12 7 12 13 20 15 10 6 5 7 7 10 12 13 14 16 18 17 16 15 15 15 15 13 12 11 10 11 10 10 9 7 6 5 4
7 7 7 7 5 9 12 13 11 11 14 17 17 18 10 6 5 3 2 3 0 3 6 10 17 19 20 19 19 18 17 17 16 14 14 14 14 14 12 11 12 9 9 7
5 7 4 6 6 14 14 10 16 18 19 17 13 12 6 6 7 6 6 5 3 2 2 6 11 16 18 20 20 20 20 19 18 17 16 16 14 15 14 14 14 15 12 11
5 2 5 6 5 11 12 10 15 18 17 9 12 7 3 3 7 6 4 4 5 6 6 6 8 11 16 19 19 20 21 21 21 20 20 19 19 19 17 16 15 14 13 13
5 3 5 4 7 9 9 16 16 15 12 11 3 6 4 5 2 2 2 5 6 8 9 11 12 14 14 16 19 20 22 23 24 23 25 24 25 22 18 16 16 15 14 13
3 1 3 5 9 5 14 19 20 1 6 6 6 3 11 5 2 2 4 6 7 10 13 14 15 16 15 14 16 18 21 24 25 26 27 28 28 24 19 17 15 15 14 14
5 4 3 5 12 3 14 13 5 3 5 8 4 7 13 7 4 3 5 7 7 10 12 15 17 18 17 16 17 18 21 26 28 29 30 28 26 23 20 17 14 14 17 13
5 3 2 7 5 7 8 8 3 5 6 13 17 8 5 1 4 5 4 7 9 9 17 19 19 19 18 19 20 22 25 28 28 29 30 27 24 21 16 14 16 22 14 13
5 1 3 0 5 6 3 5 5 6 9 6 8 12 16 13 1 1 9 11 12 16 21 19 20 20 20 21 24 26 29 30 30 28 27 26 22 20 18 17 14 14 11 13
4 7 2 1 7 9 8 7 5 4 5 11 10 16 11 6 8 6 11 11 16 20 20 21 20 20 21 24 27 27 29 29 27 26 25 21 18 18 19 16 21 16 15 16
6 2 6 13 5 14 7 9 4 5 7 6 10 7 11 22 23 17 13 17 23 23 21 21 23 25 29 31 29 26 25 22 22 21 21 17 16 14 16 16 11 13 19 20
5 5 7 15 14 4 6 9 10 8 8 9 15 18 20 14 7 10 19 24 23 23 22 22 25 32 32 32 26 24 21 18 16 16 16 16 14 13 12 14 16 17 18 22
8 2 7 9 5 5 7 9 12 13 11 19 10 13 8 23 32 34 28 34 30 27 24 28 29 34 32 33 25 22 18 15 14 14 14 12 10 13 17 17 17 18 20 22
6 8 10 11 18 19 20 24 26 20 10 23 21 36 31 27 27 33 35 30 26 27 30 34 34 30 37 33 28 21 16 14 14 13 12 12 14 15 16 16 16 18 21 24
6 11 15 19 22 22 23 26 31 26 26 22 33 30 32 29 27 28 30 27 26 34 37 34 27 35 39 30 25 18 15 14 14 13 14 16 15 16 15 16 18 21 23 25
5 5 8 17 23 21 21 25 30 27 28 29 30 33 24 32 28 29 25 27 38 41 36 35 31 39 32 27 23 16 15 15 17 18 16 14 15 15 15 17 20 23 25 25
11 3 2 7 14 9 11 18 17 16 20 23 20 23 24 21 19 25 35 39 38 36 38 33 37 35 28 25 17 16 16 17 14 12 13 13 13 14 16 19 23 24 25 26
4 3 1 5 4 7 7 23 22 17 19 20 23 21 15 22 34 38 34 32 27 36 36 36 37 28 22 18 15 16 13 11 11 12 12 12 13 15 18 21 23 25 26 26
17 5 3 4 11 21 16 12 19 15 16 19 14 13 26 39 39 28 25 29 34 31 36 34 29 25 27 21 17 16 17 9 12 10 10 12 13 17 20 22 24 25 25 26
3 4 4 5 10 13 10 22 7 14 15 7 13 20 31 34 15 12 22 36 28 33 32 27 24 31 27 20 8 4 7 11 11 11 10 12 14 18 21 22 24 24 25 27
2 3 11 12 10 12 16 20 4 7 12 23 34 34 31 19 28 36 36 34 38 28 28 21 31 24 12 6 6 8 10 11 8 10 10 13 16 19 20 22 23 25 26 27
11 4 4 4 8 10 3 6 3 14 35 39 37 35 36 35 34 32 28 34 27 28 21 31 17 6 4 6 7 9 9 5 8 9 12 15 17 18 20 21 24 24 24 26
13 14 11 11 9 21 38 35 38 39 41 34 37 36 30 32 34 32 26 25 25 15 29 12 6 5 7 7 6 6 7 10 10 13 14 16 18 19 19 21 23 23 23 26
7 23 17 20 18 29 36 44 45 37 33 39 36 35 36 38 31 28 23 25 18 26 12 4 5 8 9 5 4 4 9 13 14 13 15 17 17 19 19 20 20 21 23 25
12 8 13 23 31 38 33 33 34 33 37 34 32 36 34 28 29 23 22 23 24 18 5 4 7 9 8 4 4 7 11 16 15 14 17 16 16 18 19 18 19 21 23 24
17 18 13 14 38 31 40 38 38 34 30 34 34 32 31 26 23 17 18 21 16 5 4 6 10 8 5 4 5 8 13 14 17 19 14 17 19 18 18 20 21 19 22 25

GFSCGP_850_spd_006.txt.gz
Wind_Speed
7 7 8 8 8 9 10 13 15 15 8 16 16 17 15 6 9 9 9 9 8 6 8 7 11 14 16 15 17 17 16 17 19 16 17 15 16 15 16 13 16 14 12 12
7 5 6 6 6 9 15 14 12 12 17 15 18 19 14 8 7 6 5 7 8 6 6 4 1 9 15 16 17 19 18 18 20 18 17 16 17 17 21 18 21 23 17 17
5 7 6 6 6 10 14 8 13 17 18 15 12 12 10 6 13 8 6 5 5 4 6 5 5 8 13 17 18 19 20 20 21 24 20 21 22 26 20 21 21 19 23 20
5 3 5 8 6 10 10 13 16 17 14 9 15 7 5 11 11 10 8 6 4 5 5 6 5 8 10 16 20 22 20 22 23 25 27 25 25 24 24 21 25 28 25 19
4 5 7 10 6 9 10 16 19 20 14 10 4 5 11 7 8 11 11 7 5 5 7 9 11 11 15 14 15 19 22 21 24 26 28 31 33 31 28 25 22 21 19 19
3 1 2 7 11 13 12 17 20 4 0 3 6 2 10 6 4 5 4 6 8 7 9 10 13 14 14 17 16 19 23 24 25 27 30 34 34 35 28 27 26 24 22 20
6 7 5 4 12 10 15 13 4 4 2 4 14 10 11 16 0 3 7 9 5 6 8 9 15 17 16 16 18 20 23 27 28 29 32 34 38 34 35 32 29 26 23 21
6 3 2 6 4 6 14 7 2 4 4 10 18 6 7 4 5 6 3 3 13 8 9 18 16 13 15 14 17 20 26 29 30 31 33 34 35 36 30 28 23 23 23 21
6 2 7 3 3 5 6 4 6 5 9 4 5 13 14 6 7 10 11 14 6 11 13 15 14 15 16 16 19 24 31 32 31 35 35 33 29 30 30 23 21 22 16 10
4 7 9 2 9 13 7 7 3 1 3 6 8 15 10 13 17 21 17 14 18 16 21 18 16 15 19 25 27 28 30 29 34 32 28 25 27 26 24 19 18 13 16 20
6 2 8 13 2 11 3 6 6 8 5 4 6 6 11 22 24 12 19 25 26 19 15 14 13 16 18 25 24 31 33 30 31 30 28 26 25 21 19 20 15 20 15 19
6 4 5 18 17 3 5 8 8 3 8 9 12 14 17 13 9 34 29 21 22 18 15 19 24 24 23 21 28 42 32 30 27 25 22 23 19 17 16 13 12 17 17 20
9 3 5 8 5 3 12 19 18 16 2 8 7 10 12 26 27 29 26 23 24 18 19 28 32 21 22 30 45 36 30 26 22 17 14 14 14 12 12 16 20 23 16 23
2 6 6 8 15 18 19 22 24 20 12 17 15 28 21 20 20 20 18 22 23 24 28 30 24 26 26 38 38 29 28 25 19 13 11 11 11 12 15 18 15 16 21 21
3 6 11 17 19 20 23 25 24 23 21 19 24 22 23 19 18 17 21 23 28 29 27 27 35 34 33 34 31 25 26 21 15 12 12 13 15 19 19 15 14 19 23 28
4 4 3 7 19 20 19 22 25 25 22 21 20 21 16 24 21 23 28 31 28 22 24 33 31 36 37 32 27 22 20 15 13 13 16 21 14 12 13 15 18 25 27 27
14 3 2 8 9 11 11 14 16 13 17 17 16 21 18 15 18 23 31 28 18 24 30 30 34 37 31 26 21 23 17 15 17 19 20 11 10 10 14 17 22 24 28 27
10 4 3 3 3 6 7 20 24 20 16 17 19 21 15 18 30 30 25 21 25 25 37 38 37 31 26 27 29 33 26 15 18 13 10 7 9 12 16 20 23 25 27 29
8 5 2 3 8 17 16 17 13 19 13 16 10 18 30 32 31 26 17 24 33 37 32 35 30 27 27 29 34 27 20 19 9 8 6 8 11 14 19 21 22 27 29 28
9 8 1 3 13 15 2 18 27 14 15 14 18 22 25 21 13 11 29 27 27 24 27 26 27 28 37 31 17 6 7 7 8 8 8 10 13 15 18 21 26 27 24 27
2 3 6 10 10 10 14 19 15 7 5 26 23 25 27 14 15 31 36 28 25 25 26 24 22 35 19 9 5 7 9 12 7 7 10 12 13 17 19 22 24 24 27 30
8 6 4 5 5 11 5 13 5 18 29 33 28 26 29 30 30 27 28 21 29 26 26 21 30 16 8 6 7 8 8 2 5 13 13 13 15 18 21 21 24 25 27 25
5 7 7 9 7 29 40 38 31 45 36 37 33 35 24 30 31 28 26 25 20 22 19 28 13 8 8 9 6 6 8 11 15 14 13 17 20 21 18 24 22 23 22 25
6 19 12 16 19 30 38 44 41 37 34 32 31 26 31 27 28 30 25 21 19 18 26 15 7 7 9 7 6 6 8 12 14 16 17 20 20 20 23 21 19 21 24 27
8 11 12 21 29 33 32 31 37 39 37 22 27 21 22 27 30 27 21 20 19 26 14 7 7 9 10 6 5 6 10 13 16 18 20 18 19 22 20 18 19 20 22 25
12 15 10 17 33 29 38 40 40 29 20 21 21 23 26 27 23 20 21 26 21 12 7 7 9 9 8 5 6 8 10 16 20 21 20 20 19 17 17 20 21 21 20 23

GFSCGP_850_spd_009.txt.gz
Wind_Speed
3 6 3 3 3 2 5 6 5 5 10 11 6 10 12 9 18 20 20 20 17 15 15 11 16 14 12 13 14 16 18 20 21 20 21 22 23 25 21 23 24 21 21 19
7 4 3 5 8 7 8 5 6 4 11 7 11 16 10 9 10 18 18 15 14 12 13 12 6 2 6 10 15 17 18 20 20 23 25 24 23 21 23 22 24 23 25 24
3 3 5 6 6 8 6 5 6 7 10 10 5 9 7 4 17 15 11 10 8 7 4 2 2 5 10 12 14 17 17 18 22 24 25 27 22 23 26 25 25 28 30 29
2 4 5 7 3 5 4 8 9 11 7 3 5 4 5 6 7 8 13 17 15 12 13 9 5 2 4 8 10 13 16 19 20 23 27 29 31 31 31 31 31 28 28 29
3 2 4 4 4 5 7 6 13 14 8 2 7 3 5 5 4 6 13 17 14 11 6 4 3 5 6 8 8 11 15 19 25 24 27 30 31 33 36 33 26 27 25 23
5 4 3 1 7 6 7 7 11 5 3 3 6 4 5 3 3 5 11 14 13 6 3 0 3 10 16 13 14 16 17 21 24 26 29 31 34 37 36 37 35 32 28 21
5 5 3 3 5 7 11 7 4 6 4 4 12 6 8 8 5 10 8 6 3 2 1 4 11 7 7 7 8 9 13 18 23 27 31 34 37 38 39 41 39 37 31 24
5 5 6 7 3 4 6 3 4 2 2 5 8 3 4 10 23 17 7 4 13 15 9 10 5 2 2 3 6 13 16 21 28 33 35 27 27 35 40 41 36 33 28 25
6 4 8 4 1 3 7 4 3 1 3 3 4 7 15 3 13 19 16 15 12 9 6 9 6 5 5 10 13 16 22 26 27 35 35 36 36 37 29 30 27 25 23 22
4 5 5 7 4 5 4 1 5 3 2 4 4 5 6 10 16 18 8 20 14 11 6 10 12 16 15 16 20 27 29 31 41 28 33 35 36 25 23 26 23 21 19 19
5 3 7 7 1 3 2 3 2 2 1 3 3 5 5 17 17 10 28 19 16 13 16 18 23 15 14 18 21 26 33 42 27 29 31 32 29 24 22 20 17 16 20 26
4 2 3 10 16 10 5 6 5 2 5 4 4 10 15 11 14 30 25 15 17 18 20 20 16 18 23 30 36 38 44 32 26 28 29 26 22 20 16 15 16 17 17 17
2 3 3 8 6 7 5 14 13 9 1 9 3 8 9 22 21 10 16 21 22 24 20 23 25 29 36 36 41 40 34 26 26 28 27 19 15 13 14 13 10 12 17 18
5 2 5 5 5 6 10 18 20 12 3 8 11 22 17 18 6 13 19 21 21 16 18 23 29 38 38 41 39 31 28 29 28 23 19 16 12 8 9 13 13 11 15 14
7 5 6 8 7 10 16 20 21 16 16 13 24 19 17 8 7 12 17 20 17 16 19 28 34 35 38 36 30 27 28 31 19 15 10 9 10 12 14 16 19 10 15 21
2 5 1 6 12 11 8 21 21 20 15 12 13 18 7 14 22 24 23 23 22 22 31 35 37 35 36 30 26 28 32 27 19 16 19 16 14 16 21 13 15 16 21 25
5 3 2 12 3 5 7 13 4 6 12 11 7 4 19 18 24 25 26 17 16 25 32 37 35 36 29 26 27 32 30 34 32 24 21 21 24 15 11 10 11 21 23 27
4 3 2 4 2 4 8 14 21 17 8 8 8 14 21 22 24 25 26 17 26 37 33 34 34 28 27 31 32 39 33 22 20 16 8 6 5 4 6 15 19 23 26 28
8 5 1 2 3 9 9 9 3 11 16 4 10 21 26 23 32 18 13 18 27 30 29 29 26 25 35 31 38 24 10 11 12 9 3 2 6 12 14 18 20 23 28 31
7 7 3 2 4 6 7 4 16 14 11 11 23 15 22 25 13 12 23 33 31 30 26 23 23 33 29 31 18 10 12 12 7 2 6 6 10 16 16 18 22 27 27 26
3 2 2 3 5 7 7 9 9 4 9 22 18 19 23 11 17 26 32 24 29 20 23 21 30 27 27 15 11 8 10 7 6 3 8 16 15 16 18 23 25 24 26 26
5 3 4 2 5 8 5 12 5 14 26 35 32 21 26 25 24 26 26 30 22 21 24 26 25 23 13 11 7 7 5 6 11 15 14 15 17 19 21 21 22 24 23 23
3 7 4 9 6 11 29 25 33 39 37 37 29 19 21 17 26 29 32 22 19 21 22 26 19 12 11 8 7 7 8 11 12 15 17 17 19 19 19 22 22 20 21 25
2 12 6 6 5 25 31 41 38 36 34 23 18 20 16 20 20 23 22 27 29 31 31 15 8 9 9 8 9 9 10 12 16 18 19 19 19 19 20 18 17 19 21 26
7 7 8 14 24 32 27 28 33 24 20 16 10 14 15 21 21 23 31 34 31 25 14 9 7 9 10 6 10 12 15 18 18 21 21 19 18 17 15 17 18 19 21 18
15 15 8 15 28 23 33 25 28 13 10 11 15 16 18 18 25 32 27 24 17 14 12 10 14 8 8 7 9 10 13 17 21 20 20 16 15 15 21 19 18 15 17 19

GFSCGP_850_spd_012.txt.gz
Wind_Speed
4 6 1 4 3 2 1 3 3 4 4 8 5 9 14 4 14 18 20 24 19 13 7 7 17 19 17 12 9 12 14 15 17 19 21 22 24 23 25 26 28 26 25 26
6 3 2 5 4 3 6 3 4 6 6 3 9 10 7 9 7 21 24 23 21 19 16 14 13 10 7 5 7 9 12 14 15 18 20 22 24 25 26 25 25 27 29 29
5 2 3 5 5 7 3 2 4 6 7 3 6 7 6 4 10 14 14 17 15 12 13 10 6 2 4 5 7 8 9 12 14 17 19 22 26 30 32 32 31 31 30 34
1 2 3 6 3 4 5 4 4 6 4 2 4 3 3 3 3 3 8 11 11 10 8 7 4 4 4 4 6 8 9 13 15 17 21 24 27 31 33 35 34 32 35 32
4 1 4 3 3 2 7 7 8 5 4 3 9 3 5 3 4 0 9 10 12 10 7 6 5 3 4 8 9 9 11 13 14 18 22 28 31 34 34 35 36 36 36 35
3 2 3 1 4 1 6 6 4 3 3 3 4 1 4 5 4 5 6 9 10 8 5 4 4 8 9 7 8 11 11 9 12 18 22 28 31 35 38 39 40 39 41 40
6 4 4 3 5 7 8 6 4 5 5 3 6 5 2 1 5 6 6 2 2 7 9 7 7 7 6 7 8 7 9 15 19 26 28 33 34 36 35 35 37 39 43 40
5 6 6 5 2 2 4 4 4 1 1 5 7 3 3 7 18 20 10 6 12 6 5 1 0 2 3 2 6 12 16 22 24 26 33 38 39 33 32 34 34 35 35 29
5 4 5 4 5 3 4 4 1 3 2 3 4 6 6 10 5 14 11 23 10 7 9 13 12 10 6 10 14 17 21 27 32 39 41 33 31 33 34 32 29 27 29 31
3 4 1 6 6 3 2 1 4 4 2 3 5 5 6 8 14 18 17 13 15 16 12 9 9 3 6 12 19 27 33 37 38 33 28 29 31 31 28 23 14 18 26 26
3 3 7 4 3 1 5 4 4 0 4 3 2 5 5 12 11 9 11 12 10 8 8 11 11 13 20 26 29 33 36 32 33 29 29 30 29 29 27 20 19 18 19 16
3 3 3 5 9 4 1 4 5 3 5 3 4 10 13 6 19 8 9 11 13 8 10 13 19 24 29 31 33 33 34 31 31 32 35 29 24 22 16 13 12 13 15 18
1 2 3 7 6 7 4 6 3 3 2 6 3 5 7 28 23 13 16 19 15 10 17 20 27 30 31 35 31 35 31 28 30 33 29 26 21 15 13 13 13 14 13 10
5 3 6 5 4 3 9 14 9 4 2 5 15 17 22 9 7 12 17 16 15 20 20 25 31 34 32 33 33 31 30 28 33 34 25 14 11 11 11 11 10 10 9 7
4 5 4 6 8 5 16 17 17 11 14 6 15 12 13 3 2 9 14 14 19 23 20 27 32 35 33 33 31 32 27 32 37 31 25 19 16 15 12 9 9 10 17 16
3 4 2 9 7 8 18 15 13 13 14 11 10 13 2 12 13 14 20 27 27 20 24 35 32 34 32 31 29 26 30 34 36 29 21 21 18 16 17 15 13 12 12 13
3 3 2 6 4 5 10 7 5 6 7 8 7 5 5 9 12 17 31 29 29 21 32 39 33 32 31 31 27 32 32 31 18 14 14 15 13 12 12 7 4 8 13 19
5 4 1 3 1 4 8 5 6 5 7 7 3 4 9 14 22 23 23 23 20 28 36 35 33 31 32 29 32 32 24 10 11 9 8 7 6 7 4 6 10 17 21 24
8 5 1 2 3 6 10 9 2 2 7 4 4 12 19 29 31 23 19 21 25 33 30 31 26 31 28 30 31 25 15 10 9 9 8 6 3 8 13 19 20 21 23 27
6 5 3 3 4 5 8 4 4 2 5 6 13 14 24 25 11 12 20 20 27 32 31 27 26 24 27 30 26 18 13 11 5 5 8 10 12 18 17 19 21 23 25 25
2 1 4 3 6 8 9 10 5 4 9 14 22 26 23 8 11 20 21 25 26 26 24 24 25 27 31 21 15 6 6 6 6 9 14 16 16 18 19 21 21 21 25 25
6 3 4 2 3 8 4 2 1 9 15 29 31 18 11 12 16 19 22 18 24 29 32 31 33 25 16 16 9 8 6 9 12 13 14 16 18 20 20 20 21 22 21 22
3 7 5 9 7 5 8 22 21 29 32 23 12 12 14 13 15 18 24 27 35 35 35 26 15 14 13 8 9 10 11 9 15 15 17 21 21 20 20 22 20 19 21 22
4 7 4 6 8 16 24 37 38 26 19 13 14 11 14 12 21 21 26 33 30 28 21 18 15 14 9 10 6 9 13 14 16 19 22 24 21 21 19 17 18 19 19 19
9 8 5 14 22 31 30 23 19 11 8 7 5 4 19 17 19 22 28 28 23 22 20 17 13 11 7 7 10 15 15 14 17 21 22 21 19 17 15 18 16 15 15 16
15 15 7 14 24 20 24 16 5 9 6 7 15 23 20 19 18 26 24 20 19 15 12 10 10 13 15 14 14 14 16 18 19 20 21 17 15 14 18 18 16 13 16 17

GFSCGP_850_spd_015.txt.gz
Wind_Speed
5 6 2 1 2 3 1 1 3 4 3 7 5 9 11 13 4 5 2 12 12 9 6 11 21 20 19 17 12 8 8 8 10 10 12 15 19 22 24 22 22 22 23 26
6 3 2 4 5 5 3 2 4 6 5 2 7 10 8 9 5 6 18 18 17 13 8 5 5 8 9 6 6 7 9 11 11 12 12 16 20 23 27 28 28 29 28 28
5 1 5 4 5 6 3 2 3 5 7 2 6 5 6 6 10 9 10 12 14 14 13 12 9 6 5 5 5 8 12 13 14 15 16 17 20 24 28 30 32 32 34 35
2 3 3 6 3 1 4 3 2 6 4 2 5 3 5 4 4 7 5 7 11 12 11 9 7 5 9 10 10 12 14 15 15 17 18 21 25 31 31 33 35 36 36 39
2 3 5 6 4 2 6 7 4 3 3 2 8 4 6 6 4 4 3 7 7 6 5 6 8 9 8 7 10 12 14 14 15 14 16 23 30 31 34 35 38 38 40 41
4 3 3 2 2 3 8 4 5 4 3 2 1 3 6 3 3 3 0 4 3 4 5 7 6 7 9 11 12 13 12 10 11 19 25 31 32 36 41 43 43 37 36 34
6 4 5 4 5 6 8 6 4 4 4 4 2 2 5 3 2 1 7 9 19 15 13 11 11 11 10 8 6 7 10 14 20 25 27 35 37 42 43 38 32 33 35 36
4 5 5 6 1 3 3 3 4 3 1 4 6 2 4 6 16 16 18 16 12 6 9 6 2 2 2 4 9 13 18 23 27 33 37 37 34 33 32 32 32 32 31 32
5 4 4 1 3 1 3 5 1 5 3 2 4 5 6 6 7 9 13 7 9 12 11 8 4 4 6 11 17 22 27 31 33 31 30 29 29 31 31 30 30 31 28 25
2 4 2 6 3 4 4 2 4 4 2 3 5 6 5 5 11 18 17 11 11 9 9 9 8 10 15 24 23 27 28 29 30 29 29 32 36 33 26 26 28 27 24 21
2 3 6 3 4 2 4 4 5 3 3 3 3 5 5 5 8 10 7 11 12 4 9 15 21 22 27 28 27 26 28 30 29 27 30 35 37 29 27 26 26 26 18 18
1 3 3 3 7 4 4 5 4 3 3 2 3 7 5 5 10 7 11 14 15 9 19 25 24 26 28 30 29 31 29 33 32 30 34 41 36 28 28 22 17 15 13 16
1 2 3 6 6 4 4 3 3 3 2 6 3 5 3 20 7 5 11 15 17 21 26 30 26 27 27 31 28 31 31 34 32 34 40 42 37 24 18 15 14 14 12 9
2 2 5 5 5 4 6 4 3 5 3 4 11 17 17 8 4 13 18 19 22 26 27 26 25 31 31 30 31 32 33 33 36 40 40 35 27 21 16 14 10 7 8 9
3 2 3 5 7 7 13 12 16 7 10 6 10 11 12 5 5 14 19 22 25 26 26 22 28 34 32 31 34 35 33 33 38 38 36 24 19 16 14 16 15 13 11 16
2 3 3 4 7 9 15 13 11 12 9 8 9 9 0 6 11 14 20 23 27 26 26 27 31 32 35 33 34 33 31 35 35 27 20 16 15 14 8 10 17 18 9 11
2 4 1 5 5 9 6 7 4 4 5 5 5 5 3 7 13 20 26 29 26 30 24 28 34 38 35 34 34 30 32 31 20 14 13 10 8 8 9 10 12 12 13 16
5 4 2 3 3 2 8 3 6 9 9 6 4 3 8 17 23 27 22 12 19 22 27 31 34 36 37 35 31 32 30 25 18 15 13 13 12 11 10 13 17 17 18 20
6 5 3 3 4 6 10 10 2 4 6 5 5 5 19 26 25 18 9 17 23 23 28 31 31 33 33 35 35 31 25 19 13 9 7 7 11 16 17 19 18 21 23 24
6 5 3 2 4 5 8 3 2 3 7 8 3 10 18 18 9 4 13 19 20 20 23 29 33 34 35 35 21 19 19 7 10 9 11 14 15 16 18 21 23 22 23 25
2 1 4 3 7 8 10 11 3 4 5 10 13 21 20 6 9 13 18 19 17 27 33 37 36 29 22 20 18 21 7 9 7 13 16 14 17 20 23 23 23 24 25 24
5 3 5 2 3 8 6 1 5 10 25 17 21 11 7 6 9 17 20 22 27 32 33 30 28 23 20 17 14 17 11 13 9 17 16 19 22 23 23 23 23 22 23 25
4 8 4 9 6 5 11 13 28 19 21 16 8 8 3 9 16 20 24 23 29 30 28 27 26 24 23 17 13 11 9 13 18 16 21 23 24 22 22 21 21 23 23 24
4 9 4 5 7 24 22 32 36 33 14 13 9 2 11 16 19 21 20 24 29 29 27 24 20 15 9 7 7 11 15 17 19 19 23 24 24 21 19 19 21 21 21 24
9 4 5 10 22 28 30 18 21 17 11 2 4 4 18 20 26 23 21 26 26 24 20 20 18 17 16 16 15 16 15 14 19 20 21 22 21 19 19 20 21 20 20 21
13 7 6 10 25 23 27 19 9 10 4 5 12 15 19 21 22 22 25 25 22 19 20 18 15 15 18 19 20 17 17 18 19 21 22 22 20 19 19 22 23 18 20 21

GFSCGP_850_spd_018.txt.gz
Wind_Speed
7 8 2 3 1 2 1 2 3 3 2 6 5 6 9 13 15 14 11 5 4 12 13 16 19 19 14 17 16 12 8 7 10 10 10 11 13 15 17 20 22 22 25 29
6 4 1 6 5 2 1 2 4 5 3 1 6 7 6 10 8 12 14 13 11 10 8 10 10 6 3 6 8 9 9 11 13 13 14 17 20 22 24 26 28 28 28 29
5 1 4 4 5 6 4 2 2 5 7 1 5 5 7 4 10 12 13 11 11 10 10 9 8 6 3 4 6 7 9 12 16 17 19 21 24 26 27 29 30 29 33 35
3 3 5 5 4 2 3 1 3 6 3 1 4 2 5 6 5 7 4 4 5 5 5 3 0 2 4 6 8 11 14 16 16 16 16 18 21 26 31 33 33 34 34 36
1 3 5 6 2 1 6 4 2 2 3 3 7 4 6 5 4 5 9 6 4 3 5 6 7 7 8 10 11 13 11 8 8 9 13 21 28 32 35 39 41 42 37 30
1 2 3 2 2 2 5 4 5 4 2 3 1 3 5 3 3 4 6 12 13 10 11 9 8 7 6 7 7 7 8 11 13 17 23 28 34 38 41 41 38 36 35 36
6 3 5 4 6 6 9 6 3 3 4 3 3 1 4 4 6 6 12 19 19 15 9 8 8 6 5 6 8 11 15 19 24 29 32 34 34 33 34 35 36 37 35 35
4 5 5 6 1 2 3 4 4 2 1 4 4 3 5 3 20 13 10 11 11 15 13 12 11 11 11 13 18 22 26 29 31 31 30 28 28 30 34 37 35 32 31 34
4 3 5 2 3 1 1 4 2 5 2 2 4 5 2 4 8 16 13 14 14 13 14 14 13 16 22 24 26 27 27 27 26 27 26 27 30 35 39 36 32 27 28 31
1 3 1 5 2 7 5 3 3 3 2 3 5 5 3 6 8 7 7 15 13 7 11 16 22 22 19 21 23 24 24 25 26 29 30 33 38 41 39 37 27 24 27 27
2 3 5 2 5 2 4 3 5 4 3 3 2 6 4 4 3 2 5 8 11 9 15 21 24 22 20 24 25 26 26 30 32 34 34 38 40 42 41 31 24 23 19 14
2 4 3 4 3 1 3 3 4 4 2 1 3 6 2 7 2 2 5 12 15 20 25 25 27 27 23 31 29 30 31 34 33 35 36 41 41 44 33 24 17 9 6 8
1 2 4 8 5 5 5 1 4 5 3 6 3 6 3 13 13 6 10 15 23 30 30 26 30 26 26 29 30 30 30 34 34 33 38 42 42 34 24 15 9 8 10 15
3 2 5 5 7 3 4 4 4 5 2 3 11 17 18 14 6 11 17 21 27 30 27 26 26 26 28 30 31 32 33 34 32 33 37 37 32 25 16 11 12 13 14 13
3 2 4 6 9 7 9 11 8 9 8 7 13 8 11 7 3 11 18 22 27 27 22 22 24 25 27 31 35 35 34 31 31 35 33 25 21 19 18 16 15 13 17 16
3 3 0 4 5 5 8 12 13 10 6 13 14 16 8 4 8 17 23 21 22 17 20 26 26 28 32 37 37 35 31 33 32 35 24 18 17 14 12 13 15 15 16 18
0 2 2 5 3 8 7 6 5 3 5 5 6 9 4 4 14 20 18 18 11 17 20 24 28 33 35 36 37 36 36 31 32 27 23 17 13 13 13 15 15 18 20 18
5 4 2 4 5 1 6 3 6 8 10 8 7 4 5 11 19 18 17 11 15 23 25 26 29 34 40 42 40 36 30 28 29 23 17 15 15 16 17 19 19 20 20 23
5 4 2 3 4 6 10 8 1 5 7 4 4 2 11 20 18 10 8 10 18 19 24 26 33 36 36 31 29 27 26 24 17 15 13 14 17 18 19 20 22 24 24 23
6 5 3 1 5 5 7 3 2 2 7 2 5 9 12 22 9 6 9 19 18 19 23 31 34 33 31 27 22 22 23 17 14 11 14 18 18 19 22 25 24 23 24 24
1 0 5 5 5 7 9 11 6 4 6 7 15 14 20 5 5 8 10 15 20 21 26 31 31 32 26 22 21 19 19 13 15 13 19 17 22 23 25 24 23 23 23 24
5 4 4 1 2 8 6 3 4 8 12 22 26 22 7 2 7 10 13 18 21 22 27 29 29 28 27 21 19 17 14 10 15 18 19 20 24 25 25 24 22 22 23 24
4 7 4 8 7 7 6 16 26 25 25 25 13 6 7 5 10 15 19 21 22 23 26 27 24 22 19 17 19 21 19 18 16 19 21 24 25 24 23 22 23 24 24 24
4 6 4 2 8 22 23 33 39 28 14 8 6 6 5 15 21 25 25 22 21 26 26 25 22 17 16 14 14 18 21 21 18 19 22 22 24 23 22 22 23 24 23 25
7 2 4 7 20 26 28 26 18 11 8 3 2 7 13 18 25 27 27 24 25 27 26 23 20 19 18 20 20 22 22 19 20 20 20 22 23 23 23 21 22 23 21 23
10 7 5 10 24 20 15 6 6 4 8 13 14 18 21 22 26 27 29 27 27 27 25 24 22 21 21 22 23 22 20 20 19 19 20 22 23 22 21 22 25 20 20 23

GFSCGP_850_spd_021.txt.gz
Wind_Speed
8 7 4 2 1 3 3 2 2 3 1 5 3 4 10 11 13 14 15 14 8 3 4 9 14 20 18 12 15 15 13 9 10 11 11 12 13 16 17 17 21 23 24 25
5 4 1 5 4 2 1 2 2 2 1 1 5 7 4 12 9 11 16 17 14 11 12 12 12 11 4 2 5 10 11 13 14 15 16 18 20 21 23 24 25 28 30 30
5 1 2 2 4 4 1 2 2 3 6 1 2 3 6 5 8 13 15 12 12 10 11 10 7 6 4 5 8 10 12 13 14 15 17 18 19 19 21 24 30 31 32 33
5 3 3 3 3 1 2 2 4 4 1 1 3 3 6 5 8 12 13 14 13 10 6 6 4 2 2 3 6 8 9 11 11 10 10 13 18 23 27 30 33 36 36 34
0 2 4 4 2 1 3 2 1 0 2 2 3 1 3 4 9 10 13 16 14 10 10 8 7 7 7 6 5 5 5 6 9 13 19 25 29 33 36 36 36 36 37 36
2 2 2 2 2 1 4 2 3 2 2 1 1 1 2 3 4 6 9 15 17 15 8 5 6 5 7 9 8 9 11 15 20 24 29 34 38 40 38 38 39 40 40 39
5 3 4 4 4 2 8 4 1 0 2 1 1 1 5 9 5 6 9 13 17 16 16 15 14 13 13 13 15 17 20 24 30 33 36 35 33 31 32 36 39 39 37 35
3 1 3 5 2 2 3 2 2 2 1 3 0 4 6 8 8 10 11 11 14 16 16 15 17 18 19 21 23 25 28 29 32 31 25 24 25 28 33 37 39 38 35 32
2 2 3 3 3 1 1 4 1 4 1 2 2 1 3 5 7 7 8 10 9 9 12 18 19 21 23 22 24 26 28 24 21 23 24 24 26 32 35 39 40 37 30 28
1 2 2 3 1 7 2 4 1 3 1 2 5 3 3 9 4 2 4 5 6 7 16 21 20 21 22 19 21 22 21 22 22 24 25 26 29 34 39 43 37 26 23 18
1 1 2 0 4 2 2 2 5 3 1 1 3 5 4 7 2 5 2 1 4 9 15 17 15 17 17 13 22 24 24 25 26 29 28 29 32 38 42 39 30 20 13 5
1 2 2 1 1 1 2 2 3 2 2 1 1 7 3 8 1 3 4 4 11 17 20 20 19 25 25 25 24 24 24 27 29 32 31 32 36 39 38 28 22 9 5 9
2 2 3 2 3 2 3 1 3 4 2 6 3 6 1 8 3 5 9 14 20 22 21 20 19 29 26 26 24 26 29 31 31 29 30 32 34 32 25 21 19 14 15 16
2 2 4 3 4 1 5 4 4 4 3 4 12 17 19 18 10 6 9 16 16 19 17 21 21 21 18 20 27 30 32 32 30 31 30 31 24 22 21 15 14 16 17 15
3 2 3 5 10 4 8 12 11 13 13 8 16 16 19 12 8 5 15 19 19 18 16 16 16 16 20 27 32 37 37 34 30 26 27 22 22 18 13 12 11 12 14 17
2 1 1 4 5 4 8 14 14 13 14 13 18 22 20 10 6 10 14 15 15 12 12 13 14 21 26 32 34 33 31 28 24 26 26 20 19 11 14 13 17 17 18 20
1 3 2 4 4 8 7 4 4 3 6 5 7 10 4 7 7 14 16 13 9 9 13 17 20 26 30 32 32 32 30 26 25 24 17 15 14 14 14 16 19 20 21 21
4 4 2 3 4 2 2 2 6 6 15 9 11 10 9 9 13 18 15 6 7 12 16 20 22 28 32 33 31 26 24 24 19 13 10 13 15 16 16 18 22 24 23 22
2 4 2 2 3 7 10 4 1 5 9 3 3 1 9 13 16 22 12 11 11 16 20 20 25 31 31 30 26 23 19 19 14 13 11 15 15 18 21 23 26 24 24 24
5 4 1 2 3 5 4 2 2 3 8 1 2 13 13 24 12 11 6 11 11 15 20 23 27 30 28 24 21 19 19 22 17 14 14 16 19 20 23 25 24 24 23 23
0 1 5 7 6 8 7 7 0 1 5 3 14 18 20 14 13 4 16 12 17 20 22 23 27 27 26 21 19 17 17 18 16 17 18 18 20 23 25 24 23 23 22 22
4 4 4 2 4 7 4 1 3 4 16 25 23 18 10 3 8 13 16 22 22 24 24 24 28 26 23 19 18 18 16 16 18 19 20 20 22 23 23 23 21 21 22 23
4 6 3 9 7 5 5 17 24 24 20 14 8 2 4 11 13 19 21 23 26 24 23 26 27 26 22 18 17 19 19 21 20 20 18 20 19 21 22 22 21 22 22 22
3 5 4 2 8 12 25 31 18 10 3 6 2 3 10 12 14 20 26 27 28 27 26 28 27 26 25 20 19 22 21 21 19 18 19 18 19 20 21 20 19 20 19 19
9 2 4 8 19 24 17 8 9 1 9 5 4 6 10 14 17 22 28 31 31 29 29 30 29 26 26 23 24 25 22 19 18 18 18 17 19 20 20 19 19 20 18 20
9 6 4 6 19 19 13 4 4 6 5 8 9 11 15 18 23 25 30 32 32 33 31 29 27 26 25 25 26 23 20 19 17 17 16 17 19 20 20 19 21 17 16 19

GFSCGP_850_spd_024.txt.gz
Wind_Speed
4 2 5 7 7 4 2 1 2 1 3 8 2 4 9 11 13 15 15 14 12 10 6 2 8 13 11 10 8 5 5 11 14 11 9 7 8 10 11 12 16 18 18 22
4 7 6 5 3 0 1 2 1 1 1 5 1 7 9 12 14 14 16 17 18 17 14 14 12 9 5 2 3 4 7 10 11 11 13 15 15 14 16 14 14 16 25 32
2 6 3 1 3 3 0 1 3 5 4 3 5 7 6 7 12 13 14 14 14 14 13 13 12 10 7 4 2 1 3 6 9 9 6 7 8 10 11 19 23 31 35 33
7 3 3 3 4 6 2 2 8 7 6 3 3 4 5 6 9 12 12 14 13 11 10 10 10 9 8 7 7 6 6 7 9 9 11 16 15 17 24 23 24 36 36 34
4 3 2 3 3 4 4 7 5 3 6 4 7 6 7 7 7 8 12 15 15 12 10 9 10 11 11 10 9 9 9 10 13 15 19 28 27 26 22 35 34 24 22 24
6 2 3 4 1 1 4 4 1 1 2 5 3 4 8 3 3 7 10 12 13 13 13 12 11 10 10 10 11 11 11 11 18 22 24 28 23 20 18 20 22 23 26 26
4 3 3 6 5 3 7 4 2 3 4 1 4 6 9 7 6 8 9 10 10 11 11 10 9 9 9 11 12 13 14 15 17 19 20 16 16 17 19 21 22 28 30 29
2 4 7 9 6 6 5 6 3 3 2 1 2 4 5 7 9 9 8 7 6 6 5 7 8 9 10 10 12 14 15 16 16 16 17 21 24 21 21 22 27 29 29 27
3 3 4 6 4 4 2 2 2 0 1 3 1 4 9 9 6 4 6 5 2 0 4 8 10 11 12 13 13 16 19 20 19 18 19 18 19 22 23 25 29 29 28 21
3 1 1 2 3 6 4 3 3 0 3 4 2 5 6 16 12 2 2 4 2 1 7 11 13 13 14 14 14 15 16 17 17 17 18 18 18 20 22 25 26 24 19 12
4 2 3 3 3 5 1 2 1 1 2 3 4 5 3 2 6 3 3 4 4 5 9 11 11 11 13 14 15 14 15 17 17 18 19 19 20 21 21 21 19 16 9 8
3 1 2 2 2 2 1 1 0 2 2 2 4 8 4 4 5 2 5 6 7 7 10 10 11 12 15 16 14 15 16 18 19 20 20 21 22 20 18 17 13 10 7 15
1 0 2 3 5 4 4 3 1 2 0 9 5 4 4 6 8 10 9 7 8 10 13 12 13 15 16 14 14 17 20 22 23 22 20 20 21 18 16 13 10 11 12 13
1 2 3 4 7 4 8 9 7 10 5 7 14 16 18 12 12 11 12 10 12 14 15 14 14 16 14 13 17 20 20 20 20 19 19 21 16 18 15 12 12 11 11 11
2 3 3 8 11 14 13 15 13 16 17 11 18 17 16 16 15 15 7 11 17 18 15 12 13 13 13 15 18 18 19 19 18 18 20 18 13 15 16 12 13 12 15 16
0 1 2 4 7 10 13 16 15 16 16 17 18 19 16 13 12 5 10 16 19 17 12 10 9 12 14 16 19 19 18 18 18 18 17 11 10 10 11 12 13 13 15 17
2 2 0 3 8 14 5 4 2 4 6 8 12 13 12 13 8 12 17 20 20 12 10 10 13 13 16 18 20 19 18 17 18 16 14 11 11 10 10 11 14 16 18 17
4 3 1 2 4 3 3 7 11 14 14 10 12 11 8 10 11 16 22 12 8 6 9 12 12 16 17 18 19 19 18 17 16 15 14 12 12 11 12 14 15 18 17 17
3 3 3 2 3 13 12 3 2 3 15 10 6 6 14 21 26 24 10 3 4 6 9 14 14 15 17 20 19 19 17 16 16 14 12 13 15 15 14 16 17 17 17 17
4 3 2 2 3 5 5 4 3 4 9 6 11 15 25 25 10 8 8 9 9 12 16 16 17 17 19 20 18 17 16 14 13 10 12 14 14 15 16 16 16 16 16 17
3 2 4 6 6 8 8 4 1 4 4 11 20 21 17 10 5 5 9 11 12 14 17 19 18 19 21 19 16 15 15 15 13 14 15 15 15 15 16 15 15 16 16 17
4 6 4 3 4 6 1 4 3 12 21 21 20 10 5 7 5 8 12 14 15 18 20 20 21 22 23 19 16 17 17 17 17 16 15 14 14 14 14 15 15 16 16 18
5 6 3 6 7 12 17 17 19 16 16 7 4 5 5 6 8 12 15 18 20 21 22 22 23 26 24 22 20 20 20 18 16 14 13 14 13 13 14 16 16 16 16 16
7 11 4 7 10 17 17 22 7 8 11 5 7 6 7 9 14 17 20 22 24 25 26 26 26 27 27 23 22 21 20 16 14 14 13 13 12 14 14 14 13 14 15 15
10 10 11 14 19 21 10 4 4 1 5 4 2 5 10 15 19 21 23 24 24 25 25 25 24 25 26 25 24 21 19 15 14 13 12 12 11 12 13 12 12 12 12 16
18 17 6 5 12 8 3 2 0 2 3 3 7 11 15 17 19 22 24 25 25 26 27 25 25 26 27 27 25 21 15 12 14 12 11 11 13 11 10 11 12 16 19 18

GFSCGP_850_spd_027.txt.gz
Wind_Speed
6 11 2 11 7 7 4 4 3 4 4 6 3 1 4 4 8 9 10 10 10 10 8 7 3 3 2 2 1 1 2 6 3 5 6 7 7 8 9 10 12 11 11 12
8 4 5 2 4 3 2 5 1 1 3 5 3 8 6 8 8 12 14 17 17 16 14 13 13 13 12 9 8 6 4 3 2 2 3 6 8 7 8 6 9 12 16 27
6 9 2 3 1 5 2 6 5 9 4 8 10 10 10 9 12 13 14 13 12 12 12 12 13 13 13 12 11 8 7 6 4 4 4 5 7 8 11 14 20 19 26 23
6 4 2 1 1 7 8 3 7 9 8 9 13 6 12 13 10 10 10 9 8 8 10 11 11 12 11 10 9 7 6 5 6 6 5 8 10 15 18 19 20 18 18 19
6 4 2 2 5 6 6 7 8 9 10 13 12 9 13 13 11 9 8 8 9 10 10 10 9 9 8 8 7 6 6 7 8 10 13 12 13 15 16 16 17 18 17 18
8 3 4 6 4 4 7 9 9 8 7 7 8 6 12 12 10 7 7 7 10 11 10 9 7 6 6 7 7 8 9 10 11 12 12 13 13 15 16 17 18 17 20 21
6 4 4 6 10 5 8 8 5 4 5 4 7 6 8 9 7 7 7 7 8 7 6 4 4 4 5 7 9 10 11 13 14 14 14 14 15 16 16 18 19 22 24 25
4 7 5 5 5 6 4 6 3 5 4 6 6 5 7 10 10 8 6 5 4 3 2 3 5 6 9 10 11 13 15 16 17 16 16 16 16 17 18 19 21 23 24 25
3 4 5 5 5 6 4 2 4 5 2 4 8 7 8 10 9 6 4 1 0 3 4 6 8 8 10 12 13 14 16 17 18 18 18 17 18 18 20 21 23 24 24 23
3 2 0 2 4 3 5 3 4 2 3 4 4 7 6 13 10 7 6 3 3 6 8 9 11 11 12 14 15 15 15 16 17 16 17 18 19 20 22 23 23 23 21 19
5 2 4 4 2 7 2 1 3 4 3 4 5 4 7 2 5 9 3 5 9 10 10 12 13 13 14 14 16 15 15 15 16 18 20 20 21 21 21 22 20 18 18 17
5 2 2 4 3 4 5 5 5 4 6 3 5 8 6 3 1 3 7 10 8 11 11 11 11 13 13 17 15 14 15 17 19 20 20 19 19 20 19 16 22 18 15 15
5 0 3 5 6 5 4 2 4 5 3 11 8 7 1 4 5 9 14 8 10 10 13 15 13 14 16 16 14 15 17 18 19 19 19 18 19 19 19 20 16 15 14 14
2 2 3 5 9 8 8 10 10 10 8 12 12 17 16 13 12 15 18 12 10 13 16 14 16 18 20 15 14 16 17 18 17 18 18 19 17 16 15 18 20 13 15 16
3 3 4 7 11 12 14 13 14 16 16 15 18 19 16 17 13 18 14 10 14 18 20 18 16 18 15 14 16 17 19 18 18 18 18 18 20 14 15 14 14 15 16 17
1 1 4 4 6 12 17 16 16 17 13 12 14 15 11 15 16 14 17 18 21 21 18 13 13 14 14 16 18 19 19 18 17 18 18 16 13 14 15 14 14 15 17 20
1 1 2 4 9 14 6 3 7 7 7 11 11 12 15 11 14 21 25 22 19 14 17 11 12 13 16 17 18 20 19 19 19 18 17 17 15 14 13 14 16 17 20 21
3 1 2 3 5 2 7 16 14 12 9 10 12 12 8 12 19 24 14 9 10 13 11 12 13 15 17 20 20 20 21 21 19 19 18 16 15 15 15 17 18 20 20 20
4 4 2 2 4 14 12 3 6 9 15 11 5 9 19 23 24 20 8 8 15 11 15 13 16 19 21 22 22 23 24 22 20 19 16 16 14 16 17 18 19 19 19 20
3 1 4 3 4 4 6 9 4 7 11 4 12 22 24 25 12 7 11 20 16 17 17 20 21 23 24 25 25 25 25 24 22 20 18 16 18 17 18 18 18 18 19 20
3 2 6 7 6 9 9 4 3 5 3 19 20 13 12 6 8 16 20 19 15 17 20 22 24 25 26 26 27 28 28 28 26 22 17 18 18 17 17 16 16 19 19 19
7 6 4 3 3 6 2 5 5 9 17 14 13 11 11 11 11 14 15 17 18 21 24 25 27 28 29 29 30 31 30 30 26 20 19 19 17 15 15 15 17 19 18 17
4 7 4 8 5 14 14 10 6 7 6 7 7 9 5 7 10 13 17 20 23 26 27 27 28 29 29 29 29 32 28 27 20 18 20 17 15 14 14 16 17 17 17 17
6 12 5 7 7 15 20 10 6 7 5 5 4 3 6 10 14 18 21 24 26 26 27 28 28 29 30 30 31 31 32 24 21 20 18 14 14 13 14 14 15 14 14 16
10 12 10 13 19 17 6 6 11 8 6 3 3 7 10 14 19 22 25 26 26 27 28 29 29 29 30 32 33 32 32 22 18 17 14 12 12 12 15 12 13 14 15 19
13 13 9 7 1 2 2 4 2 1 2 4 7 12 15 18 22 24 26 27 27 29 30 30 31 30 32 32 30 29 26 17 15 16 11 12 12 14 14 11 12 15 18 19

GFSCGP_850_spd_030.txt.gz
Wind_Speed
8 9 4 11 10 6 9 7 4 7 8 4 9 8 9 4 5 5 7 5 17 21 18 14 13 10 6 7 6 6 7 11 8 3 5 9 7 7 7 7 13 15 11 20
4 5 8 4 7 6 3 4 3 4 6 5 7 8 10 3 9 10 15 17 16 16 17 18 16 12 10 10 9 8 1 3 5 1 5 6 8 9 8 9 10 15 14 20
8 10 6 4 2 6 5 5 8 7 8 8 10 8 13 11 9 11 15 15 16 14 14 14 15 14 13 13 11 9 7 5 3 4 2 3 3 6 10 12 18 21 20 20
8 3 2 1 3 7 5 7 6 8 9 9 13 8 16 14 11 12 12 11 12 12 13 12 12 12 10 10 10 7 5 4 7 7 4 7 8 10 15 19 16 18 17 18
7 4 1 2 7 7 5 6 8 9 10 12 12 6 13 18 14 12 11 9 8 9 11 11 10 9 8 7 6 6 5 8 9 11 12 13 12 15 14 14 17 17 14 17
8 4 7 7 4 2 8 10 11 11 9 8 13 12 9 11 13 14 12 9 10 10 10 9 7 6 7 7 6 5 6 7 10 13 13 12 14 15 15 16 16 15 20 21
6 6 6 5 10 8 6 8 4 2 4 3 11 2 7 9 11 16 14 11 10 8 5 4 4 4 3 4 6 7 9 10 11 12 12 13 14 14 15 17 19 22 24 27
7 6 5 4 6 6 6 6 2 4 5 7 6 5 8 12 13 13 13 11 7 5 2 2 4 5 6 8 9 9 10 13 14 14 15 13 13 16 17 18 22 25 25 23
3 6 6 5 5 7 8 5 4 4 1 2 5 5 8 11 9 9 10 7 7 1 2 6 5 7 7 9 12 13 14 15 15 15 17 19 17 18 19 20 24 22 20 19
4 3 2 4 3 2 4 2 2 0 2 3 8 8 7 9 7 7 5 9 4 2 4 5 7 8 9 11 12 13 12 14 16 17 17 18 20 19 21 21 21 20 21 26
7 2 6 5 6 7 1 2 3 4 3 2 3 1 8 8 1 5 3 2 2 6 7 8 8 11 11 9 12 16 14 14 16 18 20 21 21 20 18 19 20 22 25 28
4 2 1 7 6 4 3 4 3 1 5 3 4 8 7 4 10 10 9 13 11 9 9 7 8 6 11 14 14 15 13 13 17 20 19 19 19 19 20 22 23 23 17 15
4 1 3 8 5 4 1 4 5 4 3 4 4 5 6 5 16 16 13 9 12 10 8 8 9 12 12 14 16 13 12 15 18 18 18 19 20 18 20 23 22 23 21 21
3 1 1 2 6 7 7 10 10 10 3 6 10 15 15 13 8 3 11 11 12 13 14 17 12 12 15 17 18 14 17 18 19 19 20 19 21 22 23 19 19 19 18 17
3 1 5 6 9 9 10 13 13 15 13 11 12 15 12 6 8 13 22 23 19 21 15 14 15 19 21 18 14 16 18 20 20 22 20 19 20 16 22 21 19 17 16 16
3 1 4 3 6 9 16 17 11 8 11 11 9 12 12 13 17 18 18 18 20 16 17 20 18 18 17 13 16 18 20 22 23 23 24 24 21 20 14 18 17 17 19 18
2 1 2 3 9 10 3 2 11 11 10 7 7 9 9 15 17 18 17 16 15 15 20 22 18 18 16 16 17 21 23 21 22 26 25 20 18 14 22 21 19 18 20 20
5 2 2 3 4 2 7 14 6 8 10 13 12 8 16 16 17 16 12 11 14 18 18 16 17 17 19 22 24 24 22 22 24 25 25 24 19 17 16 17 19 19 19 20
2 4 2 1 3 10 9 9 4 6 11 9 11 16 18 19 18 4 12 17 17 16 17 19 21 21 24 25 25 26 27 28 29 27 30 23 20 14 14 17 19 18 19 20
2 7 2 2 2 3 4 10 6 7 6 11 13 13 12 19 10 9 16 19 18 16 17 21 23 25 26 26 27 29 29 30 31 32 20 20 18 19 13 16 17 18 18 19
3 1 4 5 4 6 8 9 5 4 3 10 8 6 13 6 7 15 15 16 16 18 21 24 27 27 28 30 30 30 32 32 30 37 25 13 14 19 14 12 16 17 19 20
6 6 4 3 3 6 4 7 2 5 13 6 8 6 5 4 7 11 15 17 19 22 25 26 28 29 27 28 30 30 29 32 34 31 30 22 16 15 10 12 15 17 18 18
3 6 4 9 5 9 6 10 4 2 8 7 7 3 4 6 9 13 16 20 22 24 26 27 27 29 30 30 28 28 32 29 29 34 25 19 12 14 8 13 15 17 17 19
4 10 3 3 8 13 6 9 10 9 5 4 3 1 4 8 11 16 19 23 25 26 27 25 28 30 29 28 29 32 30 30 36 28 17 16 21 11 10 14 14 17 17 22
6 6 5 10 14 8 11 10 4 5 6 2 1 3 7 12 15 18 21 24 25 26 26 30 29 29 31 32 28 27 28 29 30 23 23 23 12 9 13 16 15 17 18 19
9 8 6 7 2 1 5 2 4 4 4 2 3 7 10 13 16 19 22 23 24 26 28 29 30 31 32 30 28 27 23 25 30 24 23 18 9 12 18 16 13 16 19 19

GFSCGP_850_spd_033.txt.gz
Wind_Speed
10 4 2 4 3 3 3 4 9 5 5 3 4 4 6 8 20 30 29 32 29 26 19 19 19 17 13 8 4 6 6 5 8 3 4 5 8 5 4 9 13 15 13 15
3 4 5 3 2 3 6 6 5 4 5 4 3 1 7 13 13 30 31 29 27 22 16 14 9 7 4 2 2 3 6 7 3 3 4 8 11 7 3 5 5 8 12 13
7 3 2 4 7 10 9 6 6 4 6 3 3 2 6 7 26 26 26 25 23 21 18 16 15 14 11 9 7 4 3 4 3 3 5 7 6 7 10 11 14 15 15 15
6 5 4 5 8 8 5 7 6 6 5 3 3 3 4 8 8 15 24 25 24 20 17 13 11 10 9 9 6 7 8 12 13 13 14 12 13 14 15 17 20 21 23 23
1 4 7 9 4 4 2 3 4 4 4 3 8 1 5 12 11 10 20 24 21 18 13 9 6 8 9 9 8 6 6 10 13 15 17 17 14 14 14 14 16 18 19 21
5 11 4 4 3 2 5 4 6 5 3 2 6 4 2 9 12 9 18 21 19 17 14 8 6 7 8 8 9 9 5 6 8 8 8 9 12 13 14 16 18 21 24 25
3 4 4 3 4 2 3 5 4 4 4 4 4 8 6 11 13 17 18 23 18 15 12 13 10 9 7 5 5 3 4 8 12 15 16 15 15 14 15 18 21 24 26 30
5 1 4 5 4 2 4 3 4 0 1 4 7 4 1 10 22 21 19 19 16 11 7 8 8 6 5 4 6 11 13 14 11 12 13 15 17 17 16 19 20 24 29 32
3 3 4 6 4 3 6 4 2 3 5 3 1 4 5 9 8 18 16 15 14 14 8 5 5 4 7 7 5 5 5 8 11 15 17 19 18 20 22 23 24 24 22 22
3 4 2 4 1 2 4 2 5 3 1 2 4 3 3 3 7 7 10 10 7 1 3 3 2 3 1 3 6 10 13 14 14 15 20 22 24 26 24 23 22 24 25 27
4 4 3 2 4 4 4 3 4 2 5 4 1 3 4 8 10 7 12 11 6 5 6 2 2 4 6 7 10 10 12 16 18 18 21 26 25 19 21 24 26 27 31 25
3 3 3 4 3 3 1 3 4 4 4 1 4 5 7 8 15 15 7 9 9 7 7 6 7 9 8 8 11 14 18 23 17 22 27 23 22 22 25 26 25 30 24 21
3 2 3 3 4 4 1 2 2 4 4 5 5 5 4 11 4 8 12 9 17 21 15 13 10 10 11 15 20 23 20 17 21 24 21 22 22 23 27 29 24 28 21 18
3 2 5 5 2 1 2 5 4 2 3 4 6 6 9 5 2 14 19 21 18 16 15 15 18 19 22 26 18 15 17 19 22 26 23 24 23 26 30 24 23 27 21 19
3 2 4 5 6 4 3 5 7 5 6 3 7 3 6 10 9 14 17 16 15 16 17 19 17 20 22 18 13 16 17 24 28 27 27 25 25 30 28 26 21 21 17 15
4 1 3 3 7 7 4 8 8 4 2 3 4 4 14 15 17 20 16 14 13 12 15 19 20 21 17 17 17 19 25 29 25 24 28 29 30 30 31 25 18 16 17 18
3 3 3 3 5 6 4 3 4 3 5 3 3 3 12 15 16 15 13 12 13 15 20 19 18 15 18 20 22 25 25 30 31 29 28 33 25 24 22 16 17 18 14 16
4 4 3 2 4 3 4 5 7 5 7 7 10 11 15 14 11 8 10 15 16 18 17 17 18 20 22 22 20 19 21 23 25 28 29 24 26 24 24 19 14 12 15 15
5 4 3 3 1 6 6 2 3 4 2 6 7 9 10 11 1 5 12 13 13 12 14 18 21 21 18 21 25 28 30 32 34 28 32 33 31 30 18 14 11 14 13 15
7 6 4 2 4 6 6 4 4 0 3 5 10 8 10 14 5 4 13 11 14 16 18 18 19 20 25 24 26 31 33 32 24 29 26 30 32 27 16 19 17 8 13 14
3 1 4 2 3 7 8 0 4 4 5 10 7 4 4 2 3 10 9 13 15 17 19 20 22 25 23 27 31 33 26 23 27 31 31 37 33 28 21 7 10 9 11 14
7 6 4 2 2 7 10 5 6 5 11 10 3 2 1 2 2 7 10 14 16 17 20 23 23 23 26 31 28 24 27 24 28 32 35 36 29 12 10 14 9 11 15 17
2 7 6 8 6 8 8 7 10 10 13 3 1 3 1 1 4 7 11 13 17 21 24 21 23 29 29 28 24 30 24 26 32 35 32 29 17 21 13 10 10 11 16 20
3 11 3 4 6 8 17 16 12 9 5 4 5 3 1 3 7 10 12 15 19 20 20 26 29 27 28 29 31 28 29 31 36 31 31 23 22 13 8 9 13 16 19 17
6 3 1 2 7 14 11 12 8 1 1 6 7 4 2 4 9 8 12 17 17 19 25 27 27 30 34 36 34 27 26 26 29 27 30 21 15 11 8 12 17 14 14 17
5 5 4 5 6 5 8 12 3 1 9 8 4 1 4 6 7 12 15 15 19 25 26 28 30 33 33 34 32 29 26 29 25 28 25 10 8 9 13 15 13 11 14 16

GFSCGP_850_spd_036.txt.gz
Wind_Speed
6 6 2 6 5 6 3 2 9 2 1 4 4 5 1 17 28 25 31 32 33 32 28 25 24 24 22 17 13 6 5 5 5 7 10 8 7 1 2 4 6 7 9 11
6 3 5 5 7 7 6 9 4 5 5 4 4 4 5 3 12 30 33 32 28 24 20 16 12 9 6 8 6 6 11 9 6 4 2 1 3 4 4 3 7 9 12 16
6 5 1 6 6 9 5 6 2 3 3 3 7 3 4 6 20 21 24 28 24 22 21 16 13 12 11 11 10 9 11 10 7 5 2 3 5 9 13 16 20 21 22 24
4 4 6 6 5 2 3 1 3 3 4 2 4 2 3 2 8 12 20 26 26 23 20 17 14 12 10 11 9 8 8 9 10 12 15 17 18 20 19 20 22 24 26 27
1 4 6 6 1 1 4 1 1 2 3 3 6 4 4 7 7 8 15 25 24 19 15 14 12 9 8 7 7 6 8 9 13 17 17 18 16 15 16 16 17 19 21 24
5 3 3 2 3 1 2 3 7 4 3 3 4 4 2 4 5 6 12 22 21 16 12 11 8 6 6 4 3 3 6 7 12 14 17 20 20 21 21 21 23 24 26 28
5 4 4 4 5 7 8 5 3 4 4 4 3 4 1 8 10 11 15 21 19 14 10 8 7 6 5 4 3 5 6 9 13 16 15 16 15 16 18 20 21 23 26 27
4 2 5 7 3 0 2 5 4 3 2 4 5 3 4 2 22 20 19 18 13 10 11 12 11 9 8 7 6 8 13 15 14 15 16 17 18 18 19 22 23 23 21 20
4 1 2 2 2 3 4 4 4 5 2 3 0 3 4 2 14 21 21 14 17 18 9 12 11 9 7 5 6 8 9 10 12 15 18 20 21 21 26 26 24 22 22 23
2 4 2 1 5 6 5 2 4 4 2 1 4 3 4 5 4 2 8 11 10 7 5 11 8 5 3 2 4 6 8 11 16 23 21 21 23 26 23 24 24 25 26 27
2 4 3 4 3 2 4 3 5 4 3 4 0 4 2 9 7 6 9 9 5 5 7 10 10 7 4 3 7 10 12 15 21 19 20 24 27 25 26 26 27 30 28 26
2 4 3 1 2 0 2 3 4 4 2 2 3 5 6 8 12 14 12 14 7 6 13 12 8 2 5 9 12 17 18 19 18 21 25 29 31 30 25 28 29 29 25 26
3 2 3 6 6 5 2 1 5 6 3 6 5 5 6 6 18 20 24 22 20 15 10 5 6 11 15 17 19 15 14 18 20 23 27 31 28 30 29 28 29 28 25 23
2 3 5 6 4 3 1 2 4 4 3 3 6 6 4 4 9 15 19 15 11 7 8 11 14 15 15 15 15 13 14 17 22 26 30 29 26 28 28 30 33 27 21 19
3 3 2 2 3 2 1 1 4 2 5 5 5 5 3 5 8 14 12 8 7 9 13 15 15 14 11 15 17 18 20 25 29 28 28 26 28 30 34 27 27 26 22 14
3 1 2 2 6 6 3 5 4 4 2 4 8 5 4 12 12 10 8 7 8 11 12 12 11 12 15 18 22 23 23 21 19 19 24 23 26 23 24 21 30 28 17 16
3 4 3 3 4 5 5 5 3 3 2 3 4 4 7 4 9 9 5 5 7 8 9 12 14 17 19 18 17 17 22 25 25 27 19 21 24 28 20 25 26 33 23 9
4 4 2 2 3 1 5 5 4 9 3 7 9 7 8 8 8 7 6 7 7 7 10 12 14 13 14 15 18 18 22 26 25 19 24 27 29 29 33 31 30 18 13 13
4 5 3 3 2 5 2 4 5 5 5 6 8 9 5 4 8 3 5 4 7 10 11 11 10 13 14 15 21 27 31 30 25 25 29 31 31 35 33 28 20 20 9 9
7 6 4 3 4 6 5 3 6 7 5 13 13 11 6 6 1 3 1 4 6 8 6 9 13 15 19 25 28 31 28 26 27 30 29 31 34 31 25 19 12 4 8 11
2 3 4 2 2 7 7 7 5 5 7 17 13 10 7 5 4 2 1 4 6 5 8 13 18 20 22 27 28 24 23 29 30 27 29 35 28 22 14 9 5 8 8 10
7 6 4 2 2 8 11 6 7 6 16 18 13 9 6 2 6 4 1 1 5 11 15 19 23 25 27 27 26 28 30 27 29 31 32 29 28 19 17 12 13 15 7 10
2 7 6 9 6 6 20 8 11 15 16 15 10 8 4 8 4 1 1 5 10 14 19 23 24 26 25 26 28 30 31 26 26 26 28 29 27 17 10 11 9 8 11 15
4 8 3 3 4 8 14 9 9 11 12 9 5 6 9 6 3 2 3 9 13 18 21 22 24 25 27 28 29 32 30 25 25 30 25 27 25 12 8 8 8 12 14 13
5 7 4 2 2 6 9 10 13 11 6 6 8 10 6 5 3 4 8 12 15 18 21 21 23 26 27 29 32 29 25 21 24 24 23 23 10 5 7 7 10 12 12 15
7 6 4 6 10 7 7 19 15 9 9 14 12 10 6 3 4 8 11 14 17 21 21 21 24 26 27 31 31 28 23 23 22 19 17 13 8 6 9 11 11 10 12 12

GFSCGP_850_spd_039.txt.gz
Wind_Speed
6 6 1 3 1 3 3 2 4 1 3 4 2 5 8 9 25 21 22 25 27 25 27 25 21 18 18 20 21 21 15 9 5 3 4 3 5 6 6 6 7 9 12 13
6 2 1 6 4 5 6 6 3 1 4 5 5 7 7 9 5 15 26 29 29 27 22 20 19 18 15 10 7 8 11 10 7 5 5 2 2 5 9 12 15 17 19 21
4 3 4 6 6 8 5 4 3 3 5 6 4 5 5 6 12 15 21 23 22 20 19 15 12 12 13 15 14 13 11 8 5 4 3 4 5 11 18 21 23 24 25 25
4 6 5 6 6 4 3 1 3 3 3 4 2 3 2 1 4 5 13 16 18 19 18 17 15 15 13 13 10 7 8 7 7 8 9 10 13 18 21 23 23 22 20 21
2 3 5 6 1 2 4 2 2 2 3 3 4 4 3 7 2 3 6 16 18 17 17 16 14 13 9 6 5 7 8 11 11 12 13 14 14 16 17 17 18 19 21 23
3 3 3 2 2 1 2 4 6 4 3 2 4 4 3 5 5 4 8 15 17 16 15 13 10 6 3 1 5 5 6 8 10 12 14 16 17 18 18 18 19 21 24 25
5 3 4 3 2 3 6 5 2 2 3 4 5 3 4 5 7 10 14 19 17 13 11 7 4 3 3 3 3 4 7 9 11 13 15 17 17 17 17 17 20 23 22 22
4 4 4 5 2 3 2 4 4 5 3 2 5 2 5 2 20 25 23 19 16 11 3 6 7 4 5 6 4 7 11 12 14 16 17 17 19 18 19 23 23 23 22 21
4 1 3 2 2 3 0 3 3 6 3 3 2 2 4 4 10 20 25 23 10 8 9 7 10 8 6 7 8 10 11 14 15 15 16 17 20 22 25 24 22 24 25 27
5 4 1 2 3 5 5 4 3 4 2 1 3 3 4 8 8 4 6 10 4 4 6 10 10 7 5 5 6 9 12 14 15 17 18 19 22 27 28 27 22 25 27 28
3 4 3 2 3 0 4 3 6 5 3 4 1 5 5 9 8 6 8 10 12 12 10 12 11 4 6 5 10 11 13 15 15 16 18 21 26 28 25 25 25 27 29 30
2 5 3 1 4 2 2 3 4 4 2 2 3 5 4 5 1 16 18 17 16 16 14 8 5 3 4 8 11 11 10 13 15 17 21 24 26 25 25 25 28 28 29 26
2 2 3 6 6 4 2 3 5 5 3 4 4 5 2 8 9 11 18 17 17 14 10 5 2 6 8 9 9 10 11 15 15 19 23 24 23 21 23 28 26 25 26 21
3 3 5 6 4 3 4 3 3 5 3 4 6 4 2 3 6 12 16 15 11 7 3 4 5 7 6 6 7 8 11 14 17 20 20 19 23 22 27 27 25 25 24 30
3 4 2 4 4 2 1 4 5 6 5 6 5 8 5 9 9 14 12 9 5 2 4 3 4 5 5 8 10 12 14 14 16 23 27 30 27 27 24 28 23 23 28 30
4 1 2 1 5 6 3 5 7 5 4 5 3 3 5 13 13 13 11 6 1 2 2 4 4 6 9 10 10 13 17 22 26 30 29 24 23 27 31 28 25 28 29 30
3 4 3 3 4 4 6 8 8 4 2 6 6 7 12 6 12 12 8 2 3 1 2 1 5 7 7 11 15 18 21 25 27 22 19 22 26 27 30 33 27 25 26 23
5 4 3 2 3 1 6 5 5 5 2 3 3 8 12 13 10 10 5 3 3 3 2 4 4 6 10 13 16 21 24 24 20 19 25 27 27 31 35 28 23 18 17 14
3 5 3 3 3 5 4 4 6 6 7 6 7 8 10 9 9 10 9 7 5 3 2 0 5 10 13 16 20 22 22 17 23 26 29 28 27 33 28 25 16 12 13 10
6 6 4 3 4 6 5 2 9 5 5 16 16 16 14 15 3 5 14 9 6 4 4 5 9 12 16 19 21 23 24 25 28 27 26 26 28 27 26 21 15 11 11 11
2 3 4 2 3 8 6 5 7 5 7 22 26 26 21 7 10 4 12 8 6 5 4 7 12 17 20 21 23 26 27 28 28 24 26 23 27 28 25 21 17 12 10 11
7 6 4 3 2 7 10 5 7 6 6 19 24 21 19 13 8 11 9 8 6 5 8 13 18 20 21 23 26 26 28 30 28 22 22 25 30 25 25 18 12 13 9 5
2 6 5 9 6 4 17 7 16 8 8 19 19 17 13 10 12 11 9 7 6 9 11 16 20 22 21 23 24 26 29 28 24 19 23 24 23 24 22 13 12 9 7 10
4 7 3 3 4 11 12 21 11 10 8 14 14 13 10 11 12 10 8 7 7 10 15 19 21 21 21 22 23 27 27 26 22 23 24 26 23 19 12 9 7 7 9 11
5 8 4 4 5 4 11 17 15 12 12 14 12 11 13 15 11 9 7 7 9 13 17 20 21 21 23 24 26 27 28 24 22 21 19 17 17 10 9 8 7 9 10 12
8 6 4 6 10 8 6 15 17 17 15 12 15 15 12 11 9 6 5 9 13 16 18 19 21 23 24 26 28 29 24 19 19 21 17 12 13 10 9 12 11 10 10 11

GFSCGP_850_spd_042.txt.gz
Wind_Speed
5 7 3 3 3 4 4 4 2 1 2 6 5 4 7 7 9 9 11 14 15 10 6 6 7 8 11 16 18 16 16 15 15 3 3 3 2 5 10 12 13 14 16 17
6 4 4 4 4 6 5 5 2 2 6 5 6 6 5 9 6 8 15 21 23 24 21 19 16 13 12 10 4 2 8 8 6 5 4 3 5 7 13 16 16 16 17 19
6 0 2 5 6 8 5 6 0 4 2 7 5 3 4 5 11 14 17 20 20 20 19 16 11 8 11 16 16 14 12 9 7 5 6 5 4 8 13 17 19 20 20 18
4 4 5 6 6 3 3 1 2 4 4 2 2 3 2 3 4 5 10 14 14 15 13 12 14 17 15 15 14 14 13 9 6 4 2 4 7 11 13 15 17 16 17 19
1 2 5 7 1 3 1 5 4 4 5 4 4 4 5 4 4 4 6 10 13 14 14 15 13 12 12 9 9 7 5 2 2 4 5 8 9 12 13 13 16 16 18 20
2 2 3 2 3 3 4 5 8 5 3 2 2 4 4 4 5 5 8 13 16 15 15 13 11 8 8 8 7 5 2 4 8 8 9 10 13 15 15 15 15 18 20 20
6 4 5 4 4 3 6 5 3 3 2 4 3 2 5 3 5 12 17 18 16 15 15 15 13 11 9 6 9 4 4 5 10 8 9 10 11 13 14 16 16 14 14 18
4 3 3 6 2 4 3 5 4 4 3 3 4 3 4 5 9 20 22 20 18 17 16 13 13 12 10 8 8 5 4 7 9 9 10 11 13 14 17 18 19 17 20 23
4 1 2 2 2 2 2 3 3 6 3 2 2 4 3 5 3 17 23 22 19 15 13 11 12 11 9 7 5 2 4 8 9 10 11 13 14 20 23 22 22 22 23 26
5 4 2 2 3 6 2 5 2 3 3 3 3 4 4 5 7 6 8 19 19 14 12 9 9 8 6 4 2 4 6 9 10 11 14 15 19 22 24 22 21 23 25 25
3 4 4 1 3 2 2 2 5 5 3 4 1 5 4 10 11 10 15 19 14 14 11 9 9 9 6 3 3 6 10 12 12 14 13 18 20 20 21 20 23 25 23 24
1 5 3 2 2 3 2 3 4 4 3 2 3 5 2 2 8 12 11 13 13 13 13 11 8 4 1 4 6 8 12 11 11 11 16 20 23 20 21 21 23 22 22 22
5 2 3 6 5 3 2 3 4 5 3 5 5 5 2 4 9 12 18 17 16 14 11 7 2 1 3 4 6 9 8 11 14 16 18 18 20 24 23 23 22 23 22 22
4 3 5 7 4 3 4 3 4 5 3 4 6 3 4 4 6 12 17 16 14 10 5 1 2 2 1 5 7 9 11 13 13 16 22 26 26 22 20 24 28 29 29 26
3 4 2 2 3 2 2 4 6 6 5 5 4 7 6 9 8 18 18 14 9 4 0 1 1 2 4 6 7 7 10 13 18 23 25 23 20 19 25 28 31 30 25 25
3 2 2 2 4 6 3 5 7 5 3 7 3 7 5 8 17 16 16 12 7 3 3 4 3 3 5 4 6 10 14 19 22 24 22 18 22 26 25 28 31 26 21 21
3 4 3 4 4 4 6 9 9 5 5 7 6 8 9 4 14 20 16 11 7 5 7 6 5 4 3 7 9 14 18 21 23 22 20 23 25 24 25 31 26 26 19 13
5 4 3 2 3 2 5 2 6 7 5 6 2 4 13 12 17 16 14 11 8 8 7 5 5 4 5 8 13 18 20 21 22 23 23 23 24 25 27 27 25 23 15 14
4 5 3 4 3 6 5 4 6 7 7 8 7 6 9 12 10 11 16 11 8 8 7 6 5 6 8 13 18 19 21 22 23 23 23 23 25 27 27 27 23 18 20 15
5 6 4 3 4 6 6 2 6 4 5 9 14 14 15 14 3 6 13 16 13 9 8 6 5 8 12 16 18 20 21 23 25 27 27 25 24 24 28 26 24 22 18 16
3 3 4 2 3 8 6 4 4 5 6 11 20 24 24 8 12 5 11 16 11 10 8 6 8 11 15 18 19 21 22 24 27 28 27 22 22 27 26 24 21 16 13 13
7 6 4 3 2 7 9 4 7 5 6 13 21 23 31 19 9 8 12 12 11 9 7 7 10 14 18 19 20 22 24 26 28 28 26 22 23 24 24 26 17 16 15 10
3 6 5 8 6 4 17 5 13 4 5 11 19 20 22 19 15 15 13 13 12 8 6 9 14 18 18 20 22 25 26 28 30 28 25 23 21 19 19 16 13 10 10 9
4 6 3 2 4 11 15 22 21 11 12 10 13 17 20 18 13 13 12 12 8 5 8 14 17 19 20 21 23 26 28 28 28 25 23 23 17 15 15 11 11 10 10 10
4 7 4 5 10 10 18 18 21 19 14 11 14 14 13 13 12 10 12 7 5 8 12 16 18 19 21 23 25 27 28 27 23 20 20 19 16 12 13 10 10 13 12 14
9 7 5 6 9 6 8 9 11 14 13 13 14 13 13 6 11 8 6 4 7 12 15 17 17 20 22 25 27 27 25 22 19 18 20 18 10 14 13 15 18 19 12 11

GFSCGP_850_spd_045.txt.gz
Wind_Speed
3 4 3 2 2 3 4 4 4 1 2 6 4 4 6 5 9 9 8 9 8 7 5 5 7 7 7 8 9 10 9 15 7 12 7 11 7 8 6 5 7 9 12 14
4 3 1 5 4 5 3 6 3 3 4 4 3 6 6 7 4 5 10 10 10 12 11 8 7 7 7 5 6 4 3 6 9 9 10 10 8 4 3 9 13 16 19 18
4 2 3 4 4 8 5 5 3 4 4 7 3 2 2 6 8 9 10 14 16 17 19 18 14 11 19 22 20 17 15 14 12 10 7 6 4 3 8 12 15 16 18 16
5 3 4 3 3 2 4 1 4 5 2 2 3 2 2 3 5 8 12 13 15 17 15 13 20 21 20 20 19 17 15 12 10 7 3 1 2 5 10 10 12 14 14 16
1 2 3 5 1 2 4 3 4 3 4 3 2 1 3 5 6 9 11 11 14 14 14 19 19 18 17 16 14 13 11 8 5 3 3 5 6 6 7 9 12 15 17 17
3 2 2 2 3 4 8 5 6 4 2 0 1 2 2 4 5 11 12 13 17 18 18 18 17 14 14 13 13 12 10 8 6 4 4 5 5 5 8 12 15 16 16 14
4 3 3 3 4 3 4 4 2 0 1 3 0 3 4 3 6 18 21 20 21 19 19 19 18 15 13 13 12 9 8 5 3 3 5 6 6 10 14 15 15 16 15 17
3 0 3 4 2 4 2 3 4 4 3 1 2 4 2 3 6 10 18 22 22 21 20 17 15 13 12 10 10 9 6 5 4 4 5 6 10 12 14 17 16 16 19 19
4 1 1 3 1 1 3 2 2 6 1 1 1 3 4 1 2 12 20 19 21 20 17 14 13 14 12 11 10 7 6 4 3 4 7 10 10 13 15 16 16 18 21 21
5 3 1 1 1 7 1 7 3 2 4 3 2 4 4 3 6 9 16 20 15 14 13 14 13 13 13 11 9 7 3 3 5 8 10 8 12 15 18 20 20 21 22 23
3 3 2 0 0 5 2 2 5 4 1 3 1 3 3 7 9 15 18 12 12 12 11 11 12 13 12 9 7 3 3 5 8 10 10 12 17 20 20 21 22 22 23 22
1 4 3 2 0 1 1 3 4 3 4 1 1 4 1 4 9 9 9 11 13 12 14 14 14 12 9 6 3 2 6 7 11 9 12 15 16 20 23 21 19 21 25 24
5 1 3 2 2 1 3 3 4 5 2 5 4 3 2 1 3 9 14 14 16 17 16 14 11 8 5 3 2 4 9 7 8 10 14 19 23 22 19 17 21 24 28 26
4 3 4 6 3 2 4 4 5 4 3 5 6 3 5 7 7 10 15 17 18 17 15 11 7 5 4 3 2 7 5 7 12 16 20 20 17 15 16 21 25 27 26 25
3 3 2 2 2 1 2 4 9 8 4 6 4 9 5 11 13 17 17 18 18 16 12 8 7 6 4 2 3 3 7 12 16 18 18 16 14 18 20 23 26 26 24 25
2 3 2 3 2 3 3 4 7 6 4 10 4 12 7 2 11 17 20 19 17 14 10 9 9 6 4 4 3 7 11 15 18 17 16 16 19 21 23 25 26 24 24 23
2 5 3 3 2 3 5 9 12 6 6 7 10 8 8 6 14 21 22 21 19 14 12 11 7 5 5 3 6 11 15 17 17 17 18 19 20 22 23 23 24 23 21 19
5 4 2 2 1 1 4 2 1 10 6 12 2 4 9 5 11 17 23 23 18 13 13 11 9 8 5 5 9 13 16 18 18 19 20 22 22 22 22 21 24 23 22 20
4 4 3 3 3 5 5 3 5 6 5 12 11 5 6 8 9 9 21 19 16 13 12 10 8 6 5 6 11 15 17 18 19 21 22 23 22 22 22 25 26 23 23 21
5 6 3 3 2 5 5 2 4 3 4 3 10 11 13 14 5 6 24 22 17 13 10 10 8 5 5 10 14 17 17 19 20 22 24 25 24 22 22 26 25 24 23 16
2 3 3 2 3 7 6 2 4 3 4 6 16 18 19 8 8 4 14 21 15 11 11 10 6 5 9 13 16 17 18 19 22 24 26 26 24 24 25 24 24 24 16 15
5 6 3 3 1 6 7 4 5 3 3 7 16 18 24 19 12 10 14 17 15 13 9 6 5 8 12 14 16 18 19 22 24 26 26 25 25 25 19 17 19 13 11 11
3 5 4 8 5 4 13 7 10 3 4 4 10 14 20 18 15 15 16 16 12 9 9 5 8 11 13 15 17 19 21 24 26 27 26 22 23 20 16 16 13 11 11 10
4 5 2 1 2 9 19 20 24 20 12 10 10 11 15 20 14 16 18 11 10 10 5 8 11 13 14 16 18 21 23 26 28 25 20 19 20 18 13 14 11 11 12 14
2 7 4 4 10 12 15 14 15 16 15 14 10 9 11 16 15 18 10 11 10 4 8 11 13 14 16 18 20 23 26 26 23 22 20 18 18 14 13 13 12 16 19 20
9 6 4 5 3 4 6 7 7 7 7 5 8 12 13 15 14 13 11 7 4 9 10 12 14 16 17 20 24 25 23 20 20 20 19 18 18 15 14 14 16 16 17 14

GFSCGP_850_spd_048.txt.gz
Wind_Speed
7 7 9 14 5 5 3 8 13 8 4 7 5 6 3 5 11 12 13 12 9 8 5 4 6 7 9 12 12 10 7 9 8 8 6 9 12 10 6 1 5 9 12 15
6 4 4 5 3 5 6 7 7 6 5 4 10 9 7 9 9 11 11 10 9 8 7 6 6 8 9 12 12 12 8 7 10 11 11 11 11 8 4 3 7 10 14 17
8 5 4 5 7 8 5 5 10 7 7 2 8 6 8 5 8 7 7 8 9 10 12 12 11 12 14 14 14 13 13 14 14 13 12 11 11 5 3 4 5 13 15 13
4 3 5 7 6 4 6 3 6 11 12 7 6 5 10 9 8 8 10 12 13 14 14 11 16 17 17 17 15 15 14 14 15 14 10 10 6 5 6 4 8 10 13 14
4 6 6 5 3 2 4 4 5 5 5 5 9 7 8 9 9 11 13 14 15 14 13 18 18 18 16 18 15 14 13 11 14 11 8 6 4 5 3 5 9 9 10 13
6 3 2 4 5 3 12 8 6 3 3 8 3 6 6 5 8 12 16 17 16 15 17 18 16 15 13 16 16 14 12 11 10 7 7 7 7 6 3 5 7 9 10 9
7 4 4 3 9 6 6 6 3 5 5 6 3 6 10 4 4 12 18 20 18 18 20 19 17 14 12 13 13 11 10 8 8 8 7 7 6 3 4 6 9 11 13 14
9 6 5 1 3 3 3 4 3 4 3 1 2 5 3 3 1 7 17 19 20 20 19 17 16 14 12 12 11 10 9 9 8 6 4 3 2 4 6 9 11 14 15 16
6 4 4 2 1 3 4 5 3 2 1 3 3 3 6 3 4 10 16 20 22 21 18 16 14 13 13 11 11 10 8 7 7 6 7 9 9 9 10 14 14 13 15 18
4 4 2 4 2 7 4 9 3 3 3 4 4 4 2 7 8 12 17 22 21 18 16 15 14 12 11 10 11 13 10 9 6 5 8 8 9 10 13 13 12 13 15 16
5 3 6 3 7 6 5 5 1 1 2 2 2 3 3 4 9 14 18 21 20 18 16 15 13 11 11 11 11 11 7 5 4 6 9 8 9 13 11 11 11 12 15 18
2 1 4 7 3 1 3 6 9 4 5 1 2 2 5 3 5 9 15 19 17 17 15 14 13 14 13 12 10 10 7 4 11 7 3 7 10 10 10 10 12 15 17 19
6 4 4 5 5 5 7 9 5 3 1 6 3 2 4 4 5 11 14 17 18 17 15 15 14 14 12 11 11 8 4 8 1 3 7 9 10 11 11 12 14 16 18 19
4 3 7 9 2 0 6 11 12 11 4 5 10 9 8 9 9 11 15 17 18 18 17 15 14 13 11 10 8 5 3 4 5 7 10 12 12 11 11 14 15 16 18 18
3 6 4 1 0 3 4 7 13 15 13 8 10 11 9 9 11 13 16 17 18 18 17 16 15 13 11 11 9 3 6 6 10 13 13 11 11 12 13 14 15 17 17 17
2 3 3 4 2 2 6 8 11 15 16 15 18 18 10 8 8 14 18 20 20 20 18 17 15 14 13 11 8 7 7 10 14 14 11 12 13 14 15 16 16 17 18 18
4 6 4 2 2 2 6 16 18 13 13 14 14 14 7 7 11 17 20 21 21 20 19 17 16 14 11 10 9 5 7 12 13 11 12 13 14 15 16 16 16 17 19 17
6 5 2 1 1 3 1 1 2 13 16 14 16 6 6 3 6 10 15 19 20 19 18 17 15 13 11 9 6 6 10 12 13 13 15 15 16 17 15 15 16 18 19 17
0 4 3 2 4 6 11 4 3 4 7 6 14 7 6 4 5 8 14 16 17 17 15 14 13 12 11 7 6 10 11 11 11 13 14 16 18 15 15 15 18 19 17 16
4 3 1 3 3 4 2 3 1 2 6 3 5 9 9 10 5 3 16 17 17 15 15 14 14 12 8 6 9 11 9 11 11 13 18 18 16 14 15 17 18 17 17 15
2 2 4 3 3 6 1 3 4 3 3 1 6 11 13 8 4 3 13 16 15 15 15 15 12 7 5 8 11 12 10 10 13 17 18 17 16 15 17 18 13 14 14 13
5 6 3 3 3 5 6 6 4 3 2 1 4 6 11 5 3 6 14 17 17 17 16 14 6 3 9 11 13 10 11 12 16 18 19 18 14 14 14 14 13 12 11 10
4 3 2 6 2 3 10 4 3 3 2 3 3 5 8 9 7 11 14 16 15 16 11 8 4 8 11 12 13 13 12 17 19 20 17 14 15 15 14 13 12 11 9 9
4 5 3 2 2 8 10 11 12 12 12 8 8 7 8 9 11 14 16 18 17 13 8 3 6 10 10 13 15 15 17 20 19 15 17 19 19 14 13 11 11 10 10 10
1 9 5 5 10 8 1 2 6 7 7 6 6 3 5 11 14 17 20 17 13 9 4 6 11 12 11 13 15 18 19 19 16 15 16 17 17 16 13 12 11 12 12 13
6 3 4 2 4 3 3 6 7 4 1 2 5 10 12 14 20 18 16 13 7 3 9 11 12 11 10 14 17 17 17 15 16 16 16 16 18 16 15 15 15 15 19 18

GFSCGP_850_spd_051.txt.gz
Wind_Speed
19 8 12 19 13 7 3 9 10 9 10 12 12 8 9 15 15 13 13 14 14 13 9 8 8 8 11 14 17 24 17 13 12 7 9 9 11 12 11 6 5 3 1 3
11 11 18 9 5 9 5 5 10 8 10 8 7 10 10 12 14 15 17 17 16 13 11 9 9 9 12 14 15 12 12 11 8 6 7 10 10 10 9 8 4 3 6 14
4 6 6 6 8 9 7 5 10 12 10 13 9 12 12 11 12 12 14 14 14 15 13 13 12 12 14 15 14 13 12 12 11 11 12 11 11 9 7 5 2 7 12 18
11 15 7 12 9 4 7 2 0 4 13 14 16 11 13 13 13 12 15 14 15 15 15 14 15 15 15 15 15 14 14 13 13 12 9 10 8 6 7 2 6 5 12 8
12 12 10 10 3 7 12 3 4 7 11 12 16 8 21 17 16 16 17 18 17 17 17 17 18 19 18 17 16 15 14 13 12 10 9 9 6 4 4 4 6 9 9 11
6 4 2 7 2 3 5 4 6 7 10 8 14 10 8 14 12 16 16 18 19 18 17 19 19 19 17 16 15 14 13 11 10 9 8 7 6 5 5 6 8 8 10 10
8 8 4 6 7 4 7 7 7 6 6 9 4 4 15 9 3 10 16 19 19 18 20 21 20 18 15 14 14 12 12 10 9 8 7 6 4 5 4 7 9 10 11 13
12 8 11 7 8 5 9 9 5 5 8 6 6 7 3 9 4 5 16 19 20 19 21 21 19 16 14 13 13 12 12 11 9 8 7 5 2 3 6 9 11 13 13 13
12 5 7 1 2 5 5 7 5 5 3 6 10 5 7 7 8 10 16 20 21 22 22 20 18 16 14 13 13 13 13 12 11 11 9 4 5 9 9 10 12 12 13 14
2 3 5 5 5 6 9 3 4 5 3 7 9 7 6 10 10 11 16 20 22 22 21 19 17 16 15 14 13 13 13 13 10 8 6 10 14 7 9 10 12 12 12 13
8 9 8 5 11 12 7 9 7 4 3 4 4 2 8 7 9 12 16 20 23 24 22 19 17 15 15 14 14 14 14 11 9 6 13 10 4 8 10 11 11 11 12 14
4 4 9 11 3 5 9 8 9 6 7 5 4 4 4 6 7 11 14 18 21 22 20 18 17 16 16 16 15 14 14 12 5 12 2 5 8 10 10 11 11 12 14 15
6 7 9 7 7 6 8 10 8 9 2 9 4 3 6 8 6 8 11 16 19 19 19 18 18 17 17 17 16 15 13 9 11 4 7 8 10 11 11 11 13 14 14 16
1 12 10 10 8 5 12 12 12 11 7 11 12 11 9 10 9 10 12 14 16 18 19 19 18 18 17 17 16 14 9 6 5 6 7 10 11 10 11 13 13 14 15 17
5 10 13 15 5 7 8 8 11 16 17 15 13 16 8 4 10 11 11 14 17 19 21 20 19 18 17 17 15 12 8 6 6 6 8 10 10 11 13 14 15 16 17 17
5 6 4 5 7 8 11 12 13 14 17 18 19 17 16 10 5 9 11 15 18 19 20 20 18 18 17 16 14 10 8 6 5 7 9 9 11 13 14 16 17 18 17 18
5 4 4 6 3 5 6 15 17 17 17 14 16 15 11 2 6 12 11 14 17 18 19 18 18 17 16 14 12 9 7 5 5 8 9 10 12 14 15 17 17 17 18 19
5 8 1 1 1 1 3 1 5 7 13 15 14 13 11 9 5 6 9 12 14 16 17 17 16 15 13 12 10 8 5 4 7 9 10 11 13 15 17 17 17 17 18 19
4 5 2 3 6 8 11 7 2 3 7 6 8 9 3 1 3 9 8 9 12 14 15 14 14 13 12 11 8 5 5 7 8 10 11 13 14 16 17 17 17 18 18 18
4 3 4 3 3 4 3 4 1 1 6 7 4 1 4 6 4 6 7 8 10 12 13 14 13 14 12 9 4 4 7 8 10 11 12 14 15 17 17 17 18 16 16 17
2 1 5 5 3 6 1 4 2 4 3 5 5 2 5 6 6 4 5 9 11 12 12 14 14 12 9 4 3 7 10 10 11 12 13 15 16 17 17 17 17 15 15 17
7 7 3 3 2 6 7 7 2 4 3 5 3 3 4 2 3 2 7 9 11 14 15 13 12 8 5 0 6 8 10 11 12 14 15 16 16 16 16 17 17 15 16 18
4 6 2 7 3 4 8 3 2 3 4 4 5 4 4 6 3 5 9 12 13 13 13 10 8 3 0 4 5 9 10 12 13 15 15 16 16 17 15 17 18 17 17 15
4 2 3 1 3 5 4 4 4 5 7 7 6 7 8 9 7 7 10 11 13 11 10 7 4 1 4 6 10 10 11 13 14 15 16 16 18 19 17 14 15 16 16 14
3 7 5 5 10 5 4 4 5 5 3 3 3 4 4 4 8 11 12 12 12 9 8 3 2 6 8 9 10 10 12 13 13 14 16 17 17 19 21 19 16 17 16 17
6 3 4 3 5 4 6 5 6 3 3 3 4 7 9 12 14 15 14 13 12 9 2 2 8 12 10 10 11 11 11 12 14 15 15 16 19 22 22 21 20 19 21 21

GFSCGP_850_spd_054.txt.gz
Wind_Speed
4 2 8 12 11 14 10 7 15 13 11 8 9 15 13 15 19 18 25 23 21 16 14 14 13 14 13 17 24 23 18 14 11 10 10 9 8 11 14 13 11 1 2 5
2 14 10 14 15 21 14 4 7 8 9 10 11 11 11 15 13 16 18 18 20 20 15 13 14 14 14 18 23 19 12 13 10 6 5 6 10 9 8 8 7 7 5 6
7 14 27 21 11 11 5 6 11 4 8 8 8 11 14 11 10 11 16 20 20 21 16 15 14 14 18 20 20 15 13 11 13 11 11 8 11 12 14 9 4 5 8 6
2 18 21 20 8 13 12 6 17 9 16 7 7 1 3 13 15 16 23 26 26 22 20 18 19 18 16 16 14 16 11 11 12 14 13 14 11 9 10 8 9 1 10 13
11 19 16 17 6 8 1 11 13 12 7 7 7 7 16 15 15 14 14 15 17 18 18 16 16 10 15 16 15 18 17 16 16 13 13 12 8 8 10 7 6 6 11 12
3 4 12 3 2 3 6 6 14 9 9 6 13 13 4 10 12 14 17 17 17 16 17 17 18 20 21 21 20 20 18 16 16 15 14 13 13 11 10 10 10 8 9 10
5 13 11 6 8 5 11 9 4 6 6 5 7 13 8 20 17 26 18 21 20 20 21 22 24 22 21 21 22 21 18 16 14 13 12 14 16 14 11 7 6 10 12 12
11 13 14 9 6 4 17 8 2 2 5 5 13 5 7 11 9 17 20 20 21 22 23 25 25 24 20 19 18 17 17 15 14 13 12 12 11 6 7 9 10 13 13 14
5 3 6 8 4 14 8 3 5 6 5 2 5 11 5 10 10 13 18 21 22 23 25 25 25 23 20 19 18 17 16 17 16 15 14 13 10 7 14 8 12 12 12 14
5 6 15 14 4 4 6 7 4 2 2 5 10 13 6 10 10 10 14 18 22 22 24 25 24 21 18 19 17 17 15 17 20 20 17 10 8 7 4 12 11 11 14 14
9 25 9 8 7 10 6 8 8 10 4 2 3 4 8 10 11 10 13 19 22 23 24 23 22 21 17 20 21 19 16 19 18 18 13 6 6 6 11 9 11 13 13 14
11 5 6 11 5 5 10 10 9 4 7 2 3 6 3 3 8 11 12 17 20 23 24 23 21 20 19 15 16 17 18 14 18 14 8 12 7 7 10 10 12 13 14 15
4 4 6 11 8 8 8 12 10 9 2 4 3 3 5 5 7 10 10 17 19 23 24 23 20 17 16 16 14 15 19 20 16 7 1 2 7 9 10 12 13 14 15 16
4 6 10 7 11 5 6 11 11 10 2 4 10 14 8 11 9 8 8 7 17 19 20 18 15 15 14 15 17 17 17 16 8 4 7 9 9 10 11 13 15 15 16 17
3 9 12 15 15 7 10 12 7 10 10 10 11 15 12 4 12 14 11 10 10 11 12 13 15 15 16 18 15 15 11 9 8 8 7 7 9 10 10 13 15 18 19 20
5 6 6 9 10 12 11 15 14 14 15 14 14 14 12 11 12 4 3 9 11 14 14 16 16 16 17 16 16 13 12 9 9 5 5 7 10 12 13 15 16 17 18 19
7 3 2 3 6 7 5 10 16 16 15 11 12 11 8 3 2 4 6 10 6 9 14 15 15 15 16 14 16 13 11 11 5 5 5 7 11 13 14 15 16 17 19 19
6 5 2 1 1 1 10 0 4 4 8 9 11 9 8 8 8 5 4 2 6 5 8 11 12 12 13 14 13 14 10 5 3 4 8 9 11 15 16 16 17 17 18 19
4 5 2 3 4 9 13 3 1 0 3 10 8 9 11 11 7 7 5 1 3 6 7 10 12 13 13 12 11 8 6 4 3 6 12 11 14 17 16 17 17 21 24 22
2 5 3 3 3 5 0 5 2 1 2 7 6 6 6 3 1 4 6 5 3 6 9 11 12 12 14 12 9 6 3 5 8 9 15 16 15 16 17 18 19 20 24 14
2 1 4 4 2 6 6 8 1 2 3 6 7 8 5 2 6 4 4 5 6 8 10 12 14 15 12 9 5 1 6 7 8 13 18 16 14 16 17 18 19 18 19 20
7 6 4 3 2 6 6 5 1 4 5 5 6 6 7 9 6 5 6 8 10 12 15 15 16 13 10 6 4 4 5 10 17 19 17 16 14 18 17 19 19 18 20 22
4 6 4 7 4 5 8 9 6 4 4 4 3 6 3 4 2 4 7 11 14 15 13 12 11 9 5 3 3 7 11 13 14 16 14 14 15 19 24 22 19 18 21 25
6 5 2 3 4 7 7 6 6 7 6 5 4 4 5 6 5 9 13 13 13 12 12 10 6 3 3 4 9 12 12 12 13 15 14 16 17 20 24 27 23 16 17 19
1 8 6 5 7 2 14 11 7 5 5 4 6 6 5 1 10 15 15 13 13 10 5 5 3 2 5 11 13 12 11 14 13 14 15 17 20 18 24 26 23 23 21 21
7 2 3 1 7 7 11 7 5 6 7 8 9 13 16 16 18 17 14 8 5 5 4 2 3 10 11 10 11 13 13 12 15 18 21 20 22 23 25 22 26 28 25 23

GFSCGP_850_spd_057.txt.gz
Wind_Speed
3 4 3 6 8 8 9 8 11 10 10 9 9 10 13 18 19 13 12 21 21 25 26 25 21 25 27 27 27 27 22 21 20 20 14 15 12 11 13 11 9 8 5 3
5 1 4 12 11 13 12 6 24 16 6 6 8 8 10 14 17 18 20 15 25 26 25 24 22 20 25 28 27 26 21 15 14 14 10 8 10 8 9 9 9 6 4 5
7 7 4 6 12 15 5 4 2 5 6 2 3 3 6 7 19 21 29 27 33 30 26 23 20 21 14 26 27 23 16 13 13 14 10 6 10 13 13 10 6 8 7 9
5 8 9 8 10 9 1 5 5 6 4 2 4 3 3 6 6 16 24 29 32 29 24 24 23 21 17 21 20 14 8 18 18 16 15 15 15 15 12 9 9 6 7 14
10 3 4 7 7 1 6 8 5 4 6 3 3 6 6 5 3 7 13 25 32 32 27 27 24 20 20 18 17 12 19 18 18 19 14 15 11 15 16 15 12 7 6 9
9 4 7 7 9 7 6 4 2 5 2 2 9 5 5 8 12 5 14 22 27 31 29 28 22 20 15 17 21 20 17 18 23 16 17 17 15 20 18 15 12 11 8 10
4 6 4 7 5 2 6 3 3 5 6 4 5 4 8 4 13 13 15 21 24 28 26 24 22 22 20 18 18 23 24 25 23 20 21 21 18 19 17 15 13 13 15 15
6 2 3 2 5 5 3 3 4 4 2 5 4 5 4 7 15 28 27 23 24 25 26 25 26 27 27 25 25 24 23 23 22 23 23 23 21 17 13 10 13 13 15 19
3 4 5 7 6 2 1 4 6 2 2 3 4 3 6 6 3 15 18 26 28 28 27 29 30 29 26 26 25 24 18 19 20 21 23 22 18 14 12 13 12 18 19 19
1 3 4 8 7 8 7 12 3 3 1 3 4 3 4 6 6 9 10 23 27 27 28 30 31 29 26 21 20 21 21 23 24 24 23 20 15 13 12 16 21 14 18 18
6 5 4 4 5 13 1 3 3 4 5 5 1 5 5 10 9 9 15 28 30 30 31 29 32 30 26 23 20 25 22 24 25 25 23 17 12 11 12 11 13 15 18 19
8 4 3 13 23 10 6 5 5 5 5 3 5 5 2 8 10 19 22 32 33 32 31 30 29 30 29 31 30 30 25 23 24 22 16 10 8 5 7 9 13 14 15 17
2 2 2 2 2 3 3 6 4 3 4 4 5 5 2 7 9 20 16 27 32 32 31 30 28 33 30 32 31 25 21 20 17 12 9 3 1 6 11 13 13 16 19 21
6 0 5 6 6 3 4 4 6 3 4 4 5 4 9 7 7 9 10 14 29 33 32 33 32 32 27 25 22 21 20 17 13 9 5 6 8 12 14 15 18 20 20 21
4 4 1 4 6 4 5 0 5 4 6 6 8 7 10 5 11 18 15 11 18 29 29 29 31 27 22 19 17 19 20 16 12 9 10 11 10 14 15 16 18 18 19 20
1 2 3 1 5 8 4 5 6 6 6 4 3 5 4 9 17 15 9 10 11 22 24 23 21 21 20 19 21 19 15 10 13 15 10 10 13 14 14 15 17 21 20 19
6 4 3 2 4 6 6 6 6 6 5 4 4 7 5 5 9 10 9 6 7 19 19 17 18 19 18 20 20 15 15 16 17 13 9 8 10 14 18 21 22 20 18 19
6 5 3 3 3 1 8 5 5 4 1 5 6 6 10 10 14 13 12 9 10 12 14 14 17 18 20 19 19 20 17 15 9 5 3 8 11 15 20 21 20 18 21 23
4 5 2 4 4 5 9 1 2 3 3 5 7 7 14 12 24 23 17 14 13 13 13 14 16 20 22 22 20 19 13 8 8 4 5 10 11 20 21 20 20 22 25 24
6 6 5 3 4 6 6 3 5 4 1 7 13 6 8 9 5 3 12 14 14 12 14 20 21 21 21 20 18 18 14 7 2 7 12 11 19 20 18 19 21 23 24 25
3 3 5 2 2 7 7 7 3 6 6 9 13 15 12 5 6 10 11 15 14 18 20 21 21 21 20 19 17 12 7 2 10 8 18 20 18 19 19 21 21 23 21 20
7 6 3 3 2 6 10 5 6 5 10 11 16 15 16 12 11 16 16 18 20 23 22 21 21 18 14 11 6 1 10 5 9 17 16 17 17 15 20 24 25 21 22 24
3 7 6 7 6 7 12 19 14 12 15 12 10 7 9 10 15 15 19 19 18 17 17 16 14 12 6 2 7 7 4 12 13 14 17 17 17 17 21 25 27 28 30 22
2 7 4 4 3 7 24 21 16 13 14 8 6 3 1 5 17 22 22 19 17 14 12 8 5 1 5 5 4 10 12 14 14 17 17 16 18 20 23 26 28 30 33 25
5 6 6 2 10 21 16 16 13 13 14 10 7 6 7 18 25 24 21 17 12 8 5 1 2 2 3 8 11 12 13 14 18 18 18 21 24 24 25 26 28 30 28 23
3 5 4 4 8 12 11 11 16 18 18 13 12 17 20 20 22 18 17 12 9 8 7 7 6 7 8 10 11 12 16 19 20 23 26 29 28 29 29 28 29 28 30 27

GFSCGP_850_spd_060.txt.gz
Wind_Speed
5 4 3 4 5 4 6 11 10 10 8 4 8 6 10 15 23 25 29 34 37 37 35 36 37 33 34 30 29 28 30 28 27 24 21 22 17 18 12 9 10 9 6 6
5 3 4 1 5 1 5 8 17 16 6 10 5 7 6 9 19 32 35 32 34 32 32 37 37 41 39 34 31 29 26 25 25 23 19 18 17 16 10 10 10 10 9 5
6 7 1 2 4 4 10 8 6 7 3 6 5 3 2 3 2 15 25 37 41 41 40 42 45 43 40 36 33 30 26 25 22 21 20 16 16 15 15 14 11 10 8 7
4 3 4 2 2 5 7 7 5 2 3 5 2 4 4 7 10 5 15 25 34 40 38 35 38 37 36 34 33 32 31 25 20 22 21 16 17 16 14 11 10 10 10 10
7 7 6 4 9 6 10 3 4 2 4 4 2 4 6 5 9 14 20 30 33 43 41 39 36 31 24 27 31 31 22 19 22 23 20 14 14 13 13 16 15 13 12 10
6 2 7 7 6 6 8 3 7 7 3 3 2 5 5 5 12 9 13 30 35 41 39 36 29 24 23 22 26 20 19 23 22 21 18 20 18 17 18 20 18 14 12 10
2 3 2 3 4 4 4 6 3 4 4 4 6 3 8 6 9 8 11 25 33 41 38 35 31 25 26 21 19 22 24 22 24 24 24 23 21 20 20 22 20 18 16 14
5 4 2 1 3 1 4 4 5 3 3 5 3 5 5 7 14 8 22 24 31 37 37 36 32 22 22 23 25 26 25 23 25 25 25 23 23 21 20 19 15 11 10 13
4 4 5 2 3 5 2 2 7 4 1 1 3 5 7 4 3 2 12 21 27 36 36 33 29 27 27 26 25 27 26 30 27 23 22 21 20 19 20 18 11 11 17 21
6 1 4 5 2 5 5 6 3 3 2 3 4 4 5 4 3 3 8 19 29 31 33 32 31 30 25 22 25 26 28 26 23 21 21 20 20 20 17 12 15 19 17 18
6 4 4 3 5 9 3 2 1 4 4 4 1 5 5 8 7 9 13 27 35 35 34 34 33 31 26 25 28 29 28 26 24 25 24 23 23 19 12 13 17 15 16 20
6 5 4 8 4 3 4 5 6 5 4 1 4 5 4 10 10 19 23 29 34 35 35 34 34 34 33 30 28 30 31 26 27 30 27 23 21 14 14 7 11 15 16 18
8 2 2 8 7 4 2 6 5 4 4 6 5 6 2 3 9 19 24 28 35 36 38 38 39 39 37 36 35 35 34 31 33 28 23 18 17 9 8 7 9 12 14 18
10 5 7 8 7 3 4 5 5 6 3 4 6 6 6 7 7 12 19 27 33 38 39 39 38 39 39 39 38 34 29 29 24 18 15 11 12 11 8 9 11 15 18 18
5 5 4 5 3 3 1 3 2 4 4 5 7 7 8 7 8 20 23 15 27 32 32 34 34 36 39 35 32 30 24 19 18 17 16 14 12 8 7 11 13 11 16 24
2 2 2 3 3 3 3 3 5 4 3 5 5 6 5 5 3 13 19 14 20 28 30 33 34 33 31 33 29 23 22 21 21 18 16 15 11 9 9 5 13 28 24 24
7 6 3 4 3 4 6 6 7 5 5 5 5 6 2 5 9 6 7 7 11 21 28 31 32 35 31 26 25 27 27 24 20 17 15 12 10 5 8 20 15 19 21 20
7 5 3 3 3 2 7 4 6 6 3 4 7 3 6 12 16 13 8 8 11 18 24 27 27 26 27 27 28 26 23 21 20 17 14 8 5 15 13 15 18 20 20 20
5 5 3 4 3 5 8 3 6 5 2 4 7 6 16 24 26 17 12 12 15 18 22 24 24 25 26 26 25 25 23 20 17 13 6 5 16 13 15 18 18 19 20 22
8 6 5 3 4 6 7 4 5 5 0 1 8 6 9 6 4 3 13 16 20 20 22 24 25 27 28 28 26 23 19 15 9 2 7 20 12 16 17 19 19 20 22 25
3 3 5 2 3 7 8 8 2 5 6 9 12 10 7 5 8 17 19 20 21 23 26 27 29 29 26 24 20 16 10 3 8 16 15 13 17 16 18 19 20 22 24 24
7 6 3 3 3 6 9 3 7 6 14 17 16 18 23 24 23 22 22 23 24 26 27 25 25 22 18 14 9 4 6 15 16 10 13 16 16 17 18 20 22 24 26 28
2 7 6 8 6 5 4 7 15 21 23 17 17 16 20 25 24 23 23 24 24 24 22 17 14 12 8 3 7 16 7 6 11 13 15 16 18 18 19 22 24 27 28 30
2 6 4 4 2 4 16 19 22 19 19 17 15 16 18 24 25 24 24 23 22 19 15 11 8 4 0 3 2 5 8 12 13 15 18 19 20 22 23 26 27 29 31 30
6 9 6 4 3 16 11 18 21 19 16 13 11 9 17 24 24 26 24 21 18 14 11 6 4 6 4 5 7 8 11 14 18 21 23 25 27 29 32 34 33 32 34 32
4 6 5 5 21 8 12 17 21 20 16 12 8 17 19 18 26 24 22 16 12 10 10 8 7 6 4 5 6 9 11 13 17 21 24 26 30 33 36 37 40 38 37 35

GFSCGP_850_spd_063.txt.gz
Wind_Speed
2 5 1 3 5 5 3 4 4 6 6 5 7 5 8 19 12 15 22 27 32 35 29 30 31 32 33 30 28 31 29 29 25 25 25 24 21 18 16 13 11 13 13 12
3 3 5 1 4 1 3 3 7 9 7 8 6 5 3 9 15 28 31 30 36 36 32 33 32 34 35 32 31 35 31 31 30 25 23 20 20 17 14 13 13 12 12 9
6 5 4 3 2 5 5 4 6 9 2 2 5 0 6 6 9 18 25 37 39 39 38 39 36 40 36 36 34 34 31 31 26 26 25 22 21 17 19 18 16 12 8 6
5 3 3 2 5 4 4 4 7 5 2 3 2 3 5 8 12 9 23 30 39 41 40 40 40 42 40 39 37 33 32 32 30 29 29 24 22 24 22 17 13 11 10 10
6 4 5 6 10 6 7 5 4 2 1 3 1 3 5 7 9 15 20 31 37 43 44 44 43 40 36 37 40 36 33 33 28 27 25 20 19 16 15 15 16 14 14 14
5 3 6 6 1 5 3 2 5 5 2 2 2 4 4 6 16 17 22 30 39 41 40 40 41 39 39 36 37 38 37 32 26 27 26 23 17 15 16 18 19 18 18 16
0 3 2 2 2 1 4 5 3 4 4 4 1 2 8 7 5 9 19 33 38 45 42 42 43 40 40 38 33 29 34 31 29 25 26 23 19 18 18 20 23 24 23 20
5 5 4 1 3 3 3 5 5 3 3 4 2 4 6 3 13 7 22 31 36 41 47 46 42 37 34 25 20 22 26 26 27 28 26 22 22 23 23 24 27 26 22 16
5 4 3 2 1 5 1 1 1 5 3 2 3 6 9 7 4 4 7 16 28 37 44 46 39 33 30 22 21 21 25 27 25 24 24 23 26 26 26 26 24 22 14 14
7 1 2 2 2 2 3 7 3 2 3 3 4 4 5 7 5 3 4 14 24 30 34 39 39 35 28 22 19 25 27 26 23 24 25 25 25 24 25 26 25 16 13 14
5 5 4 1 5 7 2 2 1 4 4 4 1 5 6 7 6 7 11 21 25 29 33 36 37 33 26 26 26 28 29 27 27 26 23 22 24 26 26 24 17 15 16 10
6 6 6 9 3 4 4 7 6 4 4 2 4 6 4 9 8 9 10 16 23 27 30 33 34 34 34 32 31 30 31 33 31 30 27 28 30 28 24 13 20 10 8 11
7 1 2 6 4 2 5 5 4 4 4 6 5 6 3 6 8 17 16 16 22 29 31 33 36 37 37 35 34 34 35 37 36 32 29 26 22 19 17 13 11 10 11 13
14 4 7 7 8 3 3 4 5 5 3 4 6 6 6 8 7 10 20 23 24 29 35 37 38 38 38 38 38 39 40 34 31 28 27 24 18 19 19 15 12 10 11 12
4 6 5 4 4 4 4 4 5 6 6 6 7 7 9 8 8 16 20 24 23 28 33 38 37 37 38 39 40 36 31 30 31 30 24 24 21 17 15 13 11 8 10 19
1 4 3 3 2 3 3 6 5 4 3 6 6 6 7 6 7 6 11 18 25 28 31 34 35 36 37 41 37 31 29 28 27 24 23 19 18 17 14 8 7 15 24 20
6 6 4 5 1 3 5 8 8 6 6 6 6 9 2 2 4 6 6 6 7 14 21 26 31 34 34 33 31 29 27 27 23 19 18 19 15 10 7 10 17 19 17 19
7 5 3 2 2 1 7 3 4 6 3 5 2 2 5 7 11 12 10 4 4 7 13 19 23 24 24 25 27 26 25 20 20 21 19 14 7 5 13 18 18 17 18 19
2 6 3 4 4 5 5 4 7 7 5 2 6 6 10 11 8 12 11 7 6 6 9 13 17 20 25 26 25 24 22 22 21 17 12 5 6 19 22 16 18 19 20 20
5 6 5 3 5 7 7 3 3 5 4 5 7 8 8 2 3 3 3 6 9 11 14 17 20 21 21 21 22 23 22 18 14 10 5 10 20 21 17 19 20 19 19 21
3 3 5 3 3 7 7 6 7 5 7 12 16 16 10 4 4 12 10 10 11 13 16 17 18 19 20 23 21 19 15 12 7 8 17 21 13 17 18 19 19 20 21 24
7 7 3 3 3 6 8 5 9 7 10 15 14 14 10 12 17 17 15 15 15 16 18 19 23 23 21 17 13 9 3 7 15 19 12 14 16 17 18 19 20 22 24 27
3 7 6 9 6 4 8 5 9 21 24 17 19 17 17 21 20 18 18 18 19 21 22 21 19 19 16 11 6 5 7 6 8 10 11 13 16 17 19 22 25 27 28 31
3 4 4 4 4 3 6 10 22 20 23 22 19 19 18 22 22 21 21 22 23 21 19 17 15 12 8 4 1 1 3 4 8 11 14 16 20 23 25 28 31 34 36 38
4 10 6 1 1 6 8 14 24 22 22 22 22 21 22 22 24 24 25 25 22 19 16 12 10 7 5 4 3 2 6 10 13 16 19 22 25 27 31 33 34 36 40 39
8 7 6 6 19 9 15 22 22 23 22 20 20 24 24 23 26 27 27 23 19 17 15 12 8 6 6 3 3 7 10 14 17 21 24 27 30 32 34 37 42 40 40 41

GFSCGP_850_spd_066.txt.gz
Wind_Speed
2 4 3 6 5 5 5 2 3 5 5 4 6 4 10 18 12 15 22 24 26 31 29 27 29 28 25 25 22 22 24 24 23 24 23 22 20 17 14 13 13 11 11 12
4 2 4 5 3 4 2 1 6 8 3 5 3 6 5 15 20 24 27 28 30 31 31 34 31 30 30 28 25 24 24 23 25 25 22 21 19 18 16 16 14 13 13 12
5 5 4 3 2 2 3 3 4 7 3 1 5 3 5 5 12 22 23 32 30 33 34 31 32 32 31 31 29 27 26 26 27 26 25 24 24 20 21 19 17 15 13 12
5 2 7 5 4 6 3 6 3 3 2 2 0 4 5 5 10 9 23 30 36 36 37 37 35 34 34 32 31 30 29 30 30 30 28 30 25 24 22 18 15 15 16 16
6 5 6 6 5 4 8 2 1 2 3 2 1 3 6 1 6 13 18 32 38 39 40 40 41 38 36 35 35 33 31 33 33 31 32 27 23 19 18 17 18 18 18 17
5 2 5 7 2 5 3 2 6 5 3 1 2 4 5 5 10 10 16 26 38 42 42 40 38 38 37 36 36 34 34 34 33 34 33 27 23 17 16 17 20 21 20 17
2 3 2 3 2 3 4 4 3 4 4 4 1 2 8 4 6 8 13 30 39 42 42 41 41 39 39 36 34 30 34 35 34 34 35 28 17 17 14 17 19 20 21 21
6 5 6 4 5 7 4 5 5 2 2 4 3 4 5 5 7 13 16 27 32 39 41 41 43 44 41 36 31 31 31 36 38 34 28 22 20 20 16 18 18 22 23 23
5 4 1 1 1 3 3 2 5 6 2 2 3 7 9 3 0 2 5 11 24 31 39 41 40 40 38 32 28 31 31 31 32 32 29 23 22 20 22 23 24 26 28 26
7 1 2 3 3 4 2 6 3 3 2 3 4 5 5 8 9 2 3 9 18 25 34 39 41 40 33 31 27 25 25 24 27 27 23 23 21 24 25 26 29 29 29 19
5 4 3 2 5 8 2 0 4 4 5 4 1 6 7 6 6 7 7 9 13 22 29 36 41 41 36 34 29 19 20 21 24 23 22 22 24 27 28 28 30 30 21 17
6 5 5 8 1 3 4 7 6 4 4 2 4 6 5 8 6 6 8 7 9 16 22 27 32 37 39 36 24 25 23 25 27 29 28 30 29 28 27 26 17 10 17 17
8 1 1 7 5 2 3 5 4 4 3 6 5 6 2 6 8 13 11 9 10 13 16 21 25 30 36 35 27 28 29 30 32 31 28 27 29 26 23 19 17 20 11 6
12 4 7 8 8 5 4 5 5 6 3 4 6 6 9 9 7 12 11 13 16 18 20 22 24 28 33 34 29 28 30 32 33 31 30 31 26 22 18 19 13 9 7 9
7 7 5 4 4 5 6 5 8 7 6 6 7 8 9 7 6 11 14 15 15 20 23 27 29 31 34 32 29 28 29 31 30 31 29 24 17 17 16 11 9 7 9 12
2 5 4 3 2 4 2 7 6 6 4 6 5 7 9 11 8 9 11 12 12 16 23 25 28 30 29 29 27 28 27 26 25 27 23 16 16 14 12 10 6 8 12 17
8 6 4 4 3 3 6 8 9 7 5 7 8 10 4 3 3 4 9 8 5 6 10 16 21 24 26 25 25 26 24 22 23 22 17 16 14 13 10 7 9 12 22 26
7 6 3 3 2 0 7 1 4 8 7 6 5 4 5 6 10 8 7 6 8 5 2 4 10 14 19 18 18 18 21 23 21 18 15 14 11 6 4 10 18 25 19 20
1 6 3 5 4 5 5 4 7 7 9 6 6 5 8 16 8 8 8 7 7 6 5 4 5 8 13 15 17 21 21 18 16 15 14 11 4 8 15 21 19 18 21 21
5 5 4 3 5 7 8 4 6 3 8 8 11 7 9 10 3 2 5 8 8 7 7 7 9 11 13 16 18 19 18 17 17 13 7 4 11 16 22 15 20 20 21 21
3 3 5 2 3 7 7 4 9 6 8 9 23 22 15 4 4 12 10 10 9 9 10 11 13 14 15 15 16 18 18 15 10 4 6 13 20 15 16 17 19 20 21 25
7 7 3 3 3 6 11 6 9 8 3 17 19 22 13 11 15 16 14 14 14 14 16 16 19 22 20 17 15 15 11 6 4 7 9 10 11 11 14 16 18 21 26 30
3 6 7 9 7 4 20 7 15 8 11 18 21 20 17 18 19 19 18 17 17 19 23 23 24 26 21 17 11 9 5 1 5 8 8 9 12 15 18 22 25 28 30 34
3 3 3 3 5 7 11 16 11 16 19 21 20 21 20 20 22 21 20 22 24 25 25 23 22 20 17 12 7 2 6 5 6 8 10 13 16 19 22 25 28 31 34 36
4 8 6 4 5 3 11 18 17 18 18 21 21 21 21 21 24 23 26 27 27 25 23 19 17 15 10 3 1 2 3 5 8 11 14 18 22 25 28 30 32 34 34 33
7 7 6 7 17 12 10 25 21 22 24 24 25 24 21 22 24 26 28 27 26 24 20 17 12 5 3 5 4 4 6 9 12 15 18 22 26 28 30 32 34 32 33 33

GFSCGP_850_spd_069.txt.gz
Wind_Speed
1 2 5 6 7 4 5 4 3 3 3 3 4 4 13 18 14 14 14 13 14 22 20 27 32 29 31 29 22 20 19 19 19 22 22 21 21 20 19 16 12 15 13 10
1 5 4 4 4 5 4 4 5 5 2 5 2 6 7 15 20 23 22 20 20 19 24 26 29 31 32 32 27 24 22 23 22 22 21 20 19 19 17 13 17 16 12 11
5 2 5 4 3 5 4 4 4 6 2 1 1 2 4 7 15 15 19 22 22 26 29 34 34 33 31 30 28 26 23 23 24 24 22 22 21 22 19 20 18 15 14 15
5 2 5 4 4 5 3 6 3 2 2 1 2 2 3 7 13 13 22 24 28 28 29 33 37 39 37 34 31 29 26 24 24 24 24 25 25 26 24 19 17 16 18 19
4 6 4 5 5 6 5 4 3 1 2 1 1 2 3 3 11 18 25 28 30 33 33 34 36 37 36 35 33 30 29 26 25 23 25 26 27 26 18 19 19 20 22 22
4 1 4 5 4 4 5 3 4 3 2 1 1 3 3 4 5 5 20 26 31 35 37 36 35 34 33 30 30 31 30 28 26 26 26 27 28 26 20 21 22 24 24 23
1 3 2 3 3 1 2 3 0 1 1 2 4 2 8 5 8 10 11 21 34 37 37 39 39 39 38 35 33 31 30 29 29 28 28 32 31 26 20 20 22 25 24 24
6 4 7 5 5 5 3 4 4 3 3 2 2 5 4 4 9 14 15 13 18 29 39 40 41 39 38 36 34 30 33 31 27 34 32 31 30 26 22 19 20 20 21 25
5 5 2 2 3 3 3 3 1 6 2 0 2 4 9 3 7 10 11 10 9 18 27 36 39 39 39 37 35 31 27 30 31 29 31 30 28 28 25 22 22 24 25 26
7 3 1 2 3 4 3 7 3 1 3 3 2 3 4 5 4 5 8 11 9 9 17 23 32 37 38 36 34 28 29 30 29 28 27 28 28 24 24 25 27 27 26 24
5 3 1 3 5 9 4 3 3 4 2 2 2 3 6 6 3 4 6 10 9 7 10 15 20 27 33 33 30 32 29 24 25 24 23 23 23 24 29 28 26 26 25 20
6 4 5 6 2 2 2 6 6 3 4 1 2 6 4 8 7 8 10 9 7 6 7 11 14 19 23 26 27 31 27 19 19 20 22 24 28 29 28 24 25 21 17 19
8 2 3 2 1 1 3 4 3 4 3 7 5 5 1 6 6 9 11 10 8 8 9 13 15 18 19 21 25 27 25 22 21 22 23 24 27 25 23 23 18 17 16 13
14 4 6 8 8 5 4 6 7 6 3 5 7 10 8 9 5 12 10 9 10 11 13 14 17 19 20 21 24 26 25 21 23 23 25 28 23 21 19 15 14 16 12 8
5 6 6 5 4 5 5 5 11 10 7 7 12 11 11 10 5 6 7 8 12 12 13 18 20 21 22 23 23 26 23 23 24 24 23 21 22 18 12 16 15 9 2 5
3 4 6 4 3 6 4 6 8 7 4 9 8 9 11 8 7 9 9 8 11 13 12 13 16 18 20 21 25 24 23 20 18 17 19 22 18 15 12 14 8 0 5 4
3 6 4 5 1 4 4 7 10 5 5 7 10 11 1 5 5 4 5 4 4 4 3 4 8 12 15 16 17 16 13 11 12 17 20 18 13 13 11 3 4 5 11 23
5 5 2 3 1 4 5 2 2 8 9 10 8 7 6 4 5 3 2 3 5 7 8 9 7 8 11 11 12 12 13 13 17 19 16 13 15 11 8 5 8 14 20 14
3 5 3 5 5 4 3 5 6 7 14 8 12 7 5 11 8 2 5 7 8 10 12 12 11 10 11 12 13 16 17 18 18 17 17 17 13 7 3 14 16 14 14 16
4 4 3 3 5 9 6 4 9 5 12 8 12 9 12 14 5 4 9 10 11 11 12 12 13 13 13 15 16 19 21 20 18 18 17 10 3 7 13 14 12 13 15 17
3 2 6 3 4 6 5 5 12 5 10 4 16 12 20 8 3 15 15 14 14 13 14 15 15 17 18 20 21 22 22 21 19 14 8 4 8 10 9 10 11 14 16 20
7 7 4 3 2 8 11 6 9 8 6 6 14 19 22 10 16 19 18 18 17 18 19 18 21 22 23 22 21 24 22 18 13 8 2 8 9 8 10 12 15 18 22 25
4 5 5 9 7 4 28 11 25 9 7 9 16 22 24 22 22 22 22 21 21 22 23 25 27 30 27 24 20 21 15 10 5 4 6 4 7 10 13 15 18 20 23 25
4 4 3 2 5 6 13 23 12 16 17 13 18 27 27 24 25 25 25 25 26 27 29 29 28 28 26 20 15 11 7 2 2 3 4 7 9 11 14 16 18 19 20 22
3 9 6 3 4 4 13 21 20 18 16 15 18 25 27 26 27 27 28 28 30 31 29 27 25 24 20 14 9 5 4 5 3 4 6 9 11 14 16 17 17 18 18 19
6 6 5 7 13 9 9 23 24 24 23 21 24 26 25 26 29 30 30 32 33 31 28 25 20 16 13 9 9 8 4 3 4 6 9 11 13 15 16 17 17 17 17 18

GFSCGP_850_spd_072.txt.gz
Wind_Speed
8 8 10 12 12 8 9 7 7 6 3 7 8 10 8 14 13 11 12 11 13 16 19 22 23 25 26 28 25 21 16 14 14 17 18 20 23 22 20 19 19 17 15 16
6 12 4 3 5 8 9 9 12 7 2 4 8 9 6 14 16 15 15 15 16 19 22 26 26 26 28 27 24 21 18 17 16 15 17 16 18 21 21 20 20 18 18 18
13 1 4 9 8 10 10 11 8 8 5 8 9 11 9 10 14 16 16 16 18 21 26 27 29 29 28 28 27 23 20 19 19 17 16 15 17 18 20 21 21 20 20 18
11 8 8 10 10 10 10 8 10 7 6 5 3 3 7 10 13 15 19 22 22 24 25 28 30 31 31 29 26 25 22 20 19 21 20 21 18 17 18 21 20 22 21 22
12 9 11 12 12 9 7 3 7 6 7 6 9 6 7 4 10 14 22 25 26 26 28 30 32 32 30 28 27 24 22 22 21 24 24 23 19 17 23 19 18 23 22 22
12 3 6 4 6 9 2 6 4 5 5 7 2 5 2 5 3 3 5 22 27 28 29 30 30 29 30 30 27 27 26 25 26 25 25 26 22 24 24 22 22 26 25 25
15 14 6 6 9 8 9 8 6 6 6 5 4 5 9 8 4 5 8 7 17 28 28 29 29 30 29 30 30 29 28 26 26 27 28 26 25 26 25 22 24 23 24 26
15 14 14 11 13 8 14 11 5 6 5 4 3 5 2 3 5 9 8 8 10 17 28 29 31 30 29 30 31 30 29 27 28 29 29 28 26 27 28 23 25 25 24 22
16 15 6 7 5 10 7 8 1 1 1 4 5 7 11 4 4 6 4 4 6 11 19 25 28 29 28 29 33 33 30 26 29 29 27 25 28 28 28 25 25 21 19 19
7 11 7 7 7 3 5 11 5 4 5 7 6 8 7 5 1 1 4 5 2 2 9 15 21 26 27 27 28 31 27 26 23 27 30 27 26 27 25 27 25 21 22 26
11 7 6 8 11 12 6 7 4 3 3 4 4 4 3 6 3 5 4 5 5 2 4 9 13 18 21 22 24 27 28 24 21 24 24 22 21 23 25 27 30 28 24 24
19 8 9 12 4 5 10 12 13 6 7 3 4 8 7 10 5 6 8 9 5 4 5 8 11 13 17 20 21 22 24 24 22 19 18 17 20 24 27 27 24 24 20 16
16 10 9 9 7 5 8 11 12 7 3 11 9 8 3 5 7 10 10 7 9 7 7 8 11 13 14 17 19 20 20 21 20 20 22 20 17 15 16 19 21 19 12 17
23 14 17 14 14 10 13 16 15 15 10 12 13 17 13 13 14 13 9 6 8 8 8 10 11 12 14 15 17 18 17 21 22 20 18 19 20 22 25 19 13 14 12 20
12 16 17 17 15 12 16 14 16 17 18 17 14 17 13 14 15 15 8 5 6 9 8 9 12 13 13 14 15 18 21 23 21 20 22 24 19 16 17 5 3 12 16 10
6 11 11 13 11 12 15 16 15 17 16 14 17 18 14 18 13 12 11 8 7 5 7 8 10 13 14 15 16 19 21 20 18 17 14 17 18 18 16 9 12 12 10 11
3 9 6 12 7 6 8 15 15 15 13 15 16 17 14 14 14 17 11 8 7 5 4 4 8 12 13 14 16 17 16 16 16 15 17 18 18 19 12 13 12 11 5 10
4 9 5 6 4 8 9 3 15 18 17 16 16 18 16 15 9 5 5 4 1 3 5 7 8 10 11 13 14 15 16 17 18 19 19 20 18 16 14 11 6 5 10 12
13 7 4 5 10 10 5 5 9 11 16 15 15 18 17 8 7 8 6 7 6 7 9 10 11 13 14 14 15 16 17 17 19 20 20 18 17 15 11 7 9 8 7 7
7 9 7 4 6 8 5 12 13 5 14 11 12 12 8 11 7 4 12 12 11 11 11 13 15 16 17 18 18 18 20 21 21 21 21 18 14 8 5 6 6 6 7 8
4 3 10 10 5 5 4 7 13 9 13 2 9 9 13 12 1 15 17 15 13 13 14 16 16 17 18 20 21 23 23 24 24 23 20 14 8 7 7 6 6 7 7 10
6 6 4 5 4 9 12 11 10 13 4 7 9 11 16 12 11 15 15 16 15 16 17 16 18 19 18 20 22 23 22 23 22 19 14 11 7 6 5 5 7 8 11 15
9 9 5 8 6 3 25 16 23 7 9 9 12 12 17 19 17 19 18 18 17 18 18 19 20 22 21 19 19 21 19 17 16 14 10 7 6 5 6 7 10 12 13 15
8 5 6 5 9 11 12 19 9 9 7 4 7 13 20 23 22 22 21 20 20 20 20 21 23 23 23 20 19 17 17 15 10 8 8 7 6 6 8 10 11 11 11 12
12 11 12 12 12 7 11 18 18 16 13 11 11 14 20 23 24 24 24 23 22 22 22 21 22 22 22 21 20 17 14 11 10 8 7 6 6 7 8 9 8 8 10 12
9 10 8 7 17 12 12 9 18 19 19 16 17 16 19 23 26 26 25 24 25 25 24 23 22 23 22 20 16 13 12 10 8 7 6 6 7 7 6 6 7 10 9 11

GFSCGP_850_spd_075.txt.gz
Wind_Speed
19 12 15 16 14 18 10 12 9 8 5 5 13 13 7 11 9 10 9 20 21 18 20 22 23 21 22 27 29 25 18 17 19 19 18 18 19 21 22 19 18 18 16 18
13 15 16 6 9 10 11 14 11 12 4 3 12 13 7 13 13 16 14 15 19 23 23 22 23 23 27 30 28 22 18 15 17 14 16 17 17 18 19 16 20 21 19 19
18 14 10 6 9 11 14 13 11 15 5 10 13 13 12 14 14 15 17 16 20 22 27 27 27 28 28 29 26 23 20 18 18 16 16 16 18 16 19 17 18 21 20 20
18 18 8 12 13 11 15 10 9 12 10 3 12 6 16 15 14 16 19 20 22 25 25 27 28 29 30 30 27 25 22 21 19 20 17 18 19 16 16 17 22 20 22 22
19 17 12 15 14 12 13 1 8 11 12 15 9 8 11 11 14 17 18 23 24 26 28 31 32 32 31 30 29 27 24 21 19 20 23 21 20 16 16 19 22 20 20 23
20 17 15 17 13 10 3 7 10 11 12 10 11 10 9 7 6 4 13 24 25 26 29 30 31 31 31 33 30 28 26 25 23 25 24 24 22 19 22 27 20 23 23 26
21 15 14 6 11 10 11 11 8 6 7 10 7 5 7 11 4 1 4 5 19 27 28 29 31 33 33 34 33 31 28 28 26 26 27 27 26 25 28 24 23 27 27 26
17 20 21 14 17 13 16 15 7 6 3 6 5 6 8 4 2 5 6 7 8 16 29 31 32 33 33 34 35 32 31 29 28 28 29 29 27 28 29 25 22 26 23 25
19 22 24 18 15 15 13 16 13 9 4 7 8 8 10 8 4 4 7 4 9 12 18 28 32 32 32 33 34 36 32 29 29 29 28 29 28 29 26 22 25 23 22 24
8 15 12 13 11 13 9 13 9 8 10 10 11 12 9 9 7 5 4 4 1 3 10 19 26 30 31 30 31 31 30 29 28 27 27 29 26 25 25 27 25 24 24 21
18 12 15 13 17 17 12 11 10 11 9 6 9 5 10 4 2 4 4 2 2 1 4 9 16 22 27 28 28 29 29 28 26 26 24 26 26 23 23 23 23 20 21 26
23 11 11 17 17 20 18 19 18 10 13 8 11 12 15 9 11 6 7 7 6 3 4 7 10 14 20 26 27 27 26 27 26 22 23 26 20 22 25 24 23 24 27 26
20 14 13 15 13 7 12 17 14 16 13 14 10 8 11 7 7 10 11 12 7 9 9 8 9 12 15 19 22 23 23 24 24 23 28 25 22 24 24 21 18 22 22 14
21 16 19 15 17 15 19 19 19 18 12 13 16 18 17 12 10 19 12 14 11 8 10 11 10 12 13 16 19 20 20 21 22 29 28 22 24 26 27 27 22 20 19 15
15 23 19 22 18 14 17 18 20 20 19 19 17 19 18 13 9 12 15 10 6 8 10 11 12 12 13 15 17 19 20 22 23 22 24 26 28 25 20 15 13 17 13 10
17 16 22 19 18 18 17 15 17 17 17 18 19 20 15 17 13 14 13 14 11 10 6 5 8 11 13 14 15 17 20 19 21 23 21 24 23 20 20 17 18 13 16 12
12 15 15 16 18 19 16 17 17 18 17 14 17 16 16 14 11 16 17 19 9 9 7 5 6 10 13 14 20 24 20 19 18 19 20 19 20 23 23 14 16 13 11 9
6 13 12 7 2 14 10 14 18 20 19 17 18 17 15 17 21 9 7 9 7 8 6 5 8 11 13 15 18 17 20 24 23 19 19 21 22 24 19 16 14 11 9 7
12 9 7 6 12 14 18 8 12 15 17 17 18 16 17 16 6 11 10 7 8 7 7 9 11 13 15 16 16 17 17 19 19 20 21 22 22 21 17 14 10 7 7 7
13 10 9 4 12 17 13 11 12 14 14 17 17 14 10 5 6 8 13 12 12 11 11 13 15 17 17 17 19 19 20 20 20 20 20 21 18 15 14 8 6 6 7 7
4 4 12 11 7 7 9 8 11 11 13 8 6 8 8 8 4 11 15 15 15 15 15 15 16 16 17 18 18 20 21 21 21 20 20 18 16 10 8 8 7 7 6 7
10 8 5 8 7 9 9 8 11 15 21 8 10 10 11 8 12 14 16 17 17 18 18 16 17 17 18 18 20 21 21 21 21 20 18 15 13 10 6 7 5 5 5 6
15 9 6 8 5 9 21 15 24 17 11 8 9 8 10 15 15 17 19 19 18 18 19 18 19 19 18 19 20 22 21 19 18 16 14 12 9 7 6 6 5 4 4 6
12 15 11 16 18 16 15 15 15 8 11 8 7 8 12 16 17 19 20 20 20 19 19 20 21 20 20 19 18 18 18 17 15 14 12 10 8 7 6 4 4 4 6 8
11 9 11 14 16 18 10 14 14 14 12 12 11 12 17 16 19 22 22 21 20 19 19 19 20 20 19 18 17 16 16 15 14 11 10 8 8 8 6 8 8 7 12 10
14 15 10 8 13 17 19 13 15 15 19 14 13 12 15 20 22 23 22 21 21 21 20 19 18 19 18 16 15 13 12 12 12 10 9 8 6 6 6 5 8 9 11 13

GFSCGP_850_spd_078.txt.gz
Wind_Speed
19 13 15 20 19 21 12 17 14 13 7 8 12 13 8 11 9 19 25 23 22 16 17 22 22 18 20 27 37 39 37 32 27 27 24 23 23 22 23 23 21 21 18 19
16 19 19 21 20 12 11 13 15 15 6 9 11 16 9 11 13 19 25 25 22 21 22 22 22 23 23 40 33 29 24 24 24 23 23 21 21 20 24 22 23 20 22 20
20 19 19 18 11 11 12 14 14 15 14 11 8 14 9 8 12 22 17 28 29 27 27 27 25 27 29 30 26 22 19 19 22 20 19 19 18 18 22 21 21 24 22 23
20 21 19 11 10 13 14 14 15 9 12 7 3 8 13 13 9 16 22 21 28 32 31 31 30 33 35 35 33 27 23 22 20 23 23 24 25 25 22 25 23 23 24 22
21 22 18 16 15 15 14 7 9 10 13 11 13 9 8 12 14 16 15 24 28 29 33 35 35 35 38 34 37 32 28 27 20 27 25 25 27 26 22 23 26 28 22 25
22 24 20 21 14 15 14 9 10 11 11 10 15 9 7 3 12 11 18 26 27 34 34 35 35 34 36 35 35 30 33 30 26 24 25 29 28 23 24 26 27 27 23 26
22 24 20 17 18 16 13 9 7 2 7 9 2 4 6 14 13 8 1 25 31 32 38 39 39 39 39 40 40 37 36 33 31 30 32 27 31 31 28 31 31 27 23 26
18 16 24 13 13 15 13 15 8 5 3 4 13 6 2 13 10 6 4 5 16 29 33 38 42 44 42 43 43 42 40 36 34 34 34 32 34 32 32 33 32 26 27 28
17 22 20 17 15 20 15 15 17 17 4 8 9 5 17 9 3 4 6 7 10 11 20 32 33 43 45 44 44 46 42 39 36 35 36 34 34 34 35 34 32 25 25 23
21 14 23 23 22 18 17 12 12 8 7 9 7 11 5 7 12 8 6 8 7 1 6 14 32 36 41 43 44 45 43 40 37 37 36 37 33 34 35 31 26 24 20 19
24 18 13 19 19 19 13 13 10 14 9 6 4 3 11 8 4 5 1 7 5 1 6 8 13 21 35 37 38 40 40 38 35 36 36 37 36 32 33 30 27 26 24 23
24 6 13 14 17 17 17 17 17 9 9 6 6 9 7 2 4 8 2 5 5 8 3 6 7 10 15 27 34 36 38 37 35 34 34 37 33 33 32 34 33 30 27 27
16 16 11 16 19 17 18 21 17 13 12 13 8 6 9 8 3 5 5 9 11 9 10 10 10 10 14 18 24 30 32 30 30 31 34 37 34 30 33 30 25 28 27 28
3 17 16 11 12 12 16 18 16 17 10 9 12 15 11 13 6 14 10 7 24 11 12 12 13 12 12 16 20 20 25 25 26 29 34 36 31 30 31 27 26 21 25 25
4 13 20 19 19 18 18 20 19 20 16 16 12 17 15 13 11 1 8 20 8 5 8 7 10 15 17 14 15 18 19 24 28 32 36 31 29 25 28 26 23 23 22 21
7 13 17 18 19 21 18 18 19 20 19 19 16 17 14 16 16 11 13 8 10 8 7 4 2 8 17 18 16 20 24 27 31 28 25 23 21 25 25 24 24 19 23 20
7 7 13 15 18 18 18 16 13 12 13 11 13 11 9 10 11 10 7 3 7 11 5 4 5 7 15 20 23 26 29 28 26 21 18 17 21 23 23 22 21 23 22 16
11 11 8 8 2 22 10 11 14 11 12 14 14 10 10 13 17 13 1 1 5 4 5 6 7 9 15 20 23 24 24 22 23 18 16 17 21 24 25 23 22 20 18 16
9 9 4 6 12 12 17 9 6 8 13 12 12 13 14 15 1 6 3 6 5 9 9 10 12 14 18 19 18 18 20 19 16 17 17 20 22 27 24 21 19 17 15 11
14 16 10 3 5 10 7 10 3 9 12 13 14 12 9 12 2 1 2 7 11 12 12 14 17 18 16 15 15 16 19 19 18 18 20 23 25 25 20 18 18 12 12 12
7 7 14 9 5 4 8 13 19 15 6 17 12 7 3 2 5 11 9 10 10 13 14 16 18 15 12 14 16 16 18 19 18 21 22 22 19 17 16 13 13 14 13 15
9 6 6 6 4 11 4 5 15 6 18 12 17 8 6 7 9 12 12 14 16 16 18 18 18 19 19 19 18 20 20 21 23 21 21 21 19 16 15 16 15 14 14 16
8 10 5 6 5 4 10 13 17 14 10 13 8 5 7 12 13 13 17 18 18 18 18 17 18 19 17 16 17 21 22 23 23 23 20 20 20 16 15 13 12 12 11 11
12 17 9 7 9 11 12 20 21 12 10 6 5 4 6 12 15 16 18 18 20 19 19 19 21 20 19 18 19 21 22 22 21 20 19 17 16 14 14 13 13 12 13 12
7 6 10 10 9 16 19 26 21 12 7 8 8 9 10 15 17 19 19 19 19 20 20 20 20 22 20 20 18 17 19 19 20 19 17 17 17 14 14 13 10 9 9 9
10 12 6 2 7 8 10 16 10 12 20 28 15 13 11 14 15 18 19 20 21 20 20 21 21 21 20 19 17 15 14 16 16 16 15 13 12 10 7 6 6 7 8 10

GFSCGP_850_spd_081.txt.gz
Wind_Speed
18 5 11 13 14 15 14 16 7 9 7 10 10 7 12 19 18 21 21 24 21 21 20 19 24 23 23 27 28 32 34 30 30 36 37 33 32 29 34 35 32 26 21 20
9 20 14 17 18 16 17 9 6 7 8 12 7 8 10 10 23 33 30 27 26 27 25 28 26 21 26 24 32 29 30 31 32 32 34 30 35 32 29 27 26 25 25 24
17 16 19 20 18 14 7 5 6 9 8 6 1 6 4 7 25 24 29 32 31 31 31 30 27 25 27 33 36 34 30 30 34 33 32 27 25 24 26 28 29 29 27 25
14 22 21 18 21 8 3 9 11 6 3 4 2 5 4 5 14 19 25 29 34 33 31 30 29 30 37 39 38 34 29 28 26 27 28 28 29 31 32 30 30 28 27 24
17 8 16 20 11 6 7 8 3 3 6 4 4 0 7 7 9 16 21 32 35 37 34 35 35 35 38 39 38 32 28 25 23 26 28 29 31 29 28 26 30 30 30 32
15 23 18 18 9 9 6 4 5 2 2 5 8 3 7 5 15 17 23 34 38 40 38 34 35 37 38 39 35 31 29 27 25 24 30 31 34 32 29 28 29 33 31 26
18 23 19 16 11 6 5 4 2 4 2 5 9 6 10 8 8 8 24 32 40 44 43 40 37 38 39 41 41 37 35 36 33 31 33 34 36 33 31 29 29 29 30 28
14 16 20 11 15 8 7 10 5 6 3 3 13 5 6 5 9 17 16 35 40 39 45 46 44 41 43 42 41 40 39 40 40 37 35 36 37 37 34 32 32 30 27 25
11 14 7 21 5 10 4 5 9 6 1 2 5 7 1 4 5 5 8 12 33 41 43 49 48 46 46 44 44 44 44 42 42 40 37 37 39 40 37 35 34 31 29 28
4 6 15 17 9 8 10 3 2 1 7 6 4 5 3 3 4 4 5 13 15 22 40 44 48 50 50 48 47 45 43 44 43 42 42 38 40 39 40 41 39 35 31 28
18 11 10 8 11 13 4 8 4 9 4 5 3 5 5 7 4 2 2 14 14 10 7 17 38 46 51 49 48 48 48 47 46 39 42 39 39 40 39 40 36 34 31 25
10 4 10 18 22 14 16 12 10 5 5 4 5 5 5 8 10 11 12 14 16 16 16 11 8 9 43 52 51 49 48 49 48 41 44 42 39 38 38 35 36 35 29 24
5 2 7 14 12 11 21 9 13 8 5 6 6 6 6 8 8 11 5 8 4 15 14 17 13 8 12 31 40 45 47 47 45 42 39 37 42 41 38 30 31 32 30 25
8 5 15 14 12 4 5 8 8 7 5 4 6 5 6 8 6 8 11 11 8 10 8 15 20 16 13 15 24 31 40 45 42 38 35 35 40 41 30 30 36 34 28 27
2 5 8 11 20 18 19 12 14 11 7 10 10 15 11 8 7 7 13 8 8 11 18 20 24 21 20 18 19 22 26 31 38 38 32 34 37 34 29 33 30 27 26 28
5 3 4 11 14 15 9 19 11 14 11 7 8 10 8 12 12 11 15 16 17 20 10 10 11 16 22 23 23 21 24 27 28 28 28 30 31 32 25 25 27 30 30 27
4 4 2 7 10 12 8 15 11 17 13 10 9 8 6 5 3 3 2 9 7 6 15 12 12 11 23 26 25 26 25 25 27 29 27 27 23 22 23 24 28 28 28 27
4 3 2 2 1 13 5 7 6 12 9 4 1 2 3 6 6 5 11 11 11 12 11 10 10 12 20 25 25 24 25 26 24 18 15 15 16 17 19 25 26 27 27 26
6 3 3 2 6 6 12 3 5 5 6 4 2 2 4 11 9 7 10 9 8 8 10 11 11 13 21 22 22 21 20 17 15 14 15 15 15 20 24 26 27 27 25 19
6 8 4 2 1 7 1 8 2 2 4 5 1 4 6 5 4 4 11 7 9 11 12 13 14 16 17 17 16 16 16 14 14 15 13 15 17 21 23 25 24 22 19 17
4 3 4 1 3 7 6 8 1 5 6 8 3 4 1 4 5 15 14 8 6 10 12 13 15 16 15 15 15 15 14 15 14 14 14 16 20 25 25 23 20 20 19 19
5 6 2 4 4 5 12 2 4 4 15 18 12 11 7 13 17 17 12 8 8 12 16 15 17 15 13 13 14 15 16 15 16 17 19 21 21 20 19 19 18 19 20 20
5 7 6 10 6 8 5 4 6 11 13 5 5 3 9 19 17 14 10 10 12 14 17 16 14 13 11 10 8 15 18 19 18 15 19 23 22 19 18 19 21 20 19 19
4 5 2 3 7 11 15 9 12 12 19 14 6 4 6 11 14 11 12 15 17 16 17 16 17 17 15 10 13 17 21 19 19 24 23 23 23 22 20 20 19 19 17 16
6 11 10 6 8 7 14 19 21 24 24 12 8 5 2 7 11 11 15 16 16 16 17 18 20 21 17 17 19 19 19 22 24 24 22 21 19 18 16 15 13 12 12 12
7 6 6 5 12 11 8 14 21 30 24 28 21 14 9 6 13 13 16 15 17 19 21 22 22 24 24 24 23 22 20 22 24 22 19 16 15 12 7 7 8 9 10 9

GFSCGP_850_spd_084.txt.gz
Wind_Speed
6 4 14 12 10 12 9 10 12 10 12 6 7 9 9 15 14 14 16 14 14 14 15 14 14 15 17 19 18 23 32 32 38 37 39 43 41 38 36 33 30 30 26 23
5 16 16 9 7 11 14 15 17 12 7 6 5 10 7 12 20 29 28 21 19 19 18 18 15 18 20 21 22 23 27 31 36 35 35 41 37 38 34 34 33 29 27 21
14 9 15 12 12 13 17 15 15 8 5 4 4 5 4 6 11 15 19 25 25 26 22 23 27 23 19 21 25 27 28 33 32 31 34 35 36 34 36 35 32 31 33 27
11 17 15 10 15 14 13 12 7 5 2 2 2 5 4 5 9 14 21 26 29 27 22 23 27 25 28 27 27 32 33 32 33 33 37 35 38 36 36 37 34 35 31 28
10 15 17 18 19 12 14 19 6 4 3 3 6 1 6 8 8 13 18 27 34 34 31 30 30 30 34 34 36 33 32 33 36 36 36 33 36 37 34 36 35 33 31 29
11 16 7 12 11 15 19 4 4 4 2 2 3 1 6 5 10 19 21 29 37 41 37 35 32 32 37 40 39 37 35 34 35 38 37 37 36 37 37 36 33 34 32 32
7 19 13 6 5 8 6 5 1 3 2 5 3 3 8 10 6 19 24 34 39 44 45 42 41 41 42 46 44 43 39 37 36 36 36 37 37 35 33 32 33 33 36 38
13 9 16 10 17 6 8 9 6 6 4 4 4 5 6 5 17 18 29 37 40 40 45 48 47 45 45 47 47 45 43 40 39 38 37 38 37 36 33 33 34 34 34 36
7 15 5 18 12 8 7 5 9 6 0 3 3 5 8 6 4 2 13 27 32 40 45 49 47 46 47 47 50 50 47 43 41 41 39 38 38 40 39 38 39 37 34 33
5 4 12 12 9 13 13 8 4 1 7 4 4 5 5 5 4 4 6 21 32 42 44 45 46 47 47 47 47 50 49 48 46 43 41 40 40 39 42 41 42 43 39 36
17 2 5 2 7 10 3 4 3 6 6 6 3 6 6 9 4 5 7 22 36 36 41 45 46 46 47 48 47 47 48 50 49 47 45 44 43 44 44 47 46 46 43 38
11 11 13 15 6 3 4 10 10 5 5 3 5 6 4 9 8 9 9 14 21 30 34 36 36 33 44 48 47 48 47 47 48 44 46 46 46 45 45 45 51 50 42 36
7 9 3 11 7 5 5 5 6 5 5 9 6 5 5 6 9 13 10 12 20 21 26 31 32 33 34 38 44 48 48 46 45 44 45 46 47 47 47 47 47 42 22 36
11 6 21 17 2 3 3 5 14 13 7 7 7 7 6 7 10 10 25 21 21 19 23 25 24 26 22 24 31 36 42 45 45 45 47 47 44 44 44 47 42 24 36 34
7 5 6 7 10 10 12 14 9 17 9 11 9 11 9 8 9 14 24 24 16 18 19 21 27 26 22 22 24 25 31 37 41 43 44 44 43 40 40 38 31 30 36 35
9 4 2 6 10 11 6 23 19 4 4 9 7 9 9 13 14 10 19 24 23 18 5 15 20 27 26 25 24 28 31 32 36 40 40 37 40 39 35 31 32 34 31 33
6 4 3 5 4 10 6 10 14 6 6 5 6 9 5 6 8 16 22 18 18 18 17 17 18 24 29 27 28 28 29 32 32 32 33 37 39 34 28 24 18 25 29 30
7 9 2 3 4 13 8 7 13 19 14 8 5 4 7 7 7 8 13 15 17 18 20 17 15 15 21 27 29 29 29 30 29 27 30 28 22 17 19 19 21 22 25 33
14 11 2 1 3 4 10 7 6 7 8 8 7 7 5 4 9 3 16 16 17 16 14 11 10 10 12 22 26 28 28 28 26 22 18 15 13 14 17 20 22 24 28 29
4 9 5 3 3 8 4 10 8 1 5 4 7 7 5 11 4 5 14 14 13 12 9 10 11 11 14 18 19 19 18 16 15 14 13 13 14 16 17 19 22 23 24 26
1 3 5 3 3 6 9 9 9 4 6 4 9 5 6 4 6 13 19 16 13 11 11 11 11 12 14 14 14 14 15 14 13 11 12 12 13 14 16 19 20 24 24 21
3 4 3 2 3 6 4 8 6 5 4 5 5 4 10 10 14 24 21 18 15 14 13 12 11 11 11 10 10 12 12 12 11 10 11 12 13 15 16 21 24 22 21 19
5 7 5 9 7 10 8 5 2 3 3 7 11 4 12 19 23 23 20 17 15 13 13 12 10 10 7 5 6 9 10 10 9 11 10 12 15 18 19 19 18 17 16 19
4 6 4 3 6 9 17 12 14 11 5 6 6 5 10 15 16 19 17 17 18 15 13 12 11 11 11 7 3 5 10 12 13 13 13 15 15 17 15 15 16 16 15 13
7 6 6 4 7 6 12 21 19 21 20 13 2 4 6 6 13 13 17 19 18 16 14 16 18 18 16 14 14 16 15 13 13 15 17 17 17 16 16 15 14 13 10 6
5 5 4 5 13 6 13 27 16 23 23 16 14 9 7 8 8 15 21 20 18 19 22 22 23 22 22 22 22 21 18 17 18 20 19 16 16 15 14 10 5 3 1 5

GFSCGP_850_spd_087.txt.gz
Wind_Speed
9 4 15 13 8 3 2 4 5 12 18 4 16 9 12 15 16 12 13 15 11 9 8 9 10 13 13 17 19 20 32 34 38 38 43 41 37 39 40 33 28 26 29 26
3 13 12 7 7 7 6 7 11 10 15 3 12 11 5 9 10 20 22 21 16 11 10 10 13 15 16 15 17 25 29 33 38 41 42 39 37 41 37 35 31 30 33 29
12 7 13 9 6 9 10 10 9 8 16 9 3 7 7 3 4 13 15 22 19 16 14 16 18 19 18 18 20 22 27 29 28 35 39 37 40 37 32 38 37 38 32 32
8 14 12 6 13 13 13 11 13 11 6 5 2 5 6 4 4 6 13 23 25 23 17 17 20 21 23 23 19 17 18 24 28 36 39 39 42 43 40 39 38 37 35 35
8 7 17 17 18 11 12 7 10 11 7 2 2 2 6 3 5 9 11 26 32 29 23 21 22 25 23 23 19 20 22 23 25 30 32 32 39 39 38 40 39 36 35 34
8 3 8 13 15 12 11 5 4 3 3 2 4 4 5 5 7 5 10 23 34 35 30 25 22 24 24 22 23 24 25 26 28 30 31 34 37 37 37 39 41 41 38 35
8 12 3 2 6 5 5 3 2 4 2 5 6 3 9 8 7 8 13 25 34 39 36 32 31 31 30 32 32 32 33 32 33 36 36 41 39 38 40 39 42 43 41 40
13 11 12 6 10 6 8 9 5 6 4 4 3 5 6 7 8 13 22 29 29 34 38 37 35 33 33 36 35 35 35 33 35 39 41 41 40 38 40 39 39 40 41 42
5 7 5 12 11 13 6 8 9 4 2 2 4 6 9 8 8 4 11 17 28 36 39 41 39 38 36 37 39 38 37 37 39 40 40 41 39 40 42 40 38 40 41 40
5 10 8 6 9 12 12 5 2 1 7 5 3 4 6 8 4 4 7 18 30 34 37 40 41 42 42 42 42 42 43 44 44 44 45 44 43 44 44 41 42 42 39 38
6 4 10 3 7 7 5 12 3 4 5 7 2 5 8 10 9 4 5 20 29 33 37 39 43 45 46 44 46 49 49 49 48 47 47 46 46 45 43 43 44 43 42 43
6 5 8 23 13 2 5 14 13 6 4 3 4 7 5 9 8 8 3 8 19 29 33 35 37 41 44 46 49 51 52 53 53 51 49 50 47 47 46 46 45 45 47 48
11 5 4 4 7 17 13 5 5 3 2 8 7 6 4 3 8 5 9 10 12 20 29 30 32 37 40 42 44 47 50 53 54 53 52 52 52 51 51 48 46 46 47 46
10 7 12 12 7 6 5 9 6 7 5 3 8 6 6 7 9 8 8 12 11 19 27 31 32 33 34 36 37 39 42 45 48 51 50 50 51 51 48 47 48 47 47 40
3 9 11 12 17 12 3 5 4 4 6 10 7 11 11 10 9 12 17 21 23 17 21 27 32 33 31 33 33 34 33 36 38 42 44 46 47 49 47 46 43 43 44 40
7 5 15 11 8 17 18 15 10 9 6 8 7 10 8 14 21 12 19 17 17 21 26 25 26 29 30 30 30 30 31 31 33 35 38 39 39 39 40 39 40 40 37 38
2 2 5 6 4 4 5 16 16 15 4 4 8 8 6 7 9 14 23 21 20 25 25 22 19 24 29 32 31 29 30 31 32 33 34 33 33 33 34 33 29 27 26 30
7 4 2 4 2 5 4 8 13 14 18 11 9 6 9 13 23 24 20 18 20 22 24 19 19 18 21 26 28 30 30 29 29 28 26 26 28 29 27 23 19 19 23 21
15 6 2 2 4 4 2 5 9 9 11 11 12 9 6 10 4 3 14 15 19 21 20 19 14 10 10 13 17 21 25 25 23 21 22 21 20 18 14 13 16 19 21 20
10 12 7 2 6 8 2 6 6 9 10 10 10 11 7 4 4 5 14 13 14 14 14 13 10 8 8 8 12 14 14 15 14 13 12 10 9 9 10 13 15 18 20 20
2 2 8 5 3 7 9 6 4 5 7 5 7 10 9 5 8 8 19 19 18 15 12 10 8 7 6 7 8 8 8 7 6 6 7 7 8 11 11 12 13 14 15 17
4 4 2 3 2 6 6 3 2 5 17 11 6 21 14 16 5 7 20 21 19 17 14 11 9 9 8 7 6 6 6 6 7 7 7 9 9 9 9 11 11 12 16 19
3 6 6 9 6 6 13 5 6 12 3 2 12 12 10 12 14 25 23 20 18 15 13 12 11 12 10 6 4 4 6 6 8 9 8 7 7 6 7 8 12 14 14 13
5 5 3 2 9 16 21 18 14 19 18 13 14 15 6 9 13 18 18 18 18 16 15 15 14 13 11 9 7 6 8 5 4 5 5 5 6 7 9 10 10 10 11 13
6 6 7 6 7 12 26 26 20 20 19 18 19 12 4 5 13 15 17 16 18 18 17 16 15 14 13 11 10 9 7 4 5 5 5 6 8 10 12 12 12 12 12 8
5 6 4 6 13 5 13 19 9 19 18 25 16 20 9 6 15 19 22 22 21 21 20 19 17 16 17 14 13 12 11 8 6 8 10 11 11 12 11 8 6 3 6 10

GFSCGP_850_spd_090.txt.gz
Wind_Speed
10 5 9 19 6 4 4 4 4 6 6 3 9 8 14 10 15 13 21 20 15 12 7 9 10 10 9 10 16 15 24 29 32 35 36 34 33 37 38 39 37 43 31 30
2 13 14 7 10 8 5 6 9 9 14 7 9 15 12 5 8 17 16 22 18 15 12 12 12 11 10 14 13 11 23 35 32 35 37 38 36 37 34 35 39 40 37 30
13 5 13 11 6 8 7 13 5 9 8 5 3 7 8 3 7 13 17 17 20 19 16 15 15 16 15 14 13 17 18 32 30 36 41 43 38 33 35 34 32 34 35 32
8 11 12 7 11 11 10 9 9 7 2 4 3 5 6 4 6 5 14 18 22 23 18 15 19 19 19 18 18 20 24 35 38 38 37 42 43 41 40 39 35 35 33 35
7 5 12 16 6 8 11 8 9 6 5 2 4 2 7 1 6 10 10 27 24 26 22 19 18 20 18 20 21 22 25 30 31 29 35 42 40 40 40 38 40 40 34 34
4 1 6 8 11 11 2 3 3 2 2 5 7 7 5 4 6 5 5 23 28 28 26 22 18 18 22 23 22 23 24 28 31 32 34 41 43 41 40 39 43 45 43 40
5 12 2 2 3 6 5 4 2 2 2 6 4 4 7 7 9 8 10 17 25 29 30 28 26 26 26 24 24 23 25 28 31 34 34 37 37 36 38 37 44 43 43 41
9 8 16 5 10 6 10 9 6 6 4 4 3 6 6 9 9 13 19 22 17 26 31 32 30 28 29 29 28 26 27 28 29 32 33 33 33 32 35 37 37 40 44 45
3 5 3 9 12 12 5 6 7 1 2 1 4 6 8 7 8 6 10 12 20 24 28 34 33 31 30 31 33 33 32 30 30 32 31 32 32 34 35 37 38 41 42 43
5 5 6 6 5 9 10 8 3 0 5 5 4 4 5 6 9 7 7 12 20 21 21 27 34 35 34 33 32 34 35 33 32 33 33 34 35 37 38 38 40 40 42 42
6 1 6 6 4 8 4 9 3 4 5 5 2 6 8 11 9 7 9 14 17 21 21 21 27 33 35 35 34 35 36 36 37 36 34 35 36 36 36 38 39 39 39 40
3 3 4 9 11 5 2 8 13 9 6 2 3 10 4 8 6 8 10 10 14 17 18 20 23 27 31 35 37 38 38 38 38 36 35 35 38 38 40 41 40 40 41 42
2 2 4 6 4 2 4 5 5 3 3 14 7 6 3 6 7 6 10 11 9 8 13 17 19 22 24 28 32 37 39 41 41 38 37 41 41 45 42 42 43 43 44 44
4 6 7 5 12 14 12 7 12 10 6 8 14 4 5 7 8 8 14 14 9 10 12 15 19 20 23 25 26 28 30 34 39 44 45 43 43 44 44 45 46 47 48 46
5 5 8 12 16 16 27 23 15 17 12 10 6 12 10 10 9 14 26 17 13 14 10 17 23 23 24 26 26 27 27 28 31 35 41 45 50 50 49 48 47 47 45 43
3 4 4 12 14 18 22 21 14 9 5 4 5 6 7 11 14 8 17 19 17 19 17 19 25 25 27 28 27 28 29 30 31 31 32 34 39 42 44 45 44 42 41 41
4 4 2 5 5 15 8 22 20 10 6 8 7 8 4 6 7 13 27 32 29 27 21 27 26 26 25 28 30 32 30 29 30 30 30 30 29 30 31 31 33 33 32 30
8 4 2 3 4 5 7 6 16 14 10 9 6 6 7 8 21 30 26 28 31 29 29 27 23 21 24 24 23 22 23 24 24 25 26 24 24 24 24 24 23 21 20 20
16 10 3 2 3 7 12 7 3 7 15 11 13 9 9 16 8 17 19 28 30 25 20 20 19 17 14 12 11 11 12 12 12 14 15 16 14 11 11 12 14 17 18 19
14 15 6 2 3 5 6 7 22 2 6 6 8 9 9 7 1 7 13 14 16 13 15 19 14 13 9 6 4 3 3 2 4 5 5 5 4 5 5 7 8 11 12 15
7 8 16 11 5 7 9 4 22 4 5 3 6 11 8 4 9 21 7 9 11 16 20 20 16 12 9 7 4 5 7 10 10 9 7 6 6 5 4 6 7 9 10 11
4 2 5 6 5 5 8 4 2 4 14 7 14 18 9 5 5 13 8 12 17 18 17 16 16 15 13 10 7 11 11 10 7 6 5 3 1 1 3 5 6 7 7 9
3 5 3 6 5 7 5 8 19 18 12 16 21 21 20 6 17 25 10 13 17 19 19 17 16 17 16 13 8 11 11 7 5 4 5 4 3 3 2 2 3 5 8 10
5 4 4 1 7 14 17 15 19 22 17 16 20 20 23 16 4 12 17 19 20 20 19 16 16 17 17 14 14 14 12 9 7 5 7 5 3 4 5 5 6 6 6 5
6 1 1 6 14 18 15 11 18 9 3 12 10 16 14 16 7 17 20 19 18 18 18 15 13 19 19 17 17 16 13 10 10 12 11 10 9 9 8 8 9 8 10 7
5 7 3 5 11 8 14 21 22 14 11 7 13 15 10 9 7 14 17 19 18 18 19 15 15 19 21 18 17 15 13 10 10 13 14 13 11 11 10 9 7 5 4 6

GFSCGP_850_spd_093.txt.gz
Wind_Speed
10 9 14 20 16 6 4 5 6 4 5 3 9 11 17 21 9 13 15 17 16 16 12 10 11 11 9 11 8 12 14 13 16 25 37 40 37 37 34 32 36 34 34 37
4 17 13 13 11 13 15 13 14 12 9 8 7 13 18 12 9 8 15 18 19 14 14 12 12 13 11 10 12 12 11 19 20 24 30 33 34 39 34 34 35 36 37 34
12 4 18 16 10 13 16 17 16 15 6 6 7 6 6 3 8 5 9 14 20 19 18 16 16 15 16 13 13 13 10 22 24 30 34 36 34 34 35 33 37 38 39 39
8 9 5 13 16 14 17 15 14 12 5 7 3 7 7 11 14 9 12 16 20 21 22 18 16 17 19 16 15 13 11 21 30 29 30 38 41 40 36 36 39 40 39 40
8 4 12 14 9 14 12 8 12 12 9 7 8 5 3 2 10 14 7 16 20 22 26 23 19 16 19 19 18 17 17 22 32 30 32 41 40 39 35 36 39 39 36 37
7 3 5 9 15 13 2 11 4 2 3 8 10 7 6 5 7 6 4 9 18 22 27 24 20 18 21 22 22 22 22 24 34 36 34 38 43 39 38 37 39 42 41 42
10 12 3 3 4 8 7 4 2 4 5 7 7 9 13 7 11 10 12 8 10 19 27 29 28 25 24 27 26 25 27 28 30 34 32 35 36 43 44 42 40 40 37 40
7 4 17 6 10 6 13 14 6 6 5 4 4 6 6 9 10 10 14 13 9 17 26 32 32 29 25 26 27 28 29 31 35 36 35 35 36 42 44 42 41 43 42 42
4 4 3 5 12 12 6 9 13 6 1 3 4 4 8 7 10 6 9 9 11 18 25 33 35 34 28 27 28 28 28 29 31 32 34 37 37 44 45 44 42 42 43 43
5 4 4 3 4 12 8 6 4 5 6 10 5 4 6 2 7 7 7 9 9 14 20 27 34 36 33 28 27 26 25 26 27 29 33 34 36 38 41 40 40 40 42 43
4 1 7 3 3 7 5 12 6 3 4 7 7 5 8 11 11 10 10 7 10 14 20 22 30 34 34 31 28 28 29 27 29 30 31 33 34 34 34 34 35 36 37 38
3 1 4 5 11 8 3 2 14 10 8 2 5 11 4 10 6 6 12 9 7 11 15 16 21 29 33 34 32 32 32 33 33 32 32 33 32 32 33 34 33 33 35 36
9 1 3 4 2 5 3 5 10 7 4 17 9 4 4 3 5 7 8 10 8 8 12 15 17 22 26 31 31 32 34 35 35 35 34 34 35 35 35 36 35 35 35 34
5 5 7 6 2 2 7 14 15 8 9 10 18 15 5 8 9 10 14 15 11 9 9 13 17 19 22 23 23 23 26 30 34 36 37 38 38 39 39 39 38 36 36 37
7 6 10 13 13 18 14 17 21 20 19 13 10 16 16 15 13 15 18 17 13 12 14 12 18 18 20 21 20 19 20 22 24 30 35 39 38 39 39 38 35 34 34 35
6 2 5 10 14 17 17 22 22 24 21 22 21 20 10 17 14 13 18 15 17 19 22 18 17 19 20 20 20 20 22 23 23 23 25 27 30 34 37 36 36 35 34 34
3 2 4 4 8 11 12 11 15 15 19 18 16 14 6 7 8 12 15 17 20 25 28 21 22 23 24 24 22 22 23 20 19 20 19 20 20 20 22 23 24 24 23 21
7 6 2 5 6 8 4 6 9 13 20 19 17 8 9 10 13 14 18 21 27 27 29 32 28 23 22 22 22 20 19 18 17 17 16 15 14 15 15 14 15 15 16 17
18 9 4 4 6 11 12 2 3 6 23 16 18 15 13 17 10 18 25 19 24 26 23 19 20 21 20 17 14 11 10 10 10 10 11 10 10 10 10 11 12 13 15 18
12 14 7 4 5 6 1 4 4 5 12 14 8 10 14 14 10 11 7 8 11 14 11 14 14 18 17 16 15 14 13 11 10 9 8 8 8 9 10 11 11 11 10 8
5 6 13 11 8 7 8 1 2 3 5 22 14 18 15 8 9 8 5 6 5 3 13 20 23 24 24 21 19 20 20 19 16 14 12 10 10 9 8 6 4 1 3 4
4 6 5 8 6 10 3 2 3 6 20 22 17 14 17 7 9 14 14 18 14 15 19 22 27 28 25 21 19 26 25 20 17 16 16 14 11 9 8 5 4 2 2 3
5 7 3 6 5 11 23 13 21 19 15 24 12 9 15 11 6 18 19 17 17 19 23 26 32 34 31 28 20 25 25 19 15 15 15 13 11 9 7 5 6 6 6 5
5 4 5 3 2 10 24 31 21 20 21 7 8 4 17 13 13 17 20 19 20 23 24 25 27 32 31 27 24 25 21 19 14 13 14 14 11 13 12 12 10 10 11 10
7 2 2 6 9 9 7 14 27 33 18 9 3 1 7 11 14 15 22 22 25 25 25 24 25 28 30 26 25 20 17 16 18 19 18 17 15 16 15 15 16 14 14 10
5 11 5 7 13 12 17 22 27 21 11 5 5 7 12 8 16 16 20 23 26 26 25 27 29 29 28 25 23 20 19 17 18 20 20 18 16 15 15 14 14 12 11 9

GFSCGP_850_spd_096.txt.gz
Wind_Speed
19 13 18 22 21 22 15 14 15 12 2 7 13 17 16 18 13 14 13 14 15 14 10 10 8 7 10 10 9 11 6 7 8 10 27 35 44 49 45 52 46 38 44 47
9 20 20 19 22 22 21 19 17 16 14 11 17 17 14 16 16 12 11 14 15 13 13 12 10 8 14 12 11 11 9 10 16 11 24 36 37 37 38 39 35 31 41 45
18 9 12 20 22 19 21 22 18 19 14 13 19 20 20 17 12 10 11 13 13 16 16 16 14 11 15 15 13 15 13 14 17 18 26 29 29 30 33 33 34 34 34 42
13 18 14 16 21 21 21 18 20 17 15 11 3 12 14 11 16 17 18 15 15 15 16 17 17 14 15 18 13 14 14 15 20 23 28 30 32 35 36 33 34 38 38 34
9 10 16 19 19 17 17 15 17 16 16 16 19 10 11 10 12 12 13 15 16 16 19 19 18 15 14 18 18 17 14 16 22 25 26 30 34 39 37 34 35 39 37 41
18 13 8 14 14 16 7 13 10 8 9 13 17 13 10 13 11 6 4 2 12 16 19 19 18 17 16 17 17 18 18 17 22 24 24 27 35 42 38 39 33 36 39 40
16 22 15 13 7 10 14 9 6 8 7 8 7 12 16 7 10 11 11 10 9 15 21 22 23 21 20 20 20 20 20 20 24 27 26 29 31 37 40 36 33 31 39 40
5 5 23 18 20 10 20 17 7 9 10 7 9 8 11 9 11 11 8 6 8 15 21 25 25 23 22 22 22 21 22 24 25 28 26 28 26 35 33 29 30 38 39 40
4 5 2 17 19 18 13 16 19 18 14 7 7 7 8 9 10 10 12 5 10 15 20 25 26 24 23 23 24 24 23 24 26 28 31 31 27 35 35 27 29 33 31 33
5 6 2 2 9 18 19 4 8 11 9 15 12 13 7 9 11 9 8 12 7 14 20 25 27 27 24 23 23 24 24 25 25 27 30 33 31 32 29 30 31 32 29 28
6 3 3 6 7 8 13 16 13 9 12 11 11 9 9 13 11 9 8 7 5 12 19 23 26 26 25 24 25 27 28 27 27 27 28 29 29 30 33 33 36 37 37 34
5 4 6 10 10 9 9 8 18 13 17 10 13 13 1 12 9 6 11 6 2 6 15 18 22 25 27 27 27 28 31 32 30 28 28 29 28 30 32 36 35 36 37 37
7 4 5 5 5 2 4 2 1 6 8 19 14 3 3 8 11 13 11 7 2 5 10 15 20 24 27 28 27 28 28 31 29 28 29 29 30 31 32 34 36 31 32 31
7 7 9 10 7 6 6 6 9 4 5 12 16 17 18 18 15 13 19 14 12 4 9 13 17 21 23 26 27 27 27 27 28 29 29 29 29 29 28 29 30 31 30 30
6 12 12 14 19 18 17 18 17 16 14 14 15 19 13 14 19 19 19 15 11 11 9 11 16 20 21 22 23 25 24 26 28 29 29 28 28 27 27 27 28 28 28 29
1 7 6 14 16 18 20 21 21 21 19 21 22 27 20 23 23 26 25 27 24 16 15 12 13 17 20 22 22 23 23 23 24 25 24 23 23 24 25 25 25 26 27 28
4 4 6 11 5 12 15 22 22 22 20 17 19 20 18 20 22 24 21 20 21 20 19 16 15 16 17 19 20 20 21 21 21 20 19 19 19 20 21 20 20 21 23 21
9 8 4 6 9 9 7 3 14 18 15 10 14 18 21 17 25 27 24 18 14 13 15 16 20 17 17 15 17 17 18 18 18 16 15 14 14 13 12 13 14 16 20 20
19 14 4 4 9 16 18 8 10 12 10 5 11 11 14 25 24 25 22 17 14 13 11 9 11 13 19 16 17 16 17 16 18 19 17 15 15 15 15 15 16 17 17 17
17 16 10 8 7 5 4 12 6 8 13 8 10 13 14 15 14 14 16 8 8 5 2 3 9 12 14 16 19 21 23 23 21 18 17 16 14 13 13 13 12 11 9 9
5 7 16 13 11 8 15 13 12 8 6 19 21 21 21 13 15 5 5 7 5 5 5 9 13 17 21 21 25 28 28 28 26 24 22 20 18 16 14 13 11 9 8 7
7 6 5 6 7 13 7 6 6 12 25 24 22 24 26 20 5 3 6 9 12 16 18 20 24 27 27 26 29 33 32 30 28 25 24 23 21 18 14 10 9 8 6 6
11 10 4 7 5 13 14 5 19 23 24 25 18 30 20 8 2 8 13 18 21 25 30 30 34 33 31 33 30 33 33 29 28 26 23 21 18 16 14 12 12 11 9 9
10 7 6 5 7 13 3 19 25 17 23 19 20 23 12 4 7 11 11 19 25 25 28 28 29 31 34 31 31 33 30 28 26 26 23 22 20 20 18 16 14 14 13 12
9 4 7 9 11 14 13 13 17 22 20 15 11 15 7 8 14 17 14 13 26 31 28 32 34 34 33 30 30 28 26 25 28 28 26 24 22 21 19 19 18 15 14 11
14 13 10 11 14 15 15 19 19 22 19 17 11 2 6 7 13 19 22 19 21 33 29 31 31 33 32 30 29 28 27 26 26 27 25 24 23 21 19 18 17 14 11 8

GFSCGP_850_spd_099.txt.gz
Wind_Speed
18 13 19 23 22 23 24 26 24 17 13 11 15 18 18 17 22 19 19 17 15 12 11 12 13 11 11 13 12 12 12 11 7 11 14 18 30 36 50 55 53 51 48 49
11 22 17 22 24 25 26 28 26 20 21 15 17 19 21 20 19 23 23 18 15 14 12 14 13 12 13 14 14 15 13 10 9 9 14 12 20 42 49 50 54 47 51 48
22 20 15 19 21 23 25 26 23 24 21 23 16 22 22 22 26 27 27 17 18 13 16 17 16 15 14 16 17 18 16 14 12 11 16 20 33 42 46 45 46 48 53 51
23 22 24 13 16 21 23 20 21 23 20 17 18 19 18 14 14 18 19 23 21 17 14 18 19 17 16 16 16 15 17 16 15 14 21 21 19 35 40 46 42 45 43 44
20 15 19 24 22 17 21 17 17 19 19 19 23 15 14 16 16 19 14 20 21 16 15 19 20 17 17 17 16 16 17 15 19 22 22 25 22 19 22 24 28 33 38 44
24 21 13 13 17 20 17 14 17 17 15 17 20 19 16 16 15 13 10 6 7 14 16 19 19 17 17 19 18 18 17 15 20 24 27 29 27 26 28 30 36 38 35 43
19 24 24 19 15 13 14 15 11 12 12 14 17 16 16 11 15 6 6 7 13 13 17 21 22 20 19 20 20 20 18 16 21 23 25 25 27 26 32 30 34 36 39 37
14 12 19 24 24 17 17 18 11 14 11 11 16 11 15 15 18 19 13 7 10 13 17 23 24 22 20 21 20 20 21 18 23 23 18 21 23 27 32 34 31 31 35 38
6 11 3 13 22 19 19 19 22 21 18 12 7 10 15 4 8 8 8 13 13 14 16 22 25 23 22 22 23 21 21 19 22 27 22 22 22 24 34 36 31 29 28 33
1 8 6 3 11 18 21 14 15 14 17 20 17 18 9 11 10 12 11 9 14 14 17 21 26 25 23 22 21 21 21 22 22 24 25 22 24 23 23 27 28 26 27 29
13 9 9 3 10 13 13 18 16 13 15 15 12 10 10 8 10 5 9 10 10 8 16 21 26 26 24 22 22 22 21 22 23 24 24 25 25 23 25 27 27 29 27 28
9 6 11 14 12 7 12 17 22 11 16 12 14 14 3 4 3 2 10 7 2 7 12 20 25 27 26 25 24 24 24 23 23 22 24 24 25 25 26 27 31 29 30 29
7 8 10 14 16 16 10 13 12 13 15 20 13 9 11 19 10 7 9 17 5 1 8 17 23 27 27 27 25 25 24 25 23 23 23 23 24 24 26 26 28 28 29 28
6 10 13 13 8 7 6 10 8 10 10 13 16 19 18 14 12 12 11 15 20 5 7 14 19 24 26 27 26 26 25 26 26 25 25 25 24 25 24 24 25 28 27 27
12 15 16 17 23 17 15 17 15 16 16 15 15 16 15 14 12 14 21 20 22 10 7 11 17 21 24 26 25 25 25 24 26 26 26 26 24 23 23 23 23 23 25 25
16 15 16 19 19 20 22 23 22 22 20 20 19 21 17 21 27 31 25 22 21 22 16 12 14 19 21 22 23 24 25 26 25 26 26 24 23 22 23 22 22 21 21 21
3 8 11 14 16 20 20 23 24 25 23 20 20 19 16 16 19 23 34 30 27 22 21 18 14 15 18 20 20 22 23 24 24 24 23 23 22 22 21 19 19 19 18 17
9 11 5 7 9 12 14 14 12 14 17 20 22 22 15 19 27 32 30 30 30 23 16 14 12 8 12 15 18 19 20 21 22 22 21 20 20 19 18 19 23 24 24 25
18 14 6 7 9 15 17 12 13 10 11 8 8 7 13 22 20 26 25 27 29 10 5 7 6 7 12 14 17 19 20 20 19 18 18 18 19 25 27 25 25 23 22 22
20 17 11 6 9 10 8 10 14 15 10 14 14 11 13 15 10 9 18 15 1 1 1 4 3 7 8 11 15 19 21 26 31 32 28 28 28 26 24 21 20 20 18 17
15 12 15 13 9 8 14 16 14 9 4 19 21 18 15 11 12 31 13 10 4 2 4 5 8 12 16 21 27 33 31 31 30 29 24 22 23 22 21 20 19 17 16 16
7 9 7 10 5 9 4 8 5 9 15 19 25 25 15 16 24 12 9 6 1 4 6 7 10 14 15 15 20 26 30 29 30 30 27 26 27 27 25 23 23 20 19 18
5 8 4 7 4 3 11 5 3 9 17 25 27 30 12 21 25 2 1 0 3 6 11 15 21 24 25 25 28 35 35 34 35 37 33 29 30 29 26 22 22 21 18 16
9 7 4 6 6 6 11 3 4 14 23 26 26 26 15 23 15 5 5 4 5 8 14 19 23 26 30 32 34 37 37 35 36 39 34 28 28 27 26 25 23 21 17 16
6 6 8 9 8 11 5 4 6 14 19 22 16 25 19 22 10 7 9 10 11 12 17 24 28 32 35 34 35 32 33 32 33 35 31 27 27 26 29 27 22 18 17 14
13 11 9 7 11 10 13 14 13 17 18 13 13 12 5 4 3 7 11 13 15 18 20 29 33 35 33 31 31 29 27 28 30 32 29 26 26 25 23 23 24 20 15 10

GFSCGP_850_spd_102.txt.gz
Wind_Speed
16 10 16 20 21 24 22 24 19 23 29 27 24 22 16 18 20 17 18 20 18 17 15 22 20 18 17 14 15 15 16 16 14 13 11 14 22 31 34 41 44 45 45 45
15 19 17 19 22 20 23 21 23 23 26 26 29 23 17 16 18 19 20 21 21 16 22 23 23 18 19 13 14 16 17 14 13 9 11 14 17 27 40 41 45 49 49 47
20 21 18 20 20 19 20 23 19 22 25 31 29 25 22 18 19 24 27 23 22 13 21 25 25 21 21 16 18 19 18 15 10 10 7 11 12 17 32 42 49 55 55 51
19 18 20 21 19 17 20 19 21 20 18 16 23 18 20 15 21 22 28 27 26 16 15 27 26 23 22 18 20 18 21 16 13 9 7 4 14 20 31 42 44 54 55 52
20 16 21 23 23 21 20 14 16 20 20 18 25 15 15 18 14 14 13 18 23 26 25 30 28 24 21 20 20 19 18 18 16 13 12 13 22 26 29 33 48 51 50 53
22 25 21 16 16 17 19 13 19 17 15 16 19 19 17 15 17 19 17 21 19 20 22 26 25 23 22 22 19 22 21 19 18 18 17 20 14 25 28 31 37 41 47 47
19 22 22 21 19 14 16 11 10 12 13 15 18 19 14 16 19 18 14 8 9 4 19 23 27 27 25 26 24 22 22 21 20 23 22 22 21 21 23 24 28 35 39 42
14 17 15 19 24 19 19 15 8 10 11 7 18 8 15 19 16 14 7 6 12 18 18 24 29 29 27 28 26 25 25 21 22 27 26 22 22 21 20 24 26 30 34 39
11 18 5 2 9 19 22 18 19 18 18 12 9 20 21 8 1 8 11 10 9 16 24 24 28 29 28 26 24 25 24 22 22 28 26 26 25 23 23 26 27 34 37 40
9 11 15 12 6 11 22 14 11 10 10 10 12 16 8 8 10 4 12 8 17 19 23 24 27 30 28 25 24 24 23 20 24 26 27 25 25 21 22 28 28 29 32 37
11 7 15 18 10 11 12 16 15 14 15 12 9 8 7 6 18 7 8 13 9 15 24 25 27 31 28 27 28 24 24 25 22 30 28 25 23 22 21 29 31 26 26 29
12 8 13 20 11 21 7 13 18 11 15 10 13 15 12 12 15 7 7 14 14 10 1 23 26 32 31 30 30 29 29 28 25 26 31 28 27 24 23 21 28 30 29 29
5 7 11 18 18 17 14 14 11 17 14 19 12 8 12 3 17 13 3 11 20 7 5 9 27 31 32 31 31 29 31 31 29 27 25 29 31 29 27 28 26 27 29 26
1 12 15 12 8 5 10 18 19 14 5 12 15 18 16 8 10 14 12 9 15 16 13 10 16 27 30 30 31 29 29 30 29 27 29 29 30 32 30 28 32 31 28 28
9 16 18 23 26 18 18 15 18 20 16 10 13 15 13 8 7 14 21 19 17 16 14 14 17 22 28 29 29 28 28 31 30 30 28 27 25 26 27 27 26 27 29 29
14 16 19 23 23 24 22 22 18 22 22 19 17 17 14 14 19 16 17 17 21 23 24 25 8 19 24 29 31 29 29 28 33 30 30 28 27 26 27 26 25 25 24 25
9 12 16 18 20 23 22 20 20 21 21 18 17 15 16 18 15 13 18 21 21 20 29 32 13 13 23 26 29 30 30 27 24 31 28 27 27 27 26 25 24 23 23 27
11 9 7 7 12 14 17 16 19 19 18 18 18 19 20 18 22 17 24 22 27 22 25 26 14 10 9 24 26 26 28 27 25 23 26 25 25 24 22 25 30 28 28 28
18 14 4 5 8 14 14 8 7 6 2 16 15 16 18 17 15 9 22 31 29 22 9 1 4 7 7 8 20 22 25 25 25 23 22 22 24 31 32 30 29 29 30 28
19 15 10 6 10 12 10 7 9 7 7 12 11 12 17 15 7 7 31 24 22 20 17 11 4 5 8 8 15 19 22 24 28 32 35 36 35 33 31 29 27 26 25 25
16 12 14 12 6 7 13 9 7 6 3 16 14 14 18 15 13 20 24 15 14 15 12 9 5 10 13 16 19 30 32 37 33 30 31 31 30 29 25 25 24 24 24 24
11 10 8 8 7 11 5 11 5 4 8 8 14 17 23 22 20 19 18 12 14 12 10 3 4 5 9 12 18 25 27 27 29 29 29 30 29 28 25 23 24 24 24 26
3 7 3 6 4 3 10 5 3 3 7 10 14 19 22 22 19 17 15 19 15 8 8 7 6 6 8 11 14 23 26 28 31 31 29 28 30 30 31 31 29 29 25 23
6 4 4 9 15 4 10 7 3 5 8 14 16 21 21 23 15 22 7 7 7 4 3 5 7 8 10 14 20 22 28 31 33 32 37 38 39 38 37 38 30 27 23 20
8 8 6 5 11 10 8 14 11 7 12 18 15 11 19 16 5 6 4 1 1 4 6 8 11 16 20 22 27 29 31 35 40 40 39 37 35 33 31 33 28 24 21 15
11 9 5 5 6 4 11 13 12 9 14 5 7 10 7 8 3 2 3 4 5 9 17 21 21 23 25 26 28 30 31 34 38 39 37 36 34 34 30 30 31 23 19 15

GFSCGP_850_spd_108.txt.gz
Wind_Speed
4 4 7 20 10 13 4 5 12 8 14 4 11 12 12 10 19 21 30 29 31 34 34 32 39 37 32 27 25 20 18 17 19 19 19 18 17 24 34 37 45 45 46 47
5 13 17 5 9 10 10 13 17 14 13 8 14 16 18 8 12 24 32 32 28 31 20 29 42 39 34 30 25 22 19 19 20 20 20 22 22 23 32 40 44 45 46 47
12 8 8 11 10 10 14 12 12 16 7 6 5 16 10 10 12 24 32 31 35 29 25 36 44 42 36 31 27 23 21 21 21 21 22 24 25 27 30 37 44 48 51 48
11 16 17 13 11 12 19 6 13 10 6 12 7 14 15 14 16 12 22 27 30 17 26 36 47 43 37 33 27 22 22 22 21 22 25 25 28 33 32 35 44 52 49 51
8 3 8 14 17 11 18 8 12 12 6 1 4 3 19 5 18 18 14 25 32 29 22 38 51 48 41 33 28 24 24 23 22 23 22 22 24 27 35 39 38 53 54 54
8 7 4 6 7 5 4 5 3 2 2 8 5 6 21 5 10 14 17 28 30 31 24 38 45 48 40 33 28 25 25 24 24 22 22 21 19 17 25 27 46 34 58 59
8 10 5 6 7 11 6 4 3 3 2 13 5 8 17 9 15 12 17 26 34 36 27 36 44 47 40 36 31 28 26 25 25 22 21 19 14 14 15 17 29 44 40 55
5 8 5 1 6 7 8 9 7 5 8 12 4 6 6 4 7 14 19 32 34 35 27 44 49 50 43 37 33 30 27 25 25 24 23 18 15 10 14 13 24 29 42 53
3 6 3 2 2 3 5 5 11 6 3 5 5 14 11 18 7 12 16 26 38 14 24 42 46 45 42 38 34 30 27 25 23 24 25 24 18 12 9 12 24 23 34 38
3 2 4 4 5 4 3 4 1 0 4 12 5 6 8 5 11 14 14 22 40 19 12 23 42 45 41 36 32 29 26 24 23 24 26 24 23 17 12 10 17 21 28 39
4 2 5 3 4 6 6 5 5 3 4 7 5 5 5 6 5 11 17 27 25 28 25 20 27 43 38 33 31 28 27 26 24 26 27 26 25 23 18 14 13 16 25 34
3 3 3 5 7 2 1 2 4 2 6 4 5 11 7 5 6 10 14 33 27 20 26 11 22 23 38 33 32 29 28 28 24 24 27 30 26 26 23 20 18 18 18 22
4 3 3 6 3 8 7 2 5 4 1 3 4 6 11 8 5 13 8 26 30 28 27 22 17 27 34 35 33 30 29 30 25 23 27 29 30 28 26 23 23 22 21 22
2 2 5 5 2 3 7 12 9 2 2 4 7 12 17 16 3 4 13 32 21 31 30 15 9 19 30 29 34 31 30 30 27 26 28 29 29 28 26 23 24 23 23 22
3 6 5 6 6 6 11 15 14 13 12 7 9 15 16 11 6 6 8 21 28 21 13 19 9 16 23 27 30 31 30 30 29 28 29 29 28 27 25 23 24 24 24 21
4 3 3 5 5 10 16 16 14 18 17 16 17 18 9 13 17 8 2 4 13 12 18 19 1 8 18 17 27 31 30 31 31 30 28 30 29 29 27 24 22 23 24 23
2 2 3 9 6 9 12 15 14 17 16 10 15 10 3 5 6 11 10 10 11 14 19 23 24 12 12 11 13 30 32 31 32 32 29 28 28 26 29 25 22 23 27 31
4 3 2 4 2 10 7 6 13 17 15 9 3 5 5 5 13 17 12 14 15 19 22 23 25 25 14 16 20 24 27 30 31 33 32 28 27 28 28 29 31 29 29 29
13 7 1 3 4 12 18 9 2 5 7 7 4 3 5 13 15 9 13 20 20 19 20 22 21 21 23 3 17 13 22 23 27 30 31 28 26 31 34 36 34 34 34 32
11 12 6 2 3 5 4 5 7 12 3 1 2 2 3 8 3 3 12 16 16 17 18 21 22 18 15 3 18 22 24 17 32 34 33 33 34 32 33 34 35 35 33 33
3 7 14 9 3 7 10 9 17 2 2 3 4 4 5 1 2 14 12 14 15 15 16 17 19 17 14 8 6 24 24 26 34 34 32 33 33 34 33 33 35 35 34 34
4 6 5 5 4 9 6 9 2 4 2 2 0 6 12 11 13 8 11 15 17 18 17 15 16 16 12 8 1 12 19 23 25 29 33 33 33 36 37 37 36 36 36 35
5 2 2 6 5 3 6 3 2 4 2 3 5 9 7 10 10 9 8 12 17 18 17 15 14 12 9 6 4 9 16 18 21 26 29 33 35 37 37 37 38 38 39 38
3 4 2 1 4 7 10 5 2 6 9 5 7 2 6 7 9 11 12 14 16 15 15 12 8 7 6 4 4 9 13 15 18 23 28 32 36 38 39 41 40 42 42 42
3 6 4 3 4 10 12 2 15 15 15 9 4 2 2 6 10 9 9 11 11 10 9 8 5 6 7 7 9 10 12 18 25 29 31 34 36 37 38 37 37 38 33 32
3 2 3 3 11 8 15 15 16 14 11 4 7 2 6 6 10 10 9 9 7 4 3 1 5 6 7 8 11 13 15 19 27 30 32 35 36 36 37 38 37 31 32 30

GFSCGP_850_spd_111.txt.gz
Wind_Speed
3 3 7 11 15 8 2 4 7 2 4 5 16 17 14 15 19 16 26 31 37 37 45 35 33 26 37 41 38 33 26 22 19 20 22 19 17 14 13 11 28 34 46 39
3 12 8 8 4 6 6 8 13 9 10 6 11 20 17 7 9 19 22 31 35 38 38 31 33 31 34 42 39 33 26 22 20 20 22 20 17 17 18 20 31 38 40 42
11 7 5 12 5 6 7 9 4 12 6 5 8 19 12 7 7 16 24 31 34 38 31 30 30 31 38 45 42 34 27 22 21 23 23 21 19 20 23 25 37 38 40 37
11 9 13 6 8 9 13 8 13 11 3 9 6 15 20 6 9 6 15 27 32 31 17 20 25 31 39 47 39 32 26 23 23 27 26 23 25 25 30 31 33 40 40 42
8 3 8 14 11 10 11 8 9 11 8 2 5 2 16 8 16 13 10 21 25 19 17 20 23 29 41 46 41 34 27 25 27 30 28 26 27 26 27 30 36 43 42 44
6 2 4 6 5 7 3 2 3 1 1 6 6 6 23 4 9 7 10 26 24 25 25 25 27 29 39 46 40 34 29 27 30 29 29 28 28 29 30 28 35 42 45 47
0 7 4 5 4 4 4 5 2 3 2 11 5 4 15 8 9 8 8 19 24 30 36 26 31 33 39 49 43 36 31 31 31 31 29 26 24 25 28 34 37 35 44 44
5 4 7 4 6 6 5 8 5 6 5 7 4 6 5 4 3 12 15 15 26 38 40 43 29 36 41 49 46 39 33 33 32 30 28 25 23 21 20 25 32 36 45 39
2 4 3 4 2 2 2 4 4 4 4 3 5 7 6 4 7 7 12 20 23 34 38 42 21 34 39 49 47 42 35 33 31 30 26 25 21 18 17 18 20 21 30 38
1 5 0 3 2 4 4 3 2 3 3 6 5 3 5 7 5 8 12 15 25 41 48 41 19 23 33 44 45 40 33 30 30 28 25 24 22 18 13 12 13 21 22 28
3 2 2 2 4 0 4 3 4 1 1 3 4 5 2 2 1 7 10 19 30 43 44 41 33 22 28 37 40 37 33 30 28 27 25 25 23 20 14 11 9 14 23 27
5 1 3 2 4 1 4 4 3 3 4 2 3 5 5 12 2 3 2 12 27 38 46 41 43 22 23 26 31 32 33 30 28 25 25 25 23 23 17 13 9 7 12 18
4 1 2 2 4 7 5 2 4 4 4 5 5 5 14 15 8 2 7 10 14 26 42 40 34 17 17 22 29 29 32 32 29 26 26 26 25 24 21 16 12 12 10 14
5 3 4 3 2 2 2 1 4 0 1 3 5 15 15 18 12 3 2 9 11 24 41 26 14 6 10 15 26 30 32 33 32 27 26 28 29 24 22 19 15 15 15 15
3 3 1 3 5 3 4 7 3 6 9 6 12 16 17 19 9 8 13 4 11 23 20 27 16 6 8 13 21 26 29 32 32 29 26 27 29 26 23 20 17 17 16 15
4 2 2 4 4 4 8 10 11 11 13 13 17 21 17 19 13 13 6 6 12 17 22 20 22 14 9 6 17 20 27 29 30 29 25 25 27 25 23 21 19 20 19 17
2 3 2 4 1 5 9 10 10 7 10 9 14 16 6 6 9 3 10 6 5 9 17 21 25 24 13 17 14 17 20 27 26 28 25 22 24 24 23 22 20 21 22 22
6 4 3 3 1 6 5 8 9 12 15 15 16 12 3 2 4 13 12 6 9 9 13 15 19 19 17 14 17 22 22 29 25 24 24 24 20 21 22 23 24 24 24 24
10 3 1 2 5 10 13 8 2 6 10 12 8 5 1 2 8 2 10 7 9 9 12 13 17 18 18 14 10 19 24 25 22 9 17 23 22 24 24 26 26 25 24 24
9 9 7 3 3 5 4 4 4 3 10 3 1 1 0 3 3 2 8 7 8 10 12 15 15 16 16 9 3 14 24 27 25 15 10 18 26 27 27 26 27 25 24 25
3 3 13 9 3 7 7 7 9 1 5 12 1 1 3 2 2 5 5 6 10 12 12 12 13 16 16 12 2 12 24 26 25 23 20 16 24 26 27 27 28 26 27 27
3 2 2 4 3 7 2 7 1 2 18 10 1 1 3 3 1 1 5 8 12 16 16 13 12 12 14 12 4 6 15 18 19 21 25 20 23 25 28 30 32 32 33 33
3 3 1 5 5 3 11 6 6 6 13 6 4 4 1 2 1 3 8 9 11 15 14 13 11 9 8 8 5 5 10 12 16 21 21 22 25 27 28 31 32 34 35 35
3 4 1 2 2 9 15 16 7 8 9 15 8 1 3 3 1 4 8 9 11 12 15 12 8 6 5 4 3 1 8 12 16 21 25 30 31 33 33 34 35 34 32 34
3 6 7 2 3 11 8 16 20 25 23 16 10 3 5 1 2 4 6 8 10 9 8 9 7 5 4 4 3 4 4 8 17 22 24 27 30 31 32 32 33 34 33 35
2 5 3 3 8 8 15 25 21 8 7 7 3 4 7 5 4 5 5 6 8 8 7 7 8 7 4 2 3 6 7 10 15 19 23 25 28 28 29 30 30 22 24 27

GFSCGP_850_spd_117.txt.gz
Wind_Speed
6 7 15 15 17 13 9 8 8 3 3 6 16 19 14 17 13 17 19 18 16 17 20 23 25 25 25 25 23 25 25 28 30 37 38 34 33 28 26 27 27 29 30 33
5 16 10 12 12 14 15 17 17 8 11 7 13 18 11 14 11 15 13 12 15 16 18 22 27 27 27 23 23 20 21 26 29 37 37 33 27 26 24 26 26 26 28 31
16 8 6 13 10 14 16 18 15 13 2 6 8 13 6 3 5 4 9 12 12 10 16 23 29 27 26 24 20 16 19 24 31 36 33 29 24 21 22 24 24 24 24 22
12 13 14 10 14 13 17 12 16 12 5 6 2 7 3 3 5 4 6 5 7 12 18 23 27 27 27 23 21 16 17 22 33 35 32 28 24 23 26 24 22 17 20 19
7 4 8 17 24 15 13 8 14 12 11 2 7 5 4 4 2 1 3 7 7 10 17 23 30 27 28 21 18 15 15 23 35 35 30 26 21 20 22 20 20 17 20 21
16 5 5 8 10 18 7 5 3 3 4 6 12 10 4 5 5 2 3 7 9 13 21 27 26 29 29 22 16 14 16 25 34 34 31 26 22 22 23 20 22 20 22 26
5 18 12 4 3 3 7 7 4 4 5 5 8 9 1 6 3 3 5 10 13 17 24 28 25 29 32 27 16 15 18 26 34 34 31 25 22 22 22 20 24 22 25 26
5 6 10 11 15 9 14 13 5 8 7 4 2 6 5 8 10 7 6 9 13 19 23 26 24 26 29 29 21 14 20 26 32 34 30 25 23 24 22 23 23 28 24 31
8 5 9 3 2 9 6 8 11 6 2 2 4 2 7 8 10 14 18 16 16 19 22 25 27 24 32 30 23 15 19 26 30 33 29 26 25 24 25 24 22 24 27 26
4 5 2 8 8 4 1 4 4 2 7 8 6 4 5 7 9 11 14 17 18 19 19 21 24 26 30 29 19 12 15 23 28 32 28 26 25 24 24 23 25 28 26 27
5 1 11 3 2 5 3 1 3 4 1 5 5 3 8 6 6 10 12 16 15 17 18 20 22 29 33 27 23 14 13 21 27 30 28 25 23 23 22 22 21 21 25 28
2 2 4 11 4 2 3 1 3 4 5 1 1 4 11 4 6 10 14 19 17 13 15 18 19 29 36 37 25 24 15 21 29 29 28 26 24 23 22 21 20 18 20 22
5 1 3 6 4 9 5 5 4 3 2 3 3 3 4 9 15 19 17 19 20 13 10 15 24 28 28 39 34 23 20 19 28 27 27 25 24 24 22 20 17 13 11 15
4 5 5 5 9 3 6 5 4 2 1 1 7 12 14 15 14 16 24 19 19 13 10 13 20 28 25 35 33 17 20 23 27 27 25 23 24 24 22 20 16 10 8 9
3 10 10 12 9 7 7 9 7 10 8 7 12 11 17 20 16 19 21 22 17 18 12 11 16 24 30 33 32 18 13 22 24 25 28 22 20 23 23 22 16 12 9 6
1 8 3 8 6 9 12 11 12 15 13 15 18 20 24 25 20 20 19 21 16 10 7 9 12 19 30 31 30 23 7 22 19 25 28 22 20 21 23 22 19 14 11 8
3 3 4 13 7 7 8 19 17 16 15 14 15 19 16 17 13 15 21 15 8 6 7 11 13 18 25 28 29 26 13 10 18 23 28 25 21 22 23 21 20 17 14 12
9 5 3 6 3 10 11 4 5 11 15 11 16 20 19 21 24 19 8 5 6 9 12 15 17 21 20 22 23 27 15 7 21 23 26 27 23 23 25 23 24 19 18 16
14 8 4 3 7 11 14 15 10 9 14 6 10 13 19 26 17 11 2 4 8 10 12 14 17 20 20 20 20 23 14 6 16 21 25 27 27 26 28 27 25 21 20 19
4 11 7 4 5 5 3 3 3 3 10 2 5 8 15 5 5 4 2 4 6 10 13 16 18 18 18 18 19 18 12 9 14 17 22 24 28 29 29 28 26 24 22 21
3 2 11 12 5 6 5 11 4 4 3 6 11 15 10 4 3 6 3 6 10 13 15 16 17 17 17 17 17 15 5 8 19 23 23 26 27 26 30 30 28 26 25 22
4 3 1 2 4 5 10 6 2 7 9 14 17 11 12 8 7 6 6 9 12 15 15 16 16 16 15 14 16 14 8 5 10 23 28 29 31 26 29 29 29 29 28 27
3 3 3 3 3 3 7 9 12 4 10 13 14 15 8 5 6 7 9 12 14 15 15 16 15 14 13 12 13 13 11 5 2 11 23 29 31 30 31 33 34 36 34 32
4 8 3 5 2 7 15 9 7 9 13 9 7 9 9 8 7 8 10 12 14 15 14 16 15 14 13 11 11 12 11 8 2 13 15 20 26 28 32 34 36 38 39 37
4 8 9 5 4 16 15 17 10 13 14 13 13 13 13 12 11 9 10 13 13 13 14 14 15 15 14 13 11 10 10 7 4 10 16 23 24 29 30 27 27 28 29 31
6 6 4 3 21 3 8 15 16 22 19 16 14 15 14 12 11 10 11 11 12 14 15 14 14 14 14 14 11 8 7 6 3 10 16 21 28 26 26 29 29 19 17 17

GFSCGP_850_spd_120.txt.gz
Wind_Speed
16 14 22 22 20 20 19 19 19 17 9 13 18 18 13 13 20 19 19 18 15 12 9 9 10 11 13 15 15 19 25 27 24 27 33 40 43 40 38 35 28 30 30 29
11 21 20 19 20 20 22 22 24 19 9 13 19 23 21 14 18 19 18 14 10 7 7 9 12 15 15 18 16 14 15 18 22 26 34 36 38 37 35 31 27 28 29 28
22 11 10 16 17 20 21 22 18 18 14 15 17 21 21 14 16 12 10 7 2 2 5 9 14 15 15 17 16 13 11 16 19 22 27 27 33 34 32 30 27 28 27 28
17 17 17 11 15 17 19 16 16 16 10 14 11 10 8 9 9 11 7 5 4 0 5 8 13 15 16 18 16 9 9 14 17 24 28 31 32 35 32 26 25 26 27 28
12 8 14 19 23 16 16 11 10 15 15 18 16 8 11 7 15 10 7 5 3 2 5 9 12 14 15 19 19 10 8 12 16 25 25 26 23 19 19 22 19 24 25 24
15 21 11 12 13 16 19 13 10 11 11 15 17 14 10 15 17 8 9 7 4 4 7 10 13 14 16 17 19 16 9 11 17 24 27 23 20 18 16 18 19 23 21 17
13 15 16 16 14 7 13 12 8 9 10 16 11 11 14 9 7 7 7 5 4 6 8 13 16 18 18 20 18 18 13 12 18 26 31 26 22 18 18 17 19 19 20 17
8 8 1 7 17 13 17 17 10 12 14 16 10 9 7 10 10 9 5 2 4 7 9 13 16 17 18 20 21 17 14 14 18 22 30 31 26 21 18 18 18 20 22 20
9 9 4 7 5 17 15 16 20 15 9 8 8 8 8 10 10 8 7 5 6 9 11 13 14 15 19 21 21 18 11 13 18 20 29 32 27 20 18 18 19 18 18 20
6 11 4 2 12 6 13 12 14 10 17 21 18 17 9 16 10 7 8 9 9 10 12 13 13 14 18 21 21 12 11 14 17 21 28 33 28 22 21 21 21 21 19 20
11 8 14 7 4 4 5 8 5 9 15 16 16 13 14 16 8 4 6 10 11 12 12 11 11 15 18 18 18 18 12 16 15 21 25 30 26 22 22 26 23 22 21 20
7 7 10 12 4 6 8 5 3 4 14 11 8 4 13 11 4 4 6 10 10 13 12 10 10 13 17 17 18 19 16 16 17 19 21 27 24 21 21 24 23 23 20 20
10 4 8 12 8 7 5 7 2 1 6 10 9 8 10 6 6 9 10 15 13 15 13 12 12 12 13 14 18 23 20 17 21 20 22 27 25 21 21 21 22 20 17 19
14 10 10 12 8 8 5 7 11 6 4 5 10 8 6 7 10 11 18 16 16 18 14 12 12 13 13 16 22 26 24 19 21 23 25 28 24 22 21 20 20 17 14 12
6 13 14 15 16 14 13 15 13 12 12 11 14 14 13 15 15 17 18 18 18 18 15 11 10 13 15 16 21 28 27 22 14 25 27 28 24 23 21 22 20 17 13 10
5 9 11 15 16 14 16 17 17 17 16 17 18 18 19 16 13 14 19 18 20 17 10 10 10 13 15 19 21 21 34 31 12 28 29 25 23 24 23 24 21 18 15 11
9 7 10 14 10 13 13 17 17 20 17 15 15 19 18 16 16 19 21 20 18 10 9 10 13 14 17 18 20 19 31 30 16 21 27 29 22 22 24 26 24 21 17 14
14 14 10 10 11 12 11 9 9 12 14 14 15 18 18 19 24 26 24 19 7 4 7 9 12 15 16 17 18 19 18 29 23 19 27 32 26 23 23 27 27 23 19 17
12 14 9 8 9 13 18 8 9 12 15 14 13 14 18 24 28 23 6 2 1 4 7 10 13 16 17 19 20 21 14 24 24 19 28 34 30 27 29 31 29 25 22 20
5 9 10 9 6 4 3 4 11 8 11 9 5 10 16 18 10 5 7 5 6 8 10 13 15 15 17 19 19 19 17 14 15 11 27 32 32 31 34 31 31 28 24 22
7 3 12 12 8 6 5 10 12 9 5 12 10 17 19 9 5 7 8 9 11 11 13 14 14 15 18 19 18 17 16 14 12 12 24 33 34 34 31 32 31 29 27 27
5 7 3 3 4 3 11 6 5 12 18 16 18 14 12 5 8 8 8 11 13 13 14 16 15 16 17 18 17 17 16 14 13 11 17 34 35 33 31 34 34 32 30 32
4 5 5 5 5 18 23 18 19 16 14 7 10 13 13 13 12 11 11 11 12 13 15 15 16 16 17 18 17 16 16 13 9 7 8 28 33 30 31 36 37 38 36 34
7 13 3 11 10 17 16 19 17 13 9 8 11 13 13 12 12 10 11 12 13 14 14 14 15 17 18 17 17 14 12 10 7 3 7 16 26 34 36 39 41 40 40 40
4 10 9 4 9 14 23 26 21 16 16 16 14 15 15 13 13 12 12 13 13 14 14 14 16 16 17 17 16 14 11 9 6 3 4 14 17 24 32 38 40 42 40 40
6 4 5 4 15 11 10 21 20 17 15 15 15 15 15 14 13 11 12 12 13 14 14 14 15 14 15 15 14 12 10 8 7 7 10 11 18 21 24 27 28 21 22 20

GFSCGP_850_spd_123.txt.gz
Wind_Speed
17 14 19 21 23 26 24 24 24 22 14 15 22 18 19 20 22 20 21 18 19 19 17 16 10 10 10 12 14 18 20 24 26 26 27 31 33 37 34 39 35 31 32 30
15 19 18 20 23 24 25 24 26 25 21 17 18 22 20 21 17 19 24 22 21 17 12 11 7 8 9 10 12 15 18 18 21 25 26 28 35 41 37 37 36 34 31 31
21 23 11 14 20 24 24 25 23 24 19 15 20 24 24 26 26 26 23 22 15 10 10 7 7 6 6 7 9 11 13 15 18 21 23 30 33 35 35 39 38 35 34 29
15 15 22 24 20 18 21 20 23 22 17 18 22 21 23 21 20 20 24 17 12 13 8 5 4 5 6 8 10 9 9 12 16 19 23 30 33 34 34 36 36 33 29 25
19 20 12 19 22 20 22 16 14 13 16 19 24 16 17 12 15 12 15 15 13 8 5 2 3 5 6 9 10 10 7 9 13 16 22 23 30 24 19 22 25 34 28 25
24 25 19 19 17 18 20 23 19 15 15 16 27 22 19 15 18 18 14 14 11 9 5 1 3 6 7 10 12 11 10 8 15 15 26 23 31 21 24 22 26 22 24 27
20 19 17 21 19 17 15 14 11 10 12 20 20 20 17 10 15 19 16 12 8 6 3 1 4 7 9 10 12 12 11 9 10 14 19 27 26 25 22 22 19 20 26 28
15 17 7 9 15 16 20 17 12 15 13 16 24 16 16 22 7 12 14 10 7 5 2 1 4 7 10 11 13 13 12 10 10 11 17 27 25 23 20 19 20 20 22 22
13 19 7 7 8 10 12 15 20 22 20 10 10 16 6 9 14 11 13 11 5 4 3 3 5 7 9 13 15 15 11 9 13 14 14 27 28 23 21 17 21 19 20 19
16 19 18 19 10 12 7 14 10 8 6 19 15 14 8 17 15 13 11 7 4 1 3 5 6 7 11 14 15 14 13 11 11 13 15 20 25 29 19 18 21 21 18 18
17 17 19 21 14 11 1 11 13 11 10 12 15 13 16 18 16 13 10 4 0 5 7 9 9 9 10 12 14 15 15 15 13 11 14 18 23 26 25 21 20 21 18 19
17 8 12 20 11 4 6 5 2 6 17 14 16 8 16 20 14 11 9 2 3 7 11 13 11 11 10 12 14 16 17 17 17 14 12 19 23 27 29 27 23 19 19 19
10 6 9 14 16 9 2 3 2 6 3 10 13 5 11 9 14 11 3 3 6 9 14 15 14 13 12 11 14 14 15 19 19 16 13 17 23 26 28 26 23 24 23 19
10 15 16 12 15 5 14 6 10 7 7 8 8 7 2 6 13 1 4 9 10 11 15 16 15 14 12 10 13 15 16 20 23 16 13 15 22 27 28 25 23 24 22 22
14 16 17 17 22 21 17 16 12 10 13 14 16 7 11 14 9 10 10 10 14 13 16 16 12 10 12 13 16 17 19 18 20 20 17 15 21 26 27 25 24 25 22 20
8 8 16 17 18 21 21 20 15 15 14 17 18 19 14 15 9 11 14 15 17 18 18 13 9 13 15 15 16 18 20 20 18 22 18 21 20 28 26 25 25 22 21 19
14 12 12 16 16 14 14 17 18 18 16 14 16 17 16 14 13 15 18 19 21 20 10 11 12 13 14 15 16 17 20 21 19 19 21 22 23 27 26 26 26 25 23 19
15 16 12 13 16 15 12 7 12 11 12 16 17 17 15 13 19 23 24 26 21 11 8 10 11 14 14 15 16 20 20 19 19 19 25 20 24 26 25 28 29 28 24 21
8 10 7 5 9 15 17 9 12 13 13 13 14 14 16 21 23 20 13 12 9 9 9 11 13 15 15 16 18 19 19 19 19 17 25 18 22 27 25 31 32 29 26 23
10 12 10 11 5 4 2 3 7 12 11 13 15 15 17 20 7 6 12 11 11 10 10 12 13 13 14 18 18 18 20 20 17 15 22 20 23 28 29 34 32 30 27 25
12 8 10 10 7 6 14 18 14 6 5 14 16 18 17 5 5 5 6 9 10 11 12 13 12 12 15 18 18 16 19 21 17 16 14 18 25 28 36 34 31 32 31 29
5 9 6 5 4 2 27 14 11 14 22 16 17 17 13 11 4 4 8 10 12 12 13 14 13 14 15 17 18 17 18 19 17 12 12 18 21 33 38 36 34 35 34 33
4 5 6 6 6 15 20 11 20 21 13 12 12 11 10 11 10 9 9 10 11 14 14 15 14 14 15 18 19 19 19 18 15 13 9 13 19 36 41 37 37 40 38 37
4 9 3 10 7 16 18 26 25 24 18 15 14 14 14 14 14 12 13 13 13 14 16 16 16 16 17 18 18 17 17 15 12 10 8 7 12 26 37 39 39 41 42 40
5 7 10 4 6 18 12 24 21 19 20 19 15 15 14 12 13 12 12 13 14 15 16 15 16 16 17 19 18 16 14 13 10 7 3 2 5 16 26 35 37 41 40 39
6 3 4 4 13 11 12 21 21 21 21 19 17 16 16 16 15 13 12 13 14 15 16 17 16 16 16 17 18 16 13 11 8 4 6 10 7 13 17 27 27 24 29 36